Big House, Big Heart

Overall Finish List

April 15, 2012


RF TIiming RF TIming

5k Run/Walk

Place Name City Bib No Age Gender Total Time Pace
1 Dean Huffer Ann Arbor MI 8802 27 M 15:44.9 5:04/M
2 Lindsey LaLonde Ann Arbor MI 4891 27 M 15:57.0 5:09/M
3 Joshua Perrin Ann Arbor MI 8979 26 M 16:14.2 5:14/M
4 Jacob Williams Ann Arbor MI 8505 23 M 16:48.6 5:25/M
5 Tyler Belyea Ann Arbor MI 8574 19 M 17:23.0 5:36/M
6 John Graham Tekonsha MI 8047 39 M 17:41.9 5:42/M
7 paul mayer ann arbor MI 5450 44 M 17:50.0 5:45/M
8 John Guittar Ann Arbor MI 4290 27 M 18:12.9 5:52/M
9 Codey Cook St. Johns MI 7948 15 M 18:16.9 5:54/M
10 kevin raftery 5998 22 M 18:20.1 5:55/M
11 Trey Cassidy Grosse Pointe Woods MI 8622 43 M 18:31.5 5:58/M
12 Kristina Olsen Jackson MI 6523 23 F 18:38.3 6:01/M
13 Joe Styrna ann arbor MI 5102 36 M 18:41.3 6:02/M
14 Angie Sullivan Ann Arbor MI 8418 40 F 18:45.2 6:03/M
15 Adam Brown Ann Arbor MI 8604 2 M 18:56.4 6:06/M
16 noah lopez dearborn MI 8182 27 M 18:56.6 6:06/M
17 scott moore rochester hills MI 1788 28 M 19:07.8 6:10/M
18 Evan Anderson Ann Arbor MI 3068 25 M 19:08.6 6:10/M
19 Jeff Rothstein Ann Arbor MI 8331 50 M 19:17.7 6:13/M
20 Jeremy Schwartz Northville MI 7037 34 M 19:18.7 6:14/M
21 alex juwong ann arbor MI 4664 24 M 19:18.9 6:14/M
22 Timothy Cotts Ann Arbor MI 3663 40 M 19:25.9 6:16/M
23 Ryan Gentner Brooklyn MI 4163 18 M 19:30.3 6:17/M
24 Yvan Boucher Ann Arbor MI 3334 25 M 19:33.1 6:18/M
25 David Anderson Ann Arbor MI 3065 28 M 19:35.3 6:19/M
26 Herb Meingast Ann Arbor MI 1783 49 M 19:36.2 6:19/M
27 Alex Williams Caro MI 5613 27 M 19:37.2 6:20/M
28 Roger Sunahara Ann Arbor MI 7317 49 M 19:44.4 6:22/M
29 Matt Clunis Farmington Hills MI 3608 20 M 19:47.7 6:23/M
30 Edward Hudson Temperance MI 8104 37 M 19:48.0 6:23/M
31 Alexis Toulouse Ann Arbor MI 8450 26 M 19:48.6 6:23/M
32 Brendan Driscoll Ann Arbor MI 8695 18 M 19:49.7 6:24/M
33 Samuel Olesky Ann Arbor MI 8962 26 M 19:51.0 6:24/M
34 Thomas Mammel 5812 14 M 19:51.4 6:24/M
35 Lars Hallstrom Ann Arbor MI 8063 14 M 19:53.8 6:25/M
36 Ron Stack Fenton MI 5576 41 M 19:55.6 6:25/M
37 Chuck Martens Saline MI 8199 47 M 20:04.9 6:28/M
38 Tom Heinlein Ann Arbor MI 4405 44 M 20:06.7 6:29/M
39 James Costello Ann Arbor MI 3657 21 M 20:10.9 6:30/M
40 Max Benoit Royal Oak MI 5214 17 M 20:12.2 6:31/M
41 Thomas McIntyre Woodhaven MI 6217 32 M 20:15.4 6:32/M
42 John Walsh Ann Arbor MI 5608 29 M 20:18.7 6:33/M
43 Leonardo Brito Ann Arbor MI 3380 42 M 20:20.6 6:34/M
44 Brian Rebits Troy MI 6783 40 M 20:22.5 6:34/M
45 Matthew Chumley Saginaw MI 7936 30 M 20:25.1 6:35/M
46 koichi mori Ann Arbor MI 6365 39 M 20:29.9 6:36/M
47 Michael Van Lent Ann Arbor MI 7493 43 M 20:33.6 6:38/M
48 Kiley Mitchell Belleville MI 8235 39 M 20:34.1 6:38/M
49 Amy Coughlin Waterford MI 7956 31 F 20:34.6 6:38/M
50 Charles Fahlsing Ann Arbor MI 5317 21 M 20:34.8 6:38/M
51 Alex Advey Ypsilanti MI 7841 35 M 20:36.2 6:39/M
52 Joe Kochmanski Ann Arbor MI 5417 22 M 20:36.5 6:39/M
53 Matthew Trantino 5920 27 M 20:36.7 6:39/M
54 Justin Senkbeil Livonia MI 1326 29 M 20:38.7 6:39/M
55 Jeff McNeil Waterford MI 8212 40 M 20:39.1 6:40/M
56 Scott Leffel Beavercreek OH 4953 41 M 20:40.3 6:40/M
57 Lowell Zuckerman Ann Arbor MI 7829 36 M 20:41.4 6:40/M
58 Yaniv Atzmon Ann Arbor MI 5197 40 M 20:41.9 6:40/M
59 Gregory Snyder Houston TX 8396 19 M 20:42.9 6:41/M
60 John Larin Ann Arbor MI 4906 51 M 20:44.6 6:41/M
61 Zach Weglarz Macomb MI 5141 17 M 20:45.0 6:42/M
62 Ryan Smitt Commerce township MI 5080 17 M 20:51.0 6:44/M
63 Mike Wilder Bingham Farms MI 7691 27 M 20:53.0 6:44/M
64 Brendan Egan 5734 25 F 20:56.0 6:45/M
65 Naveen Fujii Ann Arbor MI 8027 13 M 20:57.2 6:45/M
66 cory wernimont ann arbor MI 5852 36 M 20:59.7 6:46/M
67 Colin Lewis-Beck Ann Arbor MI 879 30 M 20:59.8 6:46/M
68 Brendan Ryan Canton MI 8341 28 M 21:01.9 6:47/M
69 Butch Uhl Lasalle MI 7475 29 M 21:08.0 6:49/M
70 Alan Hall Ann Arbor MI 4309 27 M 21:09.6 6:49/M
71 Mark Cardy Saint Clair Shores MI 3498 18 M 21:10.7 6:50/M
72 Garit Birchmeier Dexter MI 8582 15 M 21:11.7 6:50/M
73 peter kananen 2540 30 M 21:14.8 6:51/M
74 Camille Akemann Ann Arbor MI 7845 20 F 21:14.9 6:51/M
75 Brian McGrath Ann Arbor MI 6212 19 M 21:17.1 6:52/M
76 Daniel Zacks Ann Arbor MI 8528 13 M 21:18.5 6:52/M
77 Lasse Boehling Ann Arbor MI 8587 29 M 21:19.0 6:53/M
78 Milan Lockhart Ann Arbor MI 8180 19 M 21:19.8 6:53/M
79 Jon Sandison Dearborn MI 6974 24 M 21:20.0 6:53/M
80 Ken Zimmerman Grand Rapids MI 8535 58 M 21:20.1 6:53/M
81 Gary Schmitt Plymouth MI 7015 34 M 21:20.3 6:53/M
82 Paul Dowling Ann Arbor MI 8694 16 M 21:21.9 6:53/M
83 Mark Zauel Ann Arbor MI 7800 43 M 21:23.4 6:54/M
84 Glen Gerwatowski Frankenmuth MI 4174 24 M 21:25.0 6:55/M
85 Daniel Robertson Wyoming MI 6849 25 M 21:25.2 6:55/M
86 spencer kennard ann arbor MI 4740 22 M 21:25.3 6:55/M
87 Sarah Saylor Niles MI 6998 31 F 21:26.3 6:55/M
88 Eliza Harris Mattawan MI 4362 25 F 21:26.6 6:55/M
89 Matt Misiak Holland MI 6329 15 M 21:27.4 6:55/M
90 Andrew Cornett Ypsilanti MI 3652 30 M 21:29.3 6:56/M
91 Rafael de Juan Astray Ann Arbor MI 8668 22 M 21:30.2 6:56/M
92 Yasmine White Ann Arbor MI 7666 22 F 21:32.1 6:57/M
93 Doug Millson Windsor ON 6317 31 M 21:34.3 6:57/M
94 Sydney Kreger Grosse Ile MI 4837 13 F 21:35.7 6:58/M
95 David Hiemstra Ann Arbor MI 4454 23 M 21:36.2 6:58/M
96 Mark Russell Ann Arbor MI 8338 48 M 21:36.4 6:58/M
97 Carrie Swoish Rochester Hills MI 8422 27 F 21:43.0 7:00/M
98 Ben Goldstein Ann Arbor MI 4205 31 M 21:43.7 7:00/M
99 Ethan Lothamer Bellevue MI 6045 11 M 21:44.1 7:01/M
100 Skyler Gilchrist Spring Lake MI 5348 13 F 21:45.1 7:01/M
 
Place Name City Bib No Age Gender Total Time Pace
101 Jessica King Ann Arbor MI 4776 21 F 21:46.3 7:01/M
102 Amy Gingras Jackson MI 8746 41 F 21:46.9 7:01/M
103 Mitch Hall Ann Arbor MI 8061 49 M 21:47.0 7:02/M
104 Christopher Chuparkoff Saline MI 5263 10 M 21:47.2 7:02/M
105 Philipp Schiffmann Ann arbor MI 5050 24 M 21:47.2 7:02/M
106 Stephanie Stiles ypsilanti MI 7299 27 F 21:47.3 7:02/M
107 Stuart Marley ANN ARBOR MI 6123 46 M 21:48.7 7:02/M
108 Michael Marasco Ann Arbor MI 8194 24 M 21:49.8 7:02/M
109 David Auwers Northville MI 8564 22 M 21:50.7 7:03/M
110 Archie Hall Lansing MI 4311 43 M 21:58.4 7:05/M
111 Zane Norman Tekonsha MI 8252 23 M 21:58.8 7:05/M
112 Steven Bach Ypsilanti MI 48 33 M 21:59.2 7:05/M
113 Mike McCormack Plymouth MI 8205 55 M 21:59.7 7:05/M
114 Hiroshi Hatta 5846 39 M 22:00.6 7:06/M
115 D'Real Graham Ypsilanti MI 5825 25 M 22:02.7 7:06/M
116 Patrick Dennis New York NY 3803 32 M 22:03.4 7:07/M
117 Koji Hiraiwa Ann Arbor MI 4469 46 M 22:03.7 7:07/M
118 Dave Vanderkooy Waterford MI 7501 51 M 22:04.8 7:07/M
119 Gary Sallans Goodrich MI 6961 49 M 22:05.7 7:07/M
120 Chris Peavey Piketon OH 5515 26 M 22:08.1 7:08/M
121 Philip Valtadoros ann arbor MI 7490 12 M 22:09.0 7:09/M
122 Dave Schmidt Dublin OH 8355 41 M 22:09.5 7:09/M
123 Danny Weglarz Macomb MI 5139 15 M 22:10.0 7:09/M
124 Daniel Simhaee Ann Arbor MI 1357 26 M 22:10.1 7:09/M
125 Peter D'Angelo Ann Arbor MI 3738 29 M 22:10.3 7:09/M
126 Tim Douthit Ann Arbor MI 8691 50 M 22:10.9 7:09/M
127 Frank Chrzanowski Ann Arbor MI 3570 44 M 22:11.4 7:09/M
128 Tim Gray Ann Arbor MI 8051 23 M 22:13.0 7:10/M
129 kaili mchnight 2536 23 F 22:13.0 7:10/M
130 Jameson McRae Ann Arbor MI 8915 20 M 22:13.1 7:10/M
131 Lauren Bernhardt Livonia MI 8578 14 F 22:13.6 7:10/M
132 Peter Turpel Ann Arbor MI 5121 27 M 22:14.2 7:10/M
133 Carson Rabbitt Chelsea MI 6738 10 M 22:15.2 7:11/M
134 Garret Benoit Royal Oak MI 5213 18 M 22:15.4 7:11/M
135 Shannon Flynn Ann Arbor MI 4051 24 F 22:17.1 7:11/M
136 Cassie Williams Caro MI 5614 26 F 22:17.1 7:11/M
137 Bob Townsend Ann Arbor MI 5595 46 M 22:17.6 7:11/M
138 Keegan Oldani Ann Arbor MI 6517 10 M 22:18.4 7:12/M
139 Eric Walz Ann Arbor MI 7580 47 M 22:19.1 7:12/M
140 Ryan Silvester Ann Arbor MI 7123 16 M 22:20.6 7:12/M
141 Melissa Slotnick Ann Arbor MI 7171 35 F 22:20.6 7:12/M
142 Melanie Nakagawa Washington DC 6429 31 F 22:22.8 7:13/M
143 Kyra Fleming Saline MI 5329 45 F 22:23.8 7:13/M
144 matt bodenham 2538 39 M 22:23.9 7:13/M
145 Rachel Ciarkowski Ann Arbor MI 3575 15 F 22:24.8 7:14/M
146 Rob Massatti Ann Arbor MI 6150 32 M 22:25.3 7:14/M
147 Luke Benford Canton MI 3250 10 M 22:27.5 7:15/M
148 Wally Herrala Ann arbor MI 8084 67 M 22:27.6 7:15/M
149 Madeline Reyes Bay City MI 5013 15 F 22:29.4 7:15/M
150 Take Ishikawa Ann Arbor MI 4559 35 M 22:29.7 7:15/M
151 Will downey ann arbor MI 3853 11 M 22:29.8 7:15/M
152 Bill Castleman Canton MI 7924 40 M 22:29.9 7:15/M
153 Justin Michele Ann Arbor MI 5466 11 M 22:30.3 7:15/M
154 Jim Cummings Lathrup Village MI 7966 42 M 22:32.7 7:16/M
155 Ankit Singla Bloomfield Hills MI 7136 25 M 22:32.9 7:16/M
156 Rebecca Price Ann Arbor MI 9000 54 F 22:34.7 7:17/M
157 Aurelia Yoblonski Vero Beach FL 7789 26 F 22:35.6 7:17/M
158 Michael Vizzini Saline MI 7536 17 M 22:36.6 7:17/M
159 James Hancock Albion MI 8771 43 M 22:38.2 7:18/M
160 Charles Fang Ann Arbor MI 8008 23 M 22:38.5 7:18/M
161 Pam Iyer Fort Collins CO 4563 56 F 22:39.1 7:18/M
162 matt caudill taylor MI 5259 24 M 22:39.9 7:18/M
163 Jackson Barden Port Huron MI 3169 8 M 22:40.4 7:19/M
164 Chad Aaronson Ann Arbor MI 3001 14 M 22:42.2 7:19/M
165 Joseph Williams Adrian MI 8506 48 M 22:42.6 7:19/M
166 Tony Iannelli Chelsea MI 4551 41 M 22:43.5 7:20/M
167 Rich Hansen Pinckney MI 8775 33 M 22:43.5 7:20/M
168 Andrea Reyes Ann Arbor MI 5012 18 F 22:43.6 7:20/M
169 Blake Freeman Ann Arbor MI 4094 15 M 22:44.4 7:20/M
170 Robert Wierenga Ann Arbor MI 5153 42 M 22:46.6 7:21/M
171 Jon Charles Ann Arbor MI 3551 15 M 22:48.5 7:21/M
172 Jake Grabowski Dearborn MI 4224 19 M 22:48.7 7:21/M
173 James Casey Ann Arbor MI 3522 39 M 22:49.3 7:22/M
174 Darin Adgate South Lyon MI 3021 44 M 22:50.7 7:22/M
175 Cedric Richner Ann Arbor MI 6821 47 M 22:50.8 7:22/M
176 Brendan Hogan Saline MI 4491 15 M 22:50.9 7:22/M
177 Jeffrey Clark Ann Arbor MI 3585 46 M 22:51.9 7:22/M
178 chase bernhardt 2216 20 M 22:52.9 7:23/M
179 Erik Forbord Howell MI 439 34 M 22:53.6 7:23/M
180 fred feng 2544 27 M 22:54.1 7:23/M
181 Neil O'Donnell Plymouth MI 6505 33 M 22:55.1 7:24/M
182 Bobby MacDermaid Linden MI 8185 19 M 22:57.1 7:24/M
183 Dave arens 2554 48 M 22:57.2 7:24/M
184 Stephen Cook Ann Arbor MI 7952 22 M 22:59.3 7:25/M
185 Carmen Green-Lee Ann Arbor MI 4241 47 F 23:00.1 7:25/M
186 Ann Lokuta Trenton MI 6037 23 F 23:01.0 7:25/M
187 Jessica Gibson Royal Oak MI 8741 26 F 23:01.2 7:25/M
188 John Reed Parma MI 5009 60 M 23:01.4 7:25/M
189 Samuel Brodkey 5710 18 M 23:02.6 7:26/M
190 Julie Bockey Temperance MI 3306 37 F 23:02.8 7:26/M
191 Jennifer Sprague Royal Oak MI 8405 31 F 23:03.2 7:26/M
192 Paul Daly Auburn Hills MI 3733 30 M 23:03.2 7:26/M
193 marci ammerman Ann Arbor MI 5193 46 F 23:05.4 7:27/M
194 Jessica Helwig Frankenmuth MI 4411 23 F 23:06.4 7:27/M
195 Marshall Thelen South Lyon MI 7401 13 M 23:06.8 7:27/M
196 Scott Hebda Linden MI 4395 43 M 23:09.5 7:28/M
197 Joe Binder Plymouth MI 5218 38 M 23:09.7 7:28/M
198 Dean Martin Jackson MI 6132 44 M 23:10.1 7:28/M
199 Kumiko Berger Dexter MI 5215 48 F 23:13.2 7:29/M
200 Kenneth Crabtree Ann Arbor MI 3685 27 M 23:13.8 7:29/M
 
Place Name City Bib No Age Gender Total Time Pace
201 Spencer Silveus jackson MI 5069 15 M 23:14.6 7:30/M
202 E.J. Vasicek Ann arbor MI 7518 45 M 23:15.0 7:30/M
203 Katelyn Beach howell MI 7868 23 F 23:15.3 7:30/M
204 T Predeaux Royal Oak MI 6708 37 M 23:16.2 7:30/M
205 Jose Luis Cabrera Perez ann arbor MI 7918 42 M 23:16.6 7:30/M
206 Chelsea Lindblad Ann Arbor MI 6007 23 F 23:17.2 7:31/M
207 Peter Vargas Westland MI 7514 30 M 23:17.3 7:31/M
208 Katie Carroll Ann Arbor MI 3512 27 F 23:17.8 7:31/M
209 James Banish Howell MI 3168 21 M 23:18.3 7:31/M
210 John Morse Ann Arbor MI 6375 28 M 23:19.3 7:31/M
211 jeff walters ypsilanti MI 7574 0 M 23:24.0 7:33/M
212 Spenser Paul Ann Arbor MI 6593 23 M 23:25.5 7:33/M
213 Jeff Saylor Niles MI 6997 33 M 23:25.6 7:33/M
214 Carrie Schupbach Jackson MI 8364 51 F 23:27.1 7:34/M
215 Sean Williams Ann Arbor MI 7705 35 M 23:27.5 7:34/M
216 Greg Misiak Holland MI 6328 49 M 23:28.1 7:34/M
217 Justin Westbrook Port Huron MI 7651 10 M 23:28.2 7:34/M
218 Gina DiBraccio Ann Arbor MI 7977 25 F 23:29.5 7:35/M
219 Daniel Keppler Clinton MI 4742 37 M 23:29.7 7:35/M
220 Jason Pascotto East Lansing MI 6580 30 M 23:30.9 7:35/M
221 Eugenio Garcia Ann Arbor MI 8738 30 M 23:31.1 7:35/M
222 sam jackson 2548 22 M 23:32.6 7:35/M
223 Jeff Sitko Clawson MI 7144 31 M 23:33.2 7:36/M
224 Robert Bemben 5638 58 M 23:33.2 7:36/M
225 Courtney Green Wellesley MA 541 19 F 23:33.5 7:36/M
226 Rosa Marden Ann Arbor MI 6118 35 F 23:33.7 7:36/M
227 Dennis Heinz Ypsilanti MI 8787 32 M 23:33.8 7:36/M
228 Jesse Ruf Ann Arbor MI 6931 22 M 23:35.3 7:36/M
229 Michael Kramer Beverly Hills MI 8161 0 M 23:35.4 7:36/M
230 Kristoff Homan Ann Arbor MI 4505 31 M 23:35.5 7:36/M
231 Olivia Hancock Albion MI 8773 12 F 23:36.8 7:37/M
232 Jennifer D'Souza Ann Arbor MI 3868 33 F 23:38.1 7:37/M
233 Joshua White Ann Arbor MI 7663 32 M 23:39.9 7:38/M
234 Ryan Gardner Superior Twp MI 5342 25 M 23:40.6 7:38/M
235 DJ Martin 5898 32 M 23:41.5 7:38/M
236 Anthony Charameda Holland MI 3546 12 M 23:41.9 7:38/M
237 Thomas Boss Ypsilanti MI 3328 14 M 23:42.9 7:39/M
238 Alicia Comer Ann Arbor MI 3624 39 F 23:43.8 7:39/M
239 Helen Rebandt Canton MI 6781 44 F 23:44.3 7:39/M
240 Kevin Hughes Portage MI 4539 24 M 23:45.3 7:40/M
241 Richmond Newman Ann Arbor MI 5486 0 M 23:46.5 7:40/M
242 Trevor Mandziara Macomb MI 6096 15 M 23:47.7 7:40/M
243 Dan Kiefer Ann Arbor MI 4752 22 M 23:48.1 7:41/M
244 Joseph Mize Saginaw MI 6334 39 M 23:48.3 7:41/M
245 Page Cassidy Grosse Pointe Woods MI 8621 9 F 23:49.1 7:41/M
246 Jason Abrams New Hudson MI 3007 33 M 23:50.9 7:41/M
247 Paul Campbell Grand Rapids MI 3485 20 M 23:52.3 7:42/M
248 Katie Miller Ann Abor MI 6301 11 F 23:52.6 7:42/M
249 Jeffrey Kirkey Dexter MI 782 39 M 23:52.7 7:42/M
250 Rick Pallante St. Clair Shores MI 8274 47 M 23:53.3 7:42/M
251 erik hopkins ann arbor MI 8094 31 M 23:53.5 7:42/M
252 Brian O'Donnell Grand Blanc MI 6504 36 M 23:53.7 7:42/M
253 Thomas Miller Ann Arbor MI 6309 39 M 23:53.9 7:42/M
254 John Daly Flint MI 3731 32 M 23:54.4 7:43/M
255 Stephanie Royer Ann Arbor MI 5029 26 F 23:54.6 7:43/M
256 Michael Powers Highland MI 6700 46 M 23:54.8 7:43/M
257 Tony Charameda Holland MI 3549 42 M 23:55.1 7:43/M
258 Chad Parenteau Swartz Creek MI 6572 32 M 23:55.2 7:43/M
259 Philip Armbruster Ypsilanti MI 8554 46 M 23:56.0 7:43/M
260 Gary Branch DeWitt MI 5234 39 M 23:56.0 7:43/M
261 Sarah Armbruster Ypsilanti MI 8555 13 F 23:57.4 7:44/M
262 Nicolas Tempels Ann Arbor MI 7383 23 M 23:57.7 7:44/M
263 Jared List Frankenmuth MI 6019 24 M 23:58.1 7:44/M
264 Christian Johnson Frankfort MI 4611 14 M 23:59.2 7:44/M
265 Steven Beaudet 5666 21 M 23:59.3 7:44/M
266 Courtney Chang Farmington Hills MI 3540 34 F 23:59.5 7:44/M
267 Zachary Mineroff Ann Arbor MI 1022 18 M 24:00.1 7:45/M
268 Angela Chea Dexter MI 3555 41 F 24:01.0 7:45/M
269 Ducky Sanders Ludington MI 6971 42 F 24:01.4 7:45/M
270 Steve Chang Farmington Hills MI 3541 34 M 24:01.5 7:45/M
271 Luke Thorburn Dansville MI 7418 35 M 24:02.9 7:45/M
272 Nicole Thiel Northville MI 1459 32 F 24:03.7 7:45/M
273 Douglas Strait Ann Arbor MI 7308 21 M 24:03.8 7:45/M
274 Greg Barnett Belleville MI 5204 43 M 24:03.9 7:45/M
275 matthew cataldo w. bloomfield MI 3530 18 M 24:05.0 7:46/M
276 Keith Duhaime Perrysberg OH 3880 45 M 24:05.2 7:46/M
277 Michael Murphy burton MI 6410 61 M 24:05.3 7:46/M
278 Sai Li Ann Arbor MI 4991 32 M 24:05.6 7:46/M
279 David Dowling Ann Arbor MI 8693 51 M 24:05.7 7:46/M
280 Francis Connolly Ann Arbor MI 3633 51 M 24:06.1 7:46/M
281 Aubrey Duhaime Perrysburg OH 3879 8 F 24:06.4 7:46/M
282 Jim Mathew Macomb MI 6156 26 M 24:07.2 7:47/M
283 Laura Olesky Ann Arbor MI 8961 27 F 24:07.4 7:47/M
284 Trevor McNeill Ann Arbor MI 6232 22 M 24:07.7 7:47/M
285 David Fisher Ann Arbor MI 8014 62 M 24:09.3 7:47/M
286 Erin Abrams New Hudson MI 3006 33 F 24:09.5 7:47/M
287 Nick Foster Ann Arbor MI 5331 11 F 24:09.7 7:47/M
288 Rachelle Bell Adrian MI 3239 25 F 24:09.7 7:47/M
289 Curt Lawrence Ann Arbor MI 4925 21 M 24:10.0 7:48/M
290 Alice Appleton Ann Arbor MI 3093 26 F 24:10.7 7:48/M
291 Max Olender West Bloomfield MI 8267 19 M 24:11.9 7:48/M
292 Kristin Ross Onsted MI 5547 37 F 24:12.1 7:48/M
293 Brady Fleszar Chelsea MI 4041 11 M 24:12.1 7:48/M
294 michelle avey livonia MI 7854 49 F 24:13.6 7:49/M
295 Chad Arnold Holt MI 7850 33 M 24:14.2 7:49/M
296 Face Brandon Marshall MI 8596 12 M 24:16.2 7:50/M
297 Romaine Witt Howell MI 8512 23 M 24:16.8 7:50/M
298 Owen Simlar Clinton Twp. MI 7126 14 M 24:17.3 7:50/M
299 Michael Olsen Woodhaven MI 6525 29 M 24:17.3 7:50/M
300 Justin Rufa Brighton MI 6932 32 M 24:17.8 7:50/M
 
Place Name City Bib No Age Gender Total Time Pace
301 Laura Buttitta Ann Arbor MI 3459 35 F 24:17.9 7:50/M
302 Michael Lilly Mt. Pleasant MI 8870 0 M 24:18.2 7:50/M
303 Justin Okley taylor MI 5496 29 M 24:18.3 7:50/M
304 Aunic Goodin Chelsea MI 4208 14 M 24:21.9 7:51/M
305 Robert Routh Ann Arbor MI 8332 2 M 24:22.0 7:52/M
306 David Szary Plymouth MI 7340 45 M 24:22.3 7:52/M
307 Rachel Cable Ann Arbor MI 3465 26 F 24:22.8 7:52/M
308 Lauren Reilly Bloomfield Hills MI 5011 19 F 24:23.4 7:52/M
309 Ben Wasson haslett MI 7599 24 M 24:25.1 7:53/M
310 Wade Evans Novi MI 3963 43 M 24:26.3 7:53/M
311 Toni Newell South Haven MI 6458 34 F 24:26.5 7:53/M
312 Jacob Saslow Ann Arbor MI 5043 20 M 24:26.6 7:53/M
313 Ken O'Day Ypsilanti MI 6503 50 M 24:27.6 7:53/M
314 Alex Wasson haslett MI 7598 29 M 24:28.8 7:54/M
315 Joshua Nelson Waterford MI 8247 37 M 24:30.1 7:54/M
316 Adrienne O'Day Ypsilanti MI 6502 36 F 24:30.5 7:54/M
317 Briana Weglarz Macomb MI 5138 13 F 24:30.5 7:54/M
318 Robert Bell 5770 0 M 24:31.4 7:55/M
319 Michael Mashiba Ann Arbor MI 6145 27 M 24:33.4 7:55/M
320 Connor Friedrichsen saline MI 4102 15 M 24:33.9 7:55/M
321 Jeff Knowlan Waldron MI 4803 49 M 24:34.1 7:55/M
322 Joseph Clementz Ann Arbor MI 3602 26 M 24:34.4 7:55/M
323 Claire Martin Ann Arbor MI 6130 21 F 24:34.7 7:55/M
324 James Keating 5926 28 M 24:35.3 7:56/M
325 Edward Sanders Lundington MI 6972 45 M 24:36.7 7:56/M
326 Malcolm Macdonald New Hudson MI 5438 13 M 24:36.8 7:56/M
327 A.C. Ewing Miamisburg OH 8007 34 M 24:37.7 7:56/M
328 Katherine Walton Ypsilanti MI 7575 27 F 24:38.0 7:57/M
329 Steve Wagner Woodridge IL 7556 48 M 24:38.4 7:57/M
330 Adam Smith Ann Arbor MI 7172 25 M 24:38.8 7:57/M
331 Michael Olabisi Ann Arbor MI 6515 36 M 24:39.3 7:57/M
332 David Ziebma 5763 46 M 24:39.8 7:57/M
333 Sahoko Little South Lyon MI 6025 48 F 24:40.5 7:57/M
334 Ken Mayer Ypsilanti MI 8899 38 M 24:40.7 7:57/M
335 Nicole Gabreski Ann Arbor MI 4130 24 F 24:42.1 7:58/M
336 Lisa Stevenson Goodrich MI 7293 31 F 24:42.4 7:58/M
337 Anna Little Dexter MI 6022 30 F 24:43.5 7:58/M
338 Gabriel Polley Whitmore Lake MI 6677 31 M 24:43.5 7:58/M
339 Cory Krings Oxford MI 4841 22 M 24:45.7 7:59/M
340 jennifer fulton roseville MI 4120 28 F 24:46.9 7:59/M
341 Timothy Armbruster Ypsilanti MI 8556 15 M 24:47.3 8:00/M
342 Sam Sorscher Ann Arbor MI 7227 15 M 24:47.9 8:00/M
343 Kelli Robertson Wyoming MI 6854 25 F 24:48.6 8:00/M
344 Ben Anaya Tecumseh MI 8545 0 M 24:50.0 8:01/M
345 Brian Gaines Plymouth MI 8735 30 M 24:50.1 8:01/M
346 Mark Nelson Dexter MI 6447 46 M 24:50.4 8:01/M
347 Ashley DeHudy Ann Arbor MI 5287 27 F 24:51.0 8:01/M
348 scot yoas plymouth MI 1636 54 M 24:51.2 8:01/M
349 Ryan Wagner Ann Arbor MI 7554 15 M 24:51.5 8:01/M
350 Byung-joo Kim Ann arbor MI 8828 35 M 24:51.6 8:01/M
351 Gary Horton Ypsilanti MI 8798 0 M 24:51.9 8:01/M
352 Owen Darr Ann Arbor MI 7971 26 M 24:52.1 8:01/M
353 Sarah Fink Petoskey MI 4017 21 F 24:52.5 8:01/M
354 Theresa Mull Plymouth MI 6395 38 F 24:52.9 8:01/M
355 Ryszard Szlenkier Ortonville MI 5586 19 M 24:52.9 8:01/M
356 Ryan Kaltenbach Saginaw MI 4674 38 M 24:53.2 8:02/M
357 Katie Hersberger Detroit MI 4436 29 F 24:53.6 8:02/M
358 Kirsten Hallstrom Ann Arbor MI 8062 42 F 24:53.8 8:02/M
359 Jacob Stevenson Goodrich MI 7292 8 M 24:53.8 8:02/M
360 Michael Wolf Ann Arbor MI 7740 15 M 24:54.0 8:02/M
361 Thomas Kovacs Ypsilanti MI 4830 40 M 24:54.1 8:02/M
362 Madison Stevenson Goodrich MI 7294 10 F 24:55.2 8:02/M
363 Adam Baxter Davison MI 3208 32 M 24:55.2 8:02/M
364 Chris Fugitt Grand Rapids MI 8025 27 M 24:55.5 8:02/M
365 Sara Perelli-Minetti Ann Arbor MI 8977 8 F 24:55.7 8:02/M
366 Amanda Mortensen Pinckney MI 6376 32 F 24:56.5 8:03/M
367 Terry Strohecker Oxford MI 7311 38 M 24:56.7 8:03/M
368 Griffin Kacanowski Clarkston MI 8819 10 M 24:57.4 8:03/M
369 Kristin Irwin Dundee MI 4558 37 F 24:58.4 8:03/M
370 Juhee Lee Okemos MI 4946 20 F 24:58.7 8:03/M
371 Timothy Cardy Saint Clair Shores MI 3499 54 M 24:58.8 8:03/M
372 Wendy Vidovic Whitmore lake MI 5131 48 F 24:59.9 8:04/M
373 Jeff Pfeifer Brighton MI 8987 19 M 25:00.5 8:04/M
374 Faye Zaski Dexter MI 8529 31 F 25:02.8 8:05/M
375 BRENT WORTHING MADISON WI 7760 30 M 25:02.9 8:05/M
376 Cara Adelson Fayetteville NY 7838 19 F 25:03.1 8:05/M
377 Marti Newell Hopkins MI 6456 27 F 25:03.5 8:05/M
378 Jeff Wensman Ann Arbor MI 7644 50 M 25:03.7 8:05/M
379 Doug Andrews Temperance MI 3075 28 M 25:04.3 8:05/M
380 Joshua Woods Saint Clair Shores MI 7758 31 M 25:04.5 8:05/M
381 Jamie Benaglio Livonia MI 3245 19 F 25:05.4 8:05/M
382 Peter Smereka Ann Arbor MI 5567 53 M 25:05.6 8:05/M
383 michael vandermarkt jenison MI 5127 34 M 25:05.7 8:05/M
384 Eric Grenier Royal Oak MI 4244 38 M 25:06.0 8:06/M
385 Colton Eaton Beaverton MI 3900 20 M 25:06.4 8:06/M
386 Jacquie Pethick Orchard Lake MI 8984 19 F 25:06.7 8:06/M
387 Becca Newman Manchester MI 5485 15 F 25:06.9 8:06/M
388 Eugene Sobieski Hartland MI 7214 41 M 25:07.0 8:06/M
389 Brian Czajka Ypsilanti MI 3721 42 M 25:07.3 8:06/M
390 Ana Sofia Moreno-Mesa Ann Arbor MI 6361 17 F 25:07.6 8:06/M
391 Kaelan Oldani Ann Arbor MI 6516 13 F 25:08.2 8:06/M
392 Connor Terech Milan MI 7386 10 M 25:09.2 8:07/M
393 Timothy Shrewsburg Brownstown MI 7102 32 M 25:09.8 8:07/M
394 Brandon Brown Ann Arbor MI 3389 35 M 25:10.2 8:07/M
395 Jim Lister Buchanan MI 6020 45 M 25:10.3 8:07/M
396 Shayna Smith Dearborn MI 8391 27 F 25:10.6 8:07/M
397 Bob PeThick Orchard Lake MI 8983 50 M 25:11.6 8:07/M
398 Mark Fiedler Port Huron MI 5323 39 M 25:12.4 8:08/M
399 Emily Rooney Kalamazoo MI 5025 22 F 25:12.6 8:08/M
400 Brian Fung Okemos MI 4121 26 M 25:13.0 8:08/M
 
Place Name City Bib No Age Gender Total Time Pace
401 Aaron Davis Williamston MI 3756 12 M 25:13.2 8:08/M
402 Kevin Kuprowski Windsor ON 4870 32 M 25:13.7 8:08/M
403 Barry Leshman Huntington Woods MI 8177 2 M 25:15.8 8:09/M
404 Peter Cohn Ann Arbor MI 3616 8 M 25:16.2 8:09/M
405 Michael Popma Wyoming MI 8304 32 M 25:17.0 8:09/M
406 Stefan Young Ann Arbor MI 8526 33 M 25:17.0 8:09/M
407 Danelle Preston South Lyon MI 6710 27 F 25:20.2 8:10/M
408 Spencer Peck Hixson TN 6604 13 M 25:20.7 8:10/M
409 Sandra Gruca Bingham Farms MI 8762 42 F 25:20.8 8:10/M
410 amy hill Clayton MI 5383 0 F 25:21.0 8:11/M
411 David Foster Ann Arbor MI 5330 43 M 25:21.3 8:11/M
412 Cynthia Sheng Ann Arbor MI 7088 42 F 25:21.5 8:11/M
413 Stephen Shelton Ypsilanti MI 5563 0 M 25:21.5 8:11/M
414 Samantha Elston Osseo MI 3925 24 F 25:21.9 8:11/M
415 zachary belsky 2553 24 M 25:22.5 8:11/M
416 alexis strousz 2552 22 F 25:22.5 8:11/M
417 ryan rodeman 2545 19 M 25:23.2 8:11/M
418 TJ Peck Hixson TN 6605 41 M 25:23.2 8:11/M
419 Eric Jiskra Whitmore Lake MI 8118 31 M 25:23.2 8:11/M
420 Judy Armbruster Grosse Pointe Woods MI 8553 45 F 25:24.0 8:12/M
421 Danica Pallett Martin MI 6567 12 F 25:24.0 8:12/M
422 Nick Roumel Ann Arbor MI 6916 55 M 25:24.7 8:12/M
423 Gregory Tasker Westland MI 5588 50 M 25:24.8 8:12/M
424 Jaden Stanley Holly MI 5579 12 F 25:25.1 8:12/M
425 Jordan Silvester Ann Arbor MI 7122 14 M 25:25.3 8:12/M
426 Zachary TeBeau Grand Haven MI 7379 19 M 25:25.5 8:12/M
427 Kathryn Dudley Szary Plymouth MI 3877 39 F 25:25.5 8:12/M
428 Josette Lundquist south lyon MI 8884 23 F 25:25.6 8:12/M
429 dean Bettendorf Muskegon MI 7880 38 M 25:25.7 8:12/M
430 Melissa Halabis Cass City MI 4308 38 F 25:25.9 8:12/M
431 Jack Kline Beulah MI 8833 56 M 25:26.2 8:12/M
432 Lauren Swartz Ann Arbor MI 7327 26 F 25:27.2 8:13/M
433 Judith Cothorn Cincinnati OH 3658 34 F 25:28.2 8:13/M
434 david lister ann arbor MI 8875 44 M 25:28.3 8:13/M
435 Faith Jones Dexter MI 4644 9 F 25:28.6 8:13/M
436 Matt Irelan Canton MI 8110 40 M 25:28.9 8:13/M
437 Tonya Sears Horton MI 7047 28 F 25:29.0 8:13/M
438 Nicholas Dennis Saginaw MI 3802 27 M 25:32.1 8:14/M
439 Greta Adornetto Plymouth MI 7839 26 F 25:33.1 8:15/M
440 Chad Brummet ann arbor MI 8606 36 M 25:33.2 8:15/M
441 Heather Bicknell Midland MI 8579 21 F 25:33.8 8:15/M
442 Denny Yu Ann Arbor MI 5632 25 M 25:34.3 8:15/M
443 Derek Onkka Redford MI 6531 29 M 25:34.4 8:15/M
444 Mary Kate Trost Ann Arbor MI 5599 30 F 25:34.8 8:15/M
445 Greg Moriartey Davison MI 8937 50 M 25:35.5 8:15/M
446 Sarah Taylor Hastings MI 7377 15 F 25:35.7 8:15/M
447 Garrison Gross 5753 25 M 25:35.9 8:15/M
448 Dave Benedict Brighton MI 7875 59 M 25:38.4 8:16/M
449 Charles Simon Plymouth MI 7129 53 M 25:38.5 8:16/M
450 Ryan Liken Ann Arbor MI 6001 27 M 25:38.8 8:16/M
451 Olivia Hernandez Oxford MI 8789 18 F 25:39.1 8:16/M
452 Josh Doyle Grass lake MI 3854 21 M 25:39.4 8:16/M
453 Steve Angle Allegan MI 3083 52 M 25:40.5 8:17/M
454 Kyle Burton Dexter MI 8614 13 M 25:41.5 8:17/M
455 Megan VanderMeer Ann Arbor MI 8461 24 F 25:42.3 8:17/M
456 chris cataldo w. bloomfield MI 3529 52 M 25:42.5 8:17/M
457 Kevin Blevins Farmington MI 3301 53 M 25:43.2 8:18/M
458 john sowash 5792 28 M 25:43.5 8:18/M
459 Dave Auwers Northville MI 8563 58 M 25:44.1 8:18/M
460 Steve Buscetta Ann Arbor MI 3440 31 M 25:44.4 8:18/M
461 Maria Milske Ann Arbor MI 8230 15 F 25:44.7 8:18/M
462 Kris Betzer Elwell MI 3277 51 F 25:45.0 8:18/M
463 Kevin Gilhool Wyandotte MI 4181 45 M 25:45.1 8:18/M
464 Kathleen George Westland MI 4168 12 F 25:45.4 8:18/M
465 Christine Carroll Ypsilanti MI 3510 38 F 25:46.0 8:19/M
466 Caroline George Westland WV 4167 12 F 25:46.4 8:19/M
467 steve hill ypsilanti MI 4465 43 M 25:46.8 8:19/M
468 Mark Popilek Clarkston MI 6685 47 M 25:47.0 8:19/M
469 Tom Sanford Saline MI 8346 60 M 25:47.3 8:19/M
470 John Bubnikovich Rochester Hills MI 3407 37 M 25:47.3 8:19/M
471 Carolyn Storch Milford OH 7304 15 F 25:47.3 8:19/M
472 Dan Lantis Fife Lake MI 4904 52 M 25:47.3 8:19/M
473 Brian Rolland Dearborn MI 6892 33 M 25:47.4 8:19/M
474 Joseph Zimmerman Rochester Hills MI 7821 0 M 25:47.6 8:19/M
475 stan kennard ann arbor MI 4741 52 M 25:47.7 8:19/M
476 Sean Huff Howell MI 4538 27 M 25:48.4 8:19/M
477 Fernando Tagle Ann Arbor MI 5107 31 M 25:48.8 8:19/M
478 Melody Pugh Ann Arbor MI 5002 32 F 25:48.9 8:19/M
479 Carter VanDerKolk Holland MI 7499 15 M 25:49.1 8:20/M
480 David Spitzley Appleton WI 1394 38 M 25:49.1 8:20/M
481 Christi Becker Chelsea MI 3222 51 F 25:49.2 8:20/M
482 Megan Wilson Ypsilanti MI 7710 31 F 25:49.8 8:20/M
483 Bill Ellsworth Pinckney MI 8703 58 M 25:50.0 8:20/M
484 SUSAN LEPRI NOVI MI 5429 34 F 25:50.2 8:20/M
485 Don Monroe Northville MI 8935 35 M 25:50.2 8:20/M
486 gene bettendorf muskegon MI 3274 41 M 25:50.2 8:20/M
487 robert paretti Ann Arbor MI 8280 45 M 25:50.2 8:20/M
488 Katie Spring Brighton MI 7257 24 F 25:50.3 8:20/M
489 JONATHAN CLARKE ANN ARBOR MI 3590 27 M 25:50.9 8:20/M
490 Bethany Skinner Ann Arbor MI 7152 0 F 25:51.0 8:20/M
491 Matt Durham Ann Arbor MI 5301 23 M 25:51.1 8:20/M
492 Aaron Robida Ypsilanti MI 6858 37 M 25:51.5 8:20/M
493 Clay Cprek Troy MI 3682 54 M 25:52.0 8:21/M
494 rose paretti Ann Arbor MI 8281 12 F 25:52.3 8:21/M
495 Jennifer Rothbarth Ann Arbor MI 6914 22 F 25:52.5 8:21/M
496 Nicole Derrick Royal Oak MI 3811 41 F 25:52.5 8:21/M
497 Babak Shahmehri Canton MI 7069 38 M 25:53.3 8:21/M
498 Cabe Tasker South Lyon MI 8426 14 M 25:53.5 8:21/M
499 Josh Johnson Ann Arbor MI 4617 24 M 25:53.7 8:21/M
500 Andrew Storch Milford OH 7303 48 M 25:54.1 8:21/M
 
Place Name City Bib No Age Gender Total Time Pace
501 John Lin Ann Arbor MI 6004 23 M 25:54.5 8:21/M
502 KATIE WEIR HANOVER MI 7632 32 F 25:54.5 8:21/M
503 Fabrice Laye Ann Arbor MI 4933 24 M 25:54.6 8:21/M
504 donny mifsud 5788 13 M 25:55.3 8:22/M
505 John Mione Berkley MI 6323 32 M 25:55.6 8:22/M
506 Elizabeth Hickey Ann Arbor MI 4446 21 F 25:57.6 8:22/M
507 Constance Lawson Holland MI 4928 49 F 25:57.7 8:22/M
508 Andrea Trese Ann Arbor MI 8453 22 F 25:57.7 8:22/M
509 Adam Schoem Ann Arbor MI 5052 0 M 25:57.9 8:22/M
510 Sheree Kearns Dexter MI 4710 47 F 25:58.1 8:23/M
511 Mirai Kobayashi Northville MI 4805 0 F 25:58.3 8:23/M
512 Michael Mayo Ypsilanti MI 6170 32 M 25:58.6 8:23/M
513 Jonathan Taccolini Ypsilanti MI 5106 17 M 25:58.7 8:23/M
514 Gabriel Johnson Frankfort MI 4614 12 M 25:58.8 8:23/M
515 Mandi Tsoi Ann Arbor MI 7457 25 F 25:58.9 8:23/M
516 Tom Crawford Ann Arbor MI 3695 47 M 25:59.4 8:23/M
517 Daniel Taccolini Ypsilanti MI 5105 15 M 25:59.4 8:23/M
518 Mark Simlar Clinton Twp. MI 7125 45 M 26:00.0 8:23/M
519 Bryan Stewart Allen Park MI 7295 38 M 26:00.9 8:23/M
520 Dhananjay Anand Ann Arbor MI 7846 30 M 26:02.0 8:24/M
521 Seth Johnson Frankfort MI 4624 9 M 26:02.2 8:24/M
522 JOE ZUCHOWSKI TOLEDO OH 7828 47 M 26:02.4 8:24/M
523 Deena Beaudet Mattawan MI 5667 48 F 26:02.5 8:24/M
524 Wayne Chubb South Lyon MI 7935 35 M 26:02.6 8:24/M
525 Thomas Meyer Frankenmuth MI 8222 42 M 26:02.6 8:24/M
526 Andrew Johnson Frankfort MI 4607 39 M 26:03.6 8:24/M
527 Reed Simlar Clinton Twp. MI 7127 12 M 26:03.8 8:24/M
528 Nicholas Koh Canton MI 4813 10 M 26:04.1 8:25/M
529 Michelle Hehr Manchester MI 4401 24 F 26:04.6 8:25/M
530 Thomas Domlovil Farmington Hills MI 8689 28 M 26:04.9 8:25/M
531 Mark Marczewski Dearborn Heights MI 6117 33 M 26:05.0 8:25/M
532 Lisa Bergkoetter Milford MI 3262 31 F 26:05.3 8:25/M
533 Paige Kolesar Ann Arbor MI 4818 21 F 26:06.0 8:25/M
534 Ashli Betzer Elwell MI 3275 17 F 26:07.7 8:25/M
535 Todd Willford Dexter MI 8501 33 M 26:07.8 8:25/M
536 Vasu Divi Ann Arbor MI 8683 34 M 26:08.1 8:26/M
537 Dan Clark Pinckney MI 8636 49 M 26:08.1 8:26/M
538 David Novara Ypsilanti MI 6488 37 M 26:08.8 8:26/M
539 Darrick Swoish Rochester Hills MI 8423 29 M 26:09.2 8:26/M
540 Sarah White Ann Arbor MI 5147 31 F 26:09.4 8:26/M
541 Aidan Brown Ann Arbor MI 5244 13 M 26:09.5 8:26/M
542 Ethan Friedrichsen Saline MI 4103 11 M 26:11.4 8:27/M
543 Carrie Baker Ann Arbor MI 3152 26 F 26:11.5 8:27/M
544 Von Heath Dexter MI 8080 15 M 26:12.1 8:27/M
545 James Benaglio Livonia MI 3244 57 M 26:12.5 8:27/M
546 Mark McCann Jr. Rockford MI 8901 15 M 26:12.6 8:27/M
547 James Hanke Ypsilanti MI 4335 37 M 26:13.0 8:27/M
548 Randal VanDyke Oregon OH 7506 52 M 26:13.1 8:27/M
549 Deidre Roesch Adrian MI 6881 19 F 26:14.8 8:28/M
550 Robert Lemcke Macomb Township MI 4959 54 M 26:15.8 8:28/M
551 Rachel Motycka Portage MI 6382 24 F 26:16.2 8:28/M
552 Sarah Baldwin Livonia MI 3158 26 F 26:16.3 8:28/M
553 lauren wells ypsilanti MI 7641 35 F 26:16.7 8:28/M
554 joshua Bush Ann arbor MI 7916 17 M 26:16.8 8:28/M
555 David Motycka Portage MI 6381 28 M 26:16.9 8:28/M
556 Amber Stanley Holly MI 5578 41 F 26:17.3 8:29/M
557 Kari Wladischkin Howell MI 7735 20 F 26:17.6 8:29/M
558 Stephanie Graves Ann Arbor MI 4233 22 F 26:20.4 8:30/M
559 David Tigges Ann Arbor MI 7426 21 M 26:20.5 8:30/M
560 Rhiannon Young Orchard Lake MI 8525 12 F 26:21.1 8:30/M
561 Melissa Horn Freeland MI 4517 33 F 26:21.2 8:30/M
562 Jacob Clark Gibraltar MI 3584 20 M 26:21.2 8:30/M
563 Angelo Marasco Grand Haven MI 6108 53 M 26:21.3 8:30/M
564 Zachary Clark 5819 17 M 26:21.6 8:30/M
565 Julie Liotta Ann Arbor MI 5432 31 F 26:22.1 8:30/M
566 Rob VanWert Beverly Hills MI 7513 29 M 26:22.4 8:30/M
567 tim meyer Frankenmuth MI 6272 48 M 26:22.7 8:30/M
568 Dustyn Truitt Farmington MI 7452 23 M 26:22.7 8:30/M
569 Nathan Matheny Ann Arbor MI 6155 21 M 26:22.8 8:30/M
570 Jessica Webb Ann Arbor MI 7616 27 F 26:23.8 8:31/M
571 Noah Barr Ypsilanti MI 3188 11 M 26:23.8 8:31/M
572 Craig Fisher Howell MI 4026 48 M 26:24.6 8:31/M
573 James Moss Waterford MI 6380 26 M 26:24.8 8:31/M
574 paul iamarino South Lyon MI 5399 41 M 26:24.8 8:31/M
575 Michael Sturtz Belleville MI 8415 42 M 26:25.7 8:31/M
576 Liz Messana Ann Arbor MI 6264 23 F 26:25.7 8:31/M
577 Idlir Talipi Sterling Heights MI 5587 25 M 26:26.1 8:32/M
578 Damian Chatman Ann Arbor MI 3553 23 M 26:26.2 8:32/M
579 Maria Bastida Ann Arbor MI 7865 37 F 26:26.4 8:32/M
580 Myles Wohl Clarkston MI 8513 36 M 26:26.5 8:32/M
581 Charlotte Steglitz Ann Arbor MI 7277 8 F 26:26.8 8:32/M
582 rich mccreight 5863 24 M 26:27.1 8:32/M
583 Kelsey Byrne Ewen MI 3462 20 F 26:27.7 8:32/M
584 James Bicknell Midland MI 8580 55 M 26:28.0 8:32/M
585 Hien Lam Ann Arbor MI 4892 27 M 26:29.0 8:33/M
586 Robert Nichols Macomb MI 6470 32 M 26:29.6 8:33/M
587 Jennifer Nichols macomb MI 6468 0 F 26:29.8 8:33/M
588 Cary Lieffers Milan MI 4999 31 F 26:30.0 8:33/M
589 Michelle Lin Ann Arbor MI 6005 26 F 26:30.2 8:33/M
590 Rachel Bryant Portage MI 5247 35 F 26:30.2 8:33/M
591 Matt Sowash Lansing MI 7234 25 M 26:30.4 8:33/M
592 Jessica Joly Temperance MI 4641 27 F 26:30.5 8:33/M
593 Benjamin Swayze Milan MI 5104 32 M 26:30.7 8:33/M
594 Mark Beasley Westland MI 3219 41 M 26:31.2 8:33/M
595 Lori Heinlein Ann Arbor MI 4404 43 F 26:31.8 8:33/M
596 Matthew Lipshaw Ann Arbor MI 6017 24 M 26:32.4 8:34/M
597 Ryan Stork Ann Arbor MI 5584 27 M 26:32.5 8:34/M
598 Jennifer Szymanski Troy MI 7343 26 F 26:33.7 8:34/M
599 Noam Schafer Ann Arbor MI 5553 27 M 26:33.8 8:34/M
600 Simon Whitelocke Ann Arbor MI 5152 39 M 26:34.3 8:34/M
 
Place Name City Bib No Age Gender Total Time Pace
601 David Sager Ann Arbor MI 6957 49 M 26:34.4 8:34/M
602 adam curtis 2561 31 M 26:35.3 8:35/M
603 Jaron Iannelli Chelsea MI 4550 10 M 26:35.6 8:35/M
604 Keith Mayer Dundee MI 5449 31 M 26:35.8 8:35/M
605 Rick Ferris Bloomingdale MI 3999 47 M 26:35.8 8:35/M
606 kristin roodbeen rochester MI 6894 47 F 26:36.0 8:35/M
607 Jason Lund Linden MI 6057 39 M 26:37.4 8:35/M
608 Kevin Keeton Ann Arbor MI 4719 0 M 26:37.8 8:35/M
609 Sean Mulligan Brighton MI 6399 42 M 26:38.2 8:35/M
610 Torrance Norwood Troy MI 8254 40 M 26:38.5 8:35/M
611 Jacob Gruesbeck Ann Arbor MI 8053 28 M 26:39.1 8:36/M
612 Greg Modd Dearborn MI 1028 28 M 26:39.8 8:36/M
613 Jack Gundry Fenton MI 8766 9 M 26:40.3 8:36/M
614 sam talsma 5748 52 M 26:41.1 8:36/M
615 Julie Cprek Troy MI 3683 23 F 26:41.2 8:36/M
616 Tejash Patel Ann Arbor MI 6585 21 M 26:42.7 8:37/M
617 David Perhne Ann Arbor MI 6618 40 M 26:42.7 8:37/M
618 Kristen M. Brown East Woodstock CT 3394 44 F 26:42.8 8:37/M
619 Jennifer Baer Ann Arbor MI 51 32 F 26:43.1 8:37/M
620 Madeleine Esson Ann Arbor MI 3951 21 F 26:43.6 8:37/M
621 bryan walenta 5796 22 M 26:44.3 8:37/M
622 Don Yeatts Ann Arbor MI 8522 61 M 26:44.3 8:37/M
623 Norm Watkins 7601 47 M 26:44.7 8:37/M
624 Carrie Williams Ann Arbor MI 7697 29 F 26:45.1 8:38/M
625 Chris Knight Saline MI 5415 45 F 26:45.7 8:38/M
626 Meghan Mace Macomb MI 6071 26 F 26:45.7 8:38/M
627 Amy Rodeman Westland MI 6872 21 F 26:46.2 8:38/M
628 Dale Hough ann arbor MI 8099 51 M 26:46.6 8:38/M
629 Kellen Mace Macomb MI 6070 26 M 26:46.9 8:38/M
630 Scott Gordon Richmond MI 4214 40 M 26:46.9 8:38/M
631 Michael Kelmenson Ann Arbor MI 4733 24 M 26:47.5 8:38/M
632 Judith Milanowski Eveler Ann Arbor MI 6293 34 F 26:48.2 8:39/M
633 Matthew Grevenstuk Ann Arbor MI 4245 25 M 26:48.3 8:39/M
634 Paris Schofield 5739 16 F 26:48.6 8:39/M
635 Kara Swayze Milan MI 7328 33 F 26:48.7 8:39/M
636 Chelsea Cummings Northville MI 8659 25 F 26:49.1 8:39/M
637 Scott Foreman Lansing MI 4071 51 M 26:49.9 8:39/M
638 John Terech Milan MI 7387 44 M 26:49.9 8:39/M
639 Amanda Michael Reading MI 6274 21 F 26:50.3 8:39/M
640 Alexander Yang Ann Arbor MI 8521 19 M 26:50.6 8:39/M
641 Michael Delgado Canton MI 3793 28 M 26:51.5 8:40/M
642 Tina Fields Ann Arbor MI 4006 39 F 26:51.6 8:40/M
643 Kelli Randall Grass Lake MI 6753 28 F 26:51.6 8:40/M
644 Paul Baston St. Clair Shores MI 8568 29 M 26:51.6 8:40/M
645 Brian Smith Canton MI 7175 36 M 26:52.5 8:40/M
646 Jason Wang Ann Arbor MI 8475 25 M 26:52.6 8:40/M
647 mike thomas temperance MI 7405 36 M 26:53.0 8:40/M
648 Larry Hagerty Ann Arbor MI 8055 58 M 26:53.1 8:40/M
649 Michael Kramer Brighton MI 8846 8 M 26:53.8 8:40/M
650 Jeri Schneider Ann Arbor MI 5556 44 F 26:53.8 8:40/M
651 Scott Mooney Ann Arbor MI 6356 22 M 26:54.0 8:41/M
652 Paul Wascher Ann Arbor MI 7596 23 M 26:54.1 8:41/M
653 Samuel Oliver Ann Arbor MI 6520 19 M 26:54.1 8:41/M
654 Brian Zerfas Dorr MI 7811 26 M 26:54.2 8:41/M
655 Lucy Scott Ann Arbor MI 7039 10 F 26:54.2 8:41/M
656 Marianne Fish Macomb MI 4025 57 F 26:54.2 8:41/M
657 Peter Smith Royal Oak MI 7195 33 M 26:54.6 8:41/M
658 Neel Hajra Ann Arbor MI 4307 39 M 26:55.1 8:41/M
659 Jason Doyle Canton MI 7988 31 M 26:55.5 8:41/M
660 Craig Smith Livonia MI 7180 63 M 26:55.5 8:41/M
661 Matt Gillis Farwell MI 4185 36 M 26:55.6 8:41/M
662 Rebecca Kaplan Ann Arbor MI 736 21 F 26:55.9 8:41/M
663 Thomas Brantmeyer Ann Arbor MI 3361 10 M 26:56.0 8:41/M
664 Debbie Cornelius Pinckney MI 5273 51 F 26:56.3 8:41/M
665 Stephanie Casey Ann Arbor MI 3523 37 F 26:56.3 8:41/M
666 Katie Dolven Clarkston MI 3836 17 F 26:56.5 8:41/M
667 Julie Friedrichsen Saline MI 4104 40 F 26:56.6 8:41/M
668 Vaughn Hurst Sterling Heights MI 4544 37 M 26:56.8 8:41/M
669 Adam Heberling Ann Arbor MI 4396 26 M 26:56.9 8:41/M
670 Randy Ruff Pinckney MI 5033 56 M 26:57.1 8:42/M
671 Michael Heberling Grand Blanc MI 4397 60 M 26:57.3 8:42/M
672 Laura Kooistra Grand Haven MI 4822 18 F 26:57.3 8:42/M
673 Ryan Seidell Davison MI 7056 39 M 26:57.6 8:42/M
674 Matt Voss Grand Blanc MI 7543 36 M 26:57.7 8:42/M
675 Kelsey Fortier Spring Lake MI 4072 19 F 26:58.1 8:42/M
676 Claudia Lopez Pinckney MI 8181 35 F 26:59.0 8:42/M
677 Dave Weberlein Saline MI 7621 26 M 27:00.4 8:43/M
678 Harrison Stephens fowlerville MI 8409 10 M 27:01.0 8:43/M
679 Steven Temelko Jackson MI 5589 35 M 27:01.4 8:43/M
680 John Gochis Ann Arbor MI 8750 63 M 27:01.7 8:43/M
681 Greg Macklem Elkhart IN 6076 40 M 27:01.7 8:43/M
682 Isabelle Crumm Ann Arbor MI 3707 11 F 27:01.9 8:43/M
683 Jenny Ung Ann Arbor MI 7481 25 F 27:02.6 8:43/M
684 Adam Linzner Unionville MI 6014 32 M 27:02.8 8:43/M
685 William Walton Ypsilanti MI 7579 28 M 27:02.9 8:43/M
686 Christian Eiler Williamston MI 3912 36 M 27:02.9 8:43/M
687 Karl Brown Tecumseh MI 5245 53 M 27:02.9 8:43/M
688 Laurel Skinner Ann Arbor MI 7153 29 F 27:03.7 8:44/M
689 Madalyn Hochendoner Ann Arbor MI 4479 0 F 27:04.7 8:44/M
690 Lauren Meeks West Bloomfield MI 8917 19 F 27:04.7 8:44/M
691 Megan Levad Ann Arbor MI 8178 34 F 27:04.9 8:44/M
692 Amanda Buscetta Ann Arbor MI 3439 31 F 27:05.8 8:44/M
693 Tyler Sladick Fowlerville MI 7160 11 M 27:05.8 8:44/M
694 Rachel Layton Spring Lake MI 4934 24 F 27:06.0 8:45/M
695 Tony Biggs Ann Arbor MI 3281 15 M 27:06.0 8:45/M
696 Paul Vuocolo Ypsilanti MI 7545 35 M 27:06.6 8:45/M
697 Rebecca Rae Ypsilanti MI 5526 33 F 27:06.8 8:45/M
698 Benjamin Cox Spring Lake MI 3673 32 M 27:07.4 8:45/M
699 Nicole Gerbens Ann Arbor MI 4172 29 F 27:07.7 8:45/M
700 Trevor Dotson Ypsilanti MI 3846 28 M 27:08.6 8:45/M
 
Place Name City Bib No Age Gender Total Time Pace
701 Gregg Overfield Canton MI 8272 35 M 27:08.7 8:45/M
702 Brenna Barton Ann Arbor MI 5205 0 F 27:09.2 8:45/M
703 Eric Gerbens Ann Arbor MI 4171 30 M 27:09.7 8:45/M
704 Katie Yeatts Ann Arbor MI 8523 16 F 27:10.0 8:46/M
705 Emily Fredericks Ann Arbor MI 5336 36 F 27:10.4 8:46/M
706 Jake Higgins Ann Arbor MI 4457 31 M 27:11.0 8:46/M
707 Ron wetherell adrian MI 7652 43 M 27:11.3 8:46/M
708 David Dalton Ann Arbor MI 8660 48 M 27:11.3 8:46/M
709 Amy Maisano Manchester MI 6083 24 F 27:11.7 8:46/M
710 Bryan Watson New Hudson MI 7602 31 M 27:12.0 8:46/M
711 Darin Kerr Dearborn MI 4747 38 M 27:12.4 8:46/M
712 Kellee Bauer Waterford MI 3207 34 F 27:12.4 8:46/M
713 Priscilla Vega-Diaz Ypsilanti MI 8467 22 F 27:12.6 8:46/M
714 Chiaki Matsuo Ann Arbor MI 6158 49 M 27:12.9 8:46/M
715 Joshua Ward Novi MI 8476 16 M 27:13.4 8:47/M
716 Dasha Gilmore Saline MI 5349 15 F 27:13.4 8:47/M
717 Kent Walton Ypsilanti MI 7576 28 M 27:13.5 8:47/M
718 james behm 5674 27 M 27:13.6 8:47/M
719 Madeline Goodson Ann Arbor MI 5351 14 F 27:14.0 8:47/M
720 Michael Kazeks Kalamazoo MI 4705 44 M 27:14.2 8:47/M
721 Allison Simmons Hillsdale MI 7128 20 F 27:14.5 8:47/M
722 Jeri Kazeks Kalamazoo MI 4704 45 F 27:15.0 8:47/M
723 Paul Behm Ann Arbor MI 8569 44 M 27:15.1 8:47/M
724 Sharon Kileny Ann Arbor MI 8144 39 F 27:16.4 8:48/M
725 Meredith Reid 5758 18 F 27:16.6 8:48/M
726 Andrew Cluley Ypsilanti MI 3607 38 M 27:16.7 8:48/M
727 Margaret Modetz South Lyon MI 8238 0 F 27:17.0 8:48/M
728 Susan Tasker South Lyon MI 8427 41 F 27:17.6 8:48/M
729 Jeff Pendrick Woodhaven MI 6611 50 M 27:18.5 8:48/M
730 patricia mcnally 5700 43 F 27:18.8 8:48/M
731 Evan Hlavaty Howell MI 4471 19 M 27:19.0 8:49/M
732 Mark Koepf Ypsilanti MI 8836 22 M 27:19.0 8:49/M
733 Emily Fabry Dewitt MI 3966 31 F 27:19.7 8:49/M
734 Jon Makarewich Saline MI 6088 38 M 27:19.9 8:49/M
735 william wright Midland MI 5626 26 M 27:20.1 8:49/M
736 Carl Modetz Northville MI 8237 0 M 27:20.1 8:49/M
737 Caitlin Millis South Lyon MI 6314 17 F 27:20.4 8:49/M
738 Jim Good Canton MI 525 57 M 27:20.6 8:49/M
739 Matthew Fabry Dewitt MI 3967 32 M 27:20.7 8:49/M
740 Douglas PARTON Canton MI 8282 0 M 27:20.9 8:49/M
741 Nassim Samad Ann Arbor MI 5038 24 M 27:21.3 8:49/M
742 Lily Wu Canton MI 1622 33 F 27:21.6 8:49/M
743 Alison Makarewich Saline MI 6087 36 F 27:21.7 8:49/M
744 Sara Friedmann farmington MI 8024 38 F 27:22.5 8:50/M
745 David Leland Ann Arbor MI 4958 28 M 27:22.5 8:50/M
746 Bill Telgen Canton MI 7381 46 M 27:22.7 8:50/M
747 jake cunningham 5857 33 M 27:22.8 8:50/M
748 Sarah DeFlon Ann Arbor MI 3786 38 F 27:23.7 8:50/M
749 Jim Thibodeau Pinckney MI 8434 42 M 27:23.7 8:50/M
750 Edward Medina Sterling Heights MI 8214 34 M 27:24.0 8:50/M
751 Lesley Carson Adrian MI 3516 44 F 27:24.0 8:50/M
752 Lindsay Donaldson Waterford MI 7985 23 F 27:24.4 8:50/M
753 Xander Mylan Kimball MI 6421 8 M 27:24.7 8:50/M
754 Abubaker Mohammad Ann Arbor MI 8239 24 M 27:24.8 8:50/M
755 Alan Smola Ann Arbor MI 7206 22 M 27:25.3 8:51/M
756 Max Sa Leitao Jackson MI 5551 42 M 27:25.4 8:51/M
757 Angela Schmorrow Ann Arbor MI 5555 36 F 27:25.7 8:51/M
758 Jennifer Kramer Brighton MI 8845 37 F 27:26.4 8:51/M
759 Mariah Cornelius Pinckney MI 5274 11 F 27:27.0 8:51/M
760 Robert Jacquemain Harrison Twp MI 4577 41 M 27:27.2 8:51/M
761 Lauren Johnson Ypsilanti MI 4620 28 F 27:27.4 8:51/M
762 Amy Pascoe Rochester Hills MI 6579 35 F 27:27.8 8:51/M
763 ADAM MACK ROCHESTER MI 6073 32 M 27:28.1 8:52/M
764 Anne Berlucchi Ann Arbor MI 8577 28 F 27:28.2 8:52/M
765 Michael Flynn Ypsilanti MI 4050 33 M 27:28.6 8:52/M
766 Timothy Soper Holland MI 7223 47 M 27:28.8 8:52/M
767 Emily Rossman Canton MI 6912 20 F 27:29.1 8:52/M
768 Nicole Ahrens Manchester MI 3028 38 F 27:29.3 8:52/M
769 Amanda Flynn Ypsilanti MI 4048 34 F 27:29.4 8:52/M
770 Kwaku Koram 5703 0 M 27:29.6 8:52/M
771 Nicholas Hamilton Saginaw MI 4325 32 M 27:29.9 8:52/M
772 Sydnie Ahrens Manchester MI 8540 15 F 27:30.7 8:52/M
773 Joe Mitchell Ann Arbor MI 6332 34 M 27:31.2 8:53/M
774 Corey Johnston Whitmore Lake MI 4638 31 M 27:31.3 8:53/M
775 Abin Abraham Ann Arbor MI 3003 21 M 27:31.4 8:53/M
776 Steven Dehnbostel White Lake MI 3787 48 M 27:31.7 8:53/M
777 Emily Errer Ann Arbor MI 3947 26 F 27:32.5 8:53/M
778 Doug Agnew Ann Arbor MI 3026 51 M 27:32.7 8:53/M
779 Marijke Kremin Ann Arbor MI 4838 21 F 27:32.8 8:53/M
780 Casie Ammerman Ann Arbor MI 5192 17 F 27:32.9 8:53/M
781 tyler brady 2504 13 M 27:33.2 8:53/M
782 aditya aladangady ann arbor MI 3039 26 M 27:34.3 8:54/M
783 Deanna Payne Clinton MI 6595 23 F 27:34.8 8:54/M
784 Ryan Liebert Milan MI 4998 11 M 27:35.4 8:54/M
785 Sukhee Ramawickrama Ann Arbor MI 6752 21 F 27:35.5 8:54/M
786 Laurita Humphrey 5811 28 F 27:35.9 8:54/M
787 Kari Grigowski East Lansing MI 4252 18 F 27:36.3 8:54/M
788 Cyndi Flower Grosse Pointe Woods MI 4047 42 F 27:36.6 8:54/M
789 Ariana Bostian-Kentes Ann Arbor MI 7896 28 F 27:37.4 8:55/M
790 abrianna dematteo 2555 12 F 27:38.0 8:55/M
791 Michael Rossman Canton MI 6913 48 M 27:38.2 8:55/M
792 Virginia Graves Chicago IL 8050 26 F 27:38.2 8:55/M
793 Jordan Joly Temperance MI 4642 23 F 27:38.4 8:55/M
794 Katy Fritts Ann Arbor MI 4110 32 F 27:38.9 8:55/M
795 Megan Beare Rochester MI 3218 29 F 27:39.1 8:55/M
796 Amy McMordie Adrian MI 6230 37 F 27:39.3 8:55/M
797 Collin Bennett Paw Paw MI 3253 13 M 27:39.3 8:55/M
798 Wanda Drogowski Adrian MI 3864 37 F 27:39.7 8:55/M
799 Larra King Ann Arbor MI 4778 31 F 27:41.3 8:56/M
800 Tom Grigowski Ann Arbor MI 4253 21 M 27:41.3 8:56/M
 
Place Name City Bib No Age Gender Total Time Pace
801 Charlie Brown Ann Arbor MI 3390 62 M 27:41.4 8:56/M
802 John Davis Ypsilanti MI 3765 37 M 27:41.5 8:56/M
803 Mitch Hart Grand Blanc MI 4368 43 M 27:41.8 8:56/M
804 Craig Walker Canton MI 7562 29 M 27:41.8 8:56/M
805 Judith Eichin Plymouth MI 7999 30 F 27:42.0 8:56/M
806 Cheryl Santure Brooklyn MI 5552 49 F 27:42.4 8:56/M
807 Christine Marczewski Dearborn Heights MI 6116 34 F 27:42.5 8:56/M
808 Rose Patient Novi MI 6589 45 F 27:43.1 8:56/M
809 Kim Fuller 5923 39 F 27:43.2 8:56/M
810 Jennifer Brown Farmington Hills MI 3391 19 F 27:43.3 8:56/M
811 Tom Jambriska Lake Orion MI 4584 28 M 27:43.7 8:56/M
812 Aikia Lahti Ann Arbor MI 4887 38 F 27:44.3 8:57/M
813 Sarah Barton Novi, mi MI 3196 21 F 27:44.3 8:57/M
814 bill hephner rockford MI 4416 34 M 27:44.5 8:57/M
815 Christopher Hammer Livonia MI 4327 0 M 27:45.6 8:57/M
816 Lauren Austin 2211 12 F 27:45.9 8:57/M
817 Russ Johnson Canton MI 4623 49 M 27:45.9 8:57/M
818 Laurinda Weisse Ann Arbor MI 7637 24 F 27:46.1 8:57/M
819 Dana Purvey Dearborn MI 6728 0 F 27:46.2 8:57/M
820 Kelly Chick Ann arbor MI 7933 0 F 27:46.5 8:57/M
821 harrison kennard ann arbor MI 4739 27 M 27:46.9 8:57/M
822 Stephen Gillman Ann Arbor MI 4186 48 M 27:47.0 8:58/M
823 Michael Freeman Ypsilanti MI 4095 56 M 27:47.2 8:58/M
824 Melanie Schmitt Ann Arbor MI 7016 25 F 27:47.5 8:58/M
825 Fernando Carreon Ann Arbor MI 5258 36 M 27:47.9 8:58/M
826 Todd Richards Brighton MI 1218 39 M 27:48.5 8:58/M
827 Ronald Cade Shelbyville MI 3466 0 M 27:48.9 8:58/M
828 Brian Semple Dexter MI 7062 31 M 27:49.1 8:58/M
829 brian molag kentwood MI 6339 40 M 27:49.2 8:58/M
830 Tim Wise Dimondale MI 7731 52 M 27:49.9 8:58/M
831 dax wade dexter MI 7546 33 M 27:50.2 8:59/M
832 Mary Jane Pierce Allen Park MI 6652 44 F 27:50.3 8:59/M
833 Jordan Young Byron MI 5175 19 M 27:50.4 8:59/M
834 Kevin Taylor Belleville MI 8431 26 M 27:50.5 8:59/M
835 Kayla Taylor Belleville MI 8430 24 F 27:50.9 8:59/M
836 Tracie Richards Brighton MI 1219 39 F 27:50.9 8:59/M
837 Ellen Pianowski Canton MI 6649 36 F 27:51.9 8:59/M
838 Haley DelVecchio Clarkston MI 3795 16 F 27:52.5 8:59/M
839 Michelle Semple Dexter MI 7063 30 F 27:53.1 9:00/M
840 Ayrin Paige Trenton MI 5503 22 F 27:53.2 9:00/M
841 Nancy Lewis Macomb MI 4990 0 F 27:54.0 9:00/M
842 Leanne Vassallo Canton MI 8466 33 F 27:54.1 9:00/M
843 Helen Hong Ann Arbor MI 4506 26 F 27:54.6 9:00/M
844 Jenette Kuo Walled Lake MI 4867 19 F 27:55.0 9:00/M
845 Chase Hyatt Ann Arbor MI 5396 13 M 27:55.0 9:00/M
846 deaunna dresch 5791 36 F 27:55.5 9:00/M
847 Tatiana Botero Ann Arbor MI 3329 46 F 27:55.9 9:00/M
848 Kevin Hartgerink Ann Arbor MI 8073 36 M 27:56.3 9:01/M
849 Carolyn Trese Farmington Hills MI 5118 51 F 27:56.4 9:01/M
850 Dave Petoskey Highland MI 8293 41 M 27:56.6 9:01/M
851 Hannah Warner Paw Paw MI 7588 13 F 27:56.6 9:01/M
852 John Arenz Ann Arbor MI 3098 29 M 27:56.8 9:01/M
853 Ted Erickson Ann Arbor MI 3944 42 M 27:57.5 9:01/M
854 Elizabeth Homan Ann Arbor MI 4504 27 F 27:57.6 9:01/M
855 Amy Gottfried Ann Arbor MI 4223 36 F 27:57.6 9:01/M
856 Brian Kime Lisle IL 4769 26 M 27:57.8 9:01/M
857 Kelly Goris Ypsilanti MI 5352 26 F 27:58.6 9:01/M
858 Kirk Bellia Royal Oak MI 3236 35 M 27:58.9 9:01/M
859 Bob Majewski Clinton Township MI 6084 34 M 27:58.9 9:01/M
860 Larry Brackmann Brighton MI 3347 48 M 27:59.4 9:02/M
861 Nick Foy Plymouth MI 8725 0 M 27:59.7 9:02/M
862 John Popma Brighton MI 8303 37 M 27:59.9 9:02/M
863 Timothy Happ Brighton MI 4346 0 M 28:00.7 9:02/M
864 Katie Tomasaitis Livonia MI 7439 28 F 28:01.1 9:02/M
865 Phil McLees Canton MI 6224 30 M 28:01.4 9:02/M
866 John Tomasaitis Livonia MI 7438 28 M 28:01.5 9:02/M
867 Susan Happ Brighton MI 4345 55 F 28:02.7 9:03/M
868 Carmen Erickson Redford MI 8706 0 F 28:03.1 9:03/M
869 Duane Breijak Ann Arbor MI 3365 28 M 28:03.9 9:03/M
870 Andrew Sladick Detroit MI 7157 31 M 28:04.1 9:03/M
871 Patrick Heath Dexter MI 8078 41 M 28:04.5 9:03/M
872 Laura Eberhardt Ann Arbor MI 7997 22 F 28:04.6 9:03/M
873 Oliver Scheele Ann Arbor MI 8353 33 M 28:04.7 9:03/M
874 Michael Spitulnik Ann Arbor MI 7246 23 M 28:05.1 9:04/M
875 Lisa Tewel Brighton MI 7397 48 F 28:05.2 9:04/M
876 Caitlin Vuocolo Ypsilanti MI 7544 33 F 28:06.0 9:04/M
877 Kat Kurtenbach Ann Arbor MI 4873 30 F 28:06.7 9:04/M
878 Chelsea Harrison Bloomingdale MI 4367 15 F 28:07.1 9:04/M
879 jennifer kerr taylor MI 8824 27 F 28:07.7 9:04/M
880 Lynn Simlar Clinton Twp. MI 7124 45 F 28:08.1 9:05/M
881 Hollie Fisher Pleasant ridge MI 4027 34 F 28:08.7 9:05/M
882 Paul Merica Ann Arbor MI 6251 51 M 28:10.1 9:05/M
883 Carrie Ike Grand Blanc MI 8108 0 F 28:10.7 9:05/M
884 Tyler Douglas Grand Blanc MI 3849 14 M 28:10.8 9:05/M
885 Revillo Stevens Petersburg MI 7291 22 M 28:11.1 9:05/M
886 David Wolfe Milford MI 7741 51 M 28:12.0 9:06/M
887 Cameron Koss South Lyon MI 8841 0 M 28:12.2 9:06/M
888 Xiaoya Ma Ann Arbor MI 6065 24 F 28:12.3 9:06/M
889 Jacob Teeple Grand Blanc MI 7380 8 M 28:12.5 9:06/M
890 Daniel Cox Ann Arbor MI 283 23 M 28:12.6 9:06/M
891 Sara Harris Highland MI 5375 25 F 28:12.8 9:06/M
892 Susan Fisher Howell MI 4029 41 F 28:13.2 9:06/M
893 Brad Bergeron Belle River ON 96 34 M 28:13.6 9:06/M
894 Tamara Figueiredo Northville MI 4009 26 F 28:13.9 9:06/M
895 Patrick Brechting Brighton MI 7902 26 M 28:14.1 9:06/M
896 Sharon Ortisi Pittsfield Township MI 6537 42 F 28:14.7 9:06/M
897 Brian Larsen Ann Arbor MI 8860 25 M 28:14.8 9:06/M
898 Jessica Sigworth Brighton MI 7119 29 F 28:15.6 9:07/M
899 Leslie Buikema Royal Oak MI 5249 24 F 28:16.3 9:07/M
900 james martin bay city MI 6136 53 M 28:16.4 9:07/M
 
Place Name City Bib No Age Gender Total Time Pace
901 francisco roque Ann Arbor MI 5546 36 M 28:16.4 9:07/M
902 Chelsea Kwiatkowski Carleton MI 4874 26 F 28:17.6 9:07/M
903 Julian Downey ann arbor MI 3851 8 M 28:17.6 9:07/M
904 Joel Blank Ann Arbor MI 3298 20 M 28:17.6 9:07/M
905 Steven Risko Ann Arbor MI 6836 21 M 28:17.7 9:07/M
906 Ronald Martin Downers Grove IL 6140 51 M 28:17.8 9:07/M
907 Brandon Cook Redford MI 7947 26 M 28:17.8 9:07/M
908 Amy Robke Dexter MI 1238 33 F 28:17.8 9:07/M
909 Juliet Rogers ann arbor MI 6884 40 F 28:18.0 9:08/M
910 Kyle Polack Ann Arbor MI 6673 24 M 28:18.4 9:08/M
911 Casey Lewis Ann Arbor MI 4985 9 M 28:18.5 9:08/M
912 Stuart Demas Ann Arbor MI 3796 10 M 28:19.2 9:08/M
913 ANITA ESTEPP WAYNE MI 3953 41 F 28:19.8 9:08/M
914 Jordan Walk Ann Arbor MI 7558 27 M 28:20.2 9:08/M
915 Zane Jones Ann Arbor MI 4651 11 M 28:20.5 9:08/M
916 Juan Gomez Ann Arbor MI 8756 30 M 28:20.6 9:08/M
917 Robert Calvachi Chelsea MI 3475 48 M 28:20.6 9:08/M
918 Hidehiko Takabayashi Ann Arbor MI 7351 35 M 28:20.7 9:08/M
919 Leonard Barr Ypsilanti MI 3186 41 M 28:21.0 9:09/M
920 Christen Powers Sterling Heights MI 6699 39 F 28:21.3 9:09/M
921 Susan Kleinhans Midland MI 8830 52 F 28:21.6 9:09/M
922 Gabrielle Witt Arlington VA 7733 25 F 28:21.7 9:09/M
923 Lisa Rowley Pinckney MI 6922 51 F 28:22.4 9:09/M
924 Shane Kirk Ypsilanti MI 781 25 M 28:22.5 9:09/M
925 Jessica Popma Wyoming MI 8302 29 F 28:22.5 9:09/M
926 Emily Desmet Ann Arbor MI 3818 25 F 28:22.7 9:09/M
927 Allison Boone Ann Arbor MI 7893 27 F 28:23.8 9:09/M
928 Amy Horton Beverly Hills MI 4521 37 F 28:24.1 9:10/M
929 John Stephens Fowlerville MI 8410 39 M 28:24.2 9:10/M
930 Brett McGee Ann Arbor MI 6204 42 M 28:24.2 9:10/M
931 Jay LaBarge Royal Oak MI 8164 36 M 28:24.5 9:10/M
932 heather burrows Ann Arbor MI 7914 41 F 28:24.9 9:10/M
933 Alicia Fussman Belleville MI 4129 27 F 28:25.3 9:10/M
934 Jamel Parks Detroit MI 6573 0 M 28:25.4 9:10/M
935 DeeDee LeCompte Saline MI 8862 29 F 28:25.6 9:10/M
936 Angela Clark Saline MI 3581 33 F 28:26.4 9:10/M
937 Mike Trosien Canton MI 5598 34 M 28:26.7 9:10/M
938 Lily Pike Ann Arbor MI 6658 0 F 28:26.8 9:10/M
939 David Grice Wickliffe OH 4246 37 M 28:27.2 9:11/M
940 Cristin Cramer Canton MI 5276 31 F 28:27.8 9:11/M
941 Jessie Skeels Tecumseh MI 5071 25 F 28:28.3 9:11/M
942 Nina Ruvinsky Ann Arbor MI 8340 26 F 28:28.6 9:11/M
943 Robert Mazingo Niles MI 6172 50 M 28:28.8 9:11/M
944 Melanie Sinka Rochester Hills MI 7138 36 F 28:29.3 9:11/M
945 Christopher Harrington Flushing MI 5370 30 M 28:29.5 9:11/M
946 Matt Lovely Bay City MI 6049 28 M 28:29.8 9:11/M
947 Kaite Keenan Bay City MI 4717 22 F 28:29.9 9:11/M
948 Craig Pacernick Ann Arbor MI 8964 42 M 28:30.0 9:12/M
949 Barbara Peitsch Ann Arbor MI 6609 51 F 28:30.0 9:12/M
950 Matt Smithson Novi MI 8392 11 M 28:30.3 9:12/M
951 Beth Riske-Rogers Dexter MI 6835 29 F 28:30.6 9:12/M
952 Bill Dopkowski Saline MI 3840 25 M 28:30.8 9:12/M
953 Jonathon Pack Eaton OH 5860 29 M 28:30.9 9:12/M
954 Brian Callaghan Orion MI 3469 53 M 28:31.0 9:12/M
955 Ken Jones south lyon MI 4646 50 M 28:31.1 9:12/M
956 Anil Sastry Northville MI 6990 34 M 28:31.7 9:12/M
957 katie jones Trenton MICHIGAN 5861 25 F 28:31.9 9:12/M
958 Aaron Sinka Rochester Hills MI 7137 36 M 28:31.9 9:12/M
959 Ting Han Ann Arbor MI 4330 28 M 28:32.6 9:12/M
960 Leah Benoit Royal Oak MI 3256 20 F 28:32.6 9:12/M
961 Melida Ruiz-Quiroz Ann Arbor MI 6934 41 F 28:32.9 9:12/M
962 Rachel Palmer Forest Hills NY 6568 20 F 28:33.0 9:13/M
963 JoAnn Lund Linden MI 6058 36 F 28:33.5 9:13/M
964 Brittnee Hawkins Ann Arbor MI 4383 23 F 28:33.9 9:13/M
965 Stephen Johnson Canton MI 4625 27 M 28:34.1 9:13/M
966 Emily Gordy Ann Arbor MI 4216 18 F 28:34.2 9:13/M
967 Talia Anderson Ann Arbor MI 3072 32 F 28:34.2 9:13/M
968 Jessica Fong Ann Arbor MI 4060 27 F 28:35.8 9:13/M
969 Mike Gilchrist Spring Lake MI 5347 45 M 28:36.3 9:14/M
970 Ryan Traver Marshall MI 5117 31 M 28:36.5 9:14/M
971 Bryon Martin Emporia KS 6128 32 M 28:36.9 9:14/M
972 Alissa Gillman Grand Blanc MI 8038 17 F 28:36.9 9:14/M
973 Parkar Stephens Fowlerville MI 8411 9 F 28:37.0 9:14/M
974 Arthur Villarreal Zeeland MI 7525 40 M 28:37.1 9:14/M
975 Evelyn Patient Novi MI 6587 14 F 28:37.3 9:14/M
976 April Nobach Saint Johns MI 5487 34 F 28:37.3 9:14/M
977 Claire Cantelon 5929 12 F 28:37.4 9:14/M
978 Mark McCann Sr. Rockford MI 8902 41 M 28:37.5 9:14/M
979 Ala Iaconi Ann Arbor MI 4547 27 F 28:37.8 9:14/M
980 Aliza Altman Forest Hills NY 3053 19 F 28:37.8 9:14/M
981 Clare Gargaro Bloomfield MI 4143 0 F 28:38.2 9:14/M
982 Drake Siegner Clarkston MI 8374 10 M 28:38.4 9:14/M
983 Tom Gordy Beverly Hills MI 4217 52 M 28:38.8 9:14/M
984 Kate Gilchrist Spring Lake MI 5346 11 F 28:39.2 9:15/M
985 Helen Guisinger Coldwater MI 4289 70 F 28:39.3 9:15/M
986 Debbie Strohecker Oxford MI 7310 41 F 28:39.4 9:15/M
987 Rahul Pandey Ann Arbor MI 5504 33 M 28:39.5 9:15/M
988 Jason Krajcovic Ann Arbor MI 4835 30 M 28:39.8 9:15/M
989 Eric Howley Livonia MI 4529 29 M 28:40.1 9:15/M
990 Mason Villarreal zeeland MI 7527 7 M 28:40.2 9:15/M
991 Melissa Hellner Brooklyn MI 4409 0 F 28:40.2 9:15/M
992 Sara Fritz Royal oak MI 4112 35 F 28:40.6 9:15/M
993 Douglas Bowman Livonia MI 3340 55 M 28:41.3 9:15/M
994 Allen Bacus Britton MI 3144 46 M 28:41.4 9:15/M
995 Roger Thayer Livonia MI 7399 51 M 28:41.4 9:15/M
996 Travis Taylor Kentwood MI 7378 24 M 28:41.5 9:15/M
997 Dave Goemer Brighton MI 8043 37 M 28:41.6 9:15/M
998 Isaiah Taylor Hastings MI 7371 11 M 28:41.8 9:15/M
999 Vincent Misovski Shelby Twp. MI 8233 20 M 28:42.2 9:15/M
1000 Kelsey Aaronson 5815 17 F 28:42.5 9:15/M
 
Place Name City Bib No Age Gender Total Time Pace
1001 David Rodriguez Ludington MI 8328 30 M 28:42.6 9:15/M
1002 Ann Hansen Novi MI 4338 45 F 28:43.1 9:16/M
1003 John Zavell Sylvania OH 7801 51 M 28:44.0 9:16/M
1004 Michelle Charameda Holland MI 3548 41 F 28:44.1 9:16/M
1005 Chad VanDerwall Galesburg MI 8462 26 M 28:44.3 9:16/M
1006 rene hubbard 5715 53 F 28:44.4 9:16/M
1007 Katherine Lebioda Canton MI 8861 23 F 28:45.1 9:16/M
1008 Wendy Valtadoros Ann Arbor MI 7491 42 F 28:45.1 9:16/M
1009 Rebecca Finder Galesburg MI 8012 26 F 28:45.3 9:16/M
1010 Lydia Valtadoros Ann Arbor MI 7489 10 F 28:45.4 9:16/M
1011 Stephanie (Stev Brewbaker Ann Arbor MI 3369 38 F 28:45.8 9:16/M
1012 Darrell Williams Stockbridge MI 7698 60 M 28:46.1 9:17/M
1013 Roxanne Naanos Ann Arbor MI 6423 0 F 28:46.3 9:17/M
1014 Jennifer Adam Metamora MI 3012 23 F 28:47.5 9:17/M
1015 Jen Bush Westland MI 3443 33 F 28:47.8 9:17/M
1016 Russell VanHouzen Traverse City MI 8463 62 M 28:48.0 9:17/M
1017 Jennifer Knope Ann Arbor MI 8152 34 F 28:48.1 9:17/M
1018 Amy Hoffman Livonia MI 8089 42 F 28:48.6 9:17/M
1019 Katherine Michelmore Ann Arbor MI 6277 27 F 28:48.8 9:17/M
1020 Ashley Koppen Brighton MI 8156 26 F 28:48.8 9:17/M
1021 Jessica VanWert Beverly Hills MI 7512 30 F 28:49.0 9:18/M
1022 Katherine Chen Ann Arbor MI 235 26 F 28:49.7 9:18/M
1023 Michael Yates Plymouth MI 7786 31 M 28:49.8 9:18/M
1024 Anne Boxeth Ann Arbor MI 3343 14 F 28:49.8 9:18/M
1025 Kimberly Bennett Westland MI 3255 30 F 28:50.0 9:18/M
1026 Casey Gokenbach Grosse Pointe Shores MI 8044 34 F 28:50.1 9:18/M
1027 Karen Jozwiak Grosse Pointe MI 4658 33 F 28:50.3 9:18/M
1028 Melissa Palfey Ann Arbor MI 8969 14 F 28:51.1 9:18/M
1029 Dylan Thompson Ypsilanti MI 7410 10 M 28:51.3 9:18/M
1030 Tyler Hughes Marshall MI 4540 19 M 28:51.4 9:18/M
1031 Kayla Gorton Novi MI 4221 22 F 28:51.4 9:18/M
1032 Benjamin Bushkuhl Ann Arbor MI 3448 27 M 28:52.0 9:19/M
1033 Laura McNeil Ann Arbor MI 5460 13 F 28:52.3 9:19/M
1034 Catelyn VanDerKolk Holland MI 7500 22 F 28:52.4 9:19/M
1035 Vimal Alokam Ypsilanti MI 3052 9 M 28:52.7 9:19/M
1036 Erick Cassar Livonia MI 3525 18 M 28:52.7 9:19/M
1037 Kevin Fielder Manchester MI 4003 23 M 28:52.8 9:19/M
1038 Heather McKaig Brighton MI 6218 39 F 28:53.1 9:19/M
1039 Anne Fitzpatrick Ann Arbor MI 4034 29 F 28:54.1 9:19/M
1040 Richard Gokenbach Grosse Pointe Shores MI 8045 35 M 28:55.7 9:20/M
1041 Kristina Sitarski Ann Arbor MI 5070 28 F 28:56.7 9:20/M
1042 Karen Kirkpatrick Ann Arbor MI 4783 25 F 28:58.0 9:21/M
1043 Ariel Bronson Ann Arbor MI 3384 20 F 28:58.4 9:21/M
1044 Rex Timbs Ypsilanti MI 8440 46 M 28:58.4 9:21/M
1045 Laura Snuverink Ann Arbor MI 7209 42 F 28:58.6 9:21/M
1046 Zachary Fagerlin Rockwford MI 8712 10 M 28:58.8 9:21/M
1047 Brian Ray Dublin OH 6766 29 M 28:58.9 9:21/M
1048 Jonathan Wilson Ann Arbor MI 7709 45 M 28:59.1 9:21/M
1049 Sean Timbs Ypsilanti MI 8441 15 M 28:59.4 9:21/M
1050 Holly Griewahn Adrian MI 4247 29 F 28:59.6 9:21/M
1051 Danielle Dupuy Chicago IL 1707 30 F 28:59.9 9:21/M
1052 Brian Perry Clawson MI 6625 35 M 29:00.2 9:21/M
1053 Jeff Snedeker Rockford MI 5571 40 M 29:00.9 9:21/M
1054 Leah Shever Chelsea MI 7095 32 F 29:01.8 9:22/M
1055 Pete Dull Chicago IL 3881 37 M 29:02.5 9:22/M
1056 Christy Ray Dublin OH 6767 29 F 29:02.8 9:22/M
1057 Devin Duda Commerce MI 3873 14 M 29:02.9 9:22/M
1058 Patty Waidknecht Chesterfield MI 8471 45 F 29:02.9 9:22/M
1059 David Riebe Berkley MI 6826 46 M 29:03.2 9:22/M
1060 Cheryl McElvany Monroe MI 6201 52 F 29:03.9 9:22/M
1061 Dawn Kuras Commerce Township MI 4871 28 F 29:04.6 9:23/M
1062 Zachary Alabakoff Dearborn MI 3038 12 M 29:04.9 9:23/M
1063 Jessica Brown Jackson MI 3392 26 F 29:05.3 9:23/M
1064 Allen Magolan Brighton MI 6080 46 M 29:05.3 9:23/M
1065 Armen Alabakoff Dearborn MI 3037 45 M 29:06.1 9:23/M
1066 john karikas 2202 15 M 29:06.3 9:23/M
1067 Jalayne Bennett Paw Paw MI 3254 43 F 29:06.4 9:23/M
1068 Noah Terech Milan MI 7389 12 M 29:06.6 9:23/M
1069 Andrew Leonard Dexter MI 8175 21 M 29:06.6 9:23/M
1070 Rich Austin Ann Arbor MI 3725 29 M 29:06.7 9:23/M
1071 Erica Halsey Jackson MI 4320 22 F 29:06.7 9:23/M
1072 Bob Wren ann arbor MI 5625 41 M 29:06.9 9:23/M
1073 Karen Perko Chardon OH 5516 46 F 29:06.9 9:23/M
1074 Amanda Halsey Clinton Township MI 4319 27 F 29:07.5 9:24/M
1075 Jacob Seabolt Northville MI 7045 10 M 29:07.8 9:24/M
1076 Will Hassett Ann Arbor MI 4375 55 M 29:07.9 9:24/M
1077 Scott Seabolt Northville MI 7046 41 M 29:08.9 9:24/M
1078 Christina Conlin Midland TX 7946 25 F 29:08.9 9:24/M
1079 JASON QUINNAN Saint Charles MI 6736 33 M 29:09.0 9:24/M
1080 Jennifer Javor Plymouth MI 4592 35 F 29:09.1 9:24/M
1081 Kerri Ralls Dexter MI 6750 30 F 29:09.2 9:24/M
1082 Ankit Kachhal Canton MI 4665 26 M 29:09.3 9:24/M
1083 Mariana Carrasco-Teja Ann Arbor MI 5257 35 F 29:09.8 9:24/M
1084 Joshua Winslow Saline MI 7724 12 M 29:10.1 9:25/M
1085 Natasha Thomas Ann Arbor MI 8436 40 F 29:10.2 9:25/M
1086 Scott Fleszar Chelsea MI 4042 39 M 29:10.5 9:25/M
1087 Evan Sleep Southgate MI 7163 16 M 29:10.8 9:25/M
1088 Emilia Stehouwer Ann Arbor MI 5582 11 F 29:10.8 9:25/M
1089 Sara Pschigoda Ann Arbor MI 6720 33 F 29:10.9 9:25/M
1090 katy mifsud 5789 14 F 29:11.1 9:25/M
1091 Justin Beeman Cortland OH 3229 26 M 29:11.1 9:25/M
1092 Larry A. Joseph Chesterfield Township MI 4655 57 M 29:11.3 9:25/M
1093 Mackenzie Dalton 5875 13 F 29:11.4 9:25/M
1094 Victoria Zauel Ann Arbor MI 1648 19 F 29:11.8 9:25/M
1095 Alexander Bridgman Plymouth MI 5240 14 M 29:11.8 9:25/M
1096 Kelly Douglas Chardon OH 5296 15 F 29:12.1 9:25/M
1097 Etsuko Inohara Ann Arbor MI 4557 49 F 29:12.5 9:25/M
1098 Madelaine Goodin Chelsea MI 4209 13 F 29:12.8 9:25/M
1099 Samuel Jagger Ann Arbor MI 4581 32 M 29:12.8 9:25/M
1100 Courthey Fulcher 5890 13 F 29:13.0 9:25/M
 
Place Name City Bib No Age Gender Total Time Pace
1101 Tyler Sleep Southgate MI 7165 21 M 29:13.0 9:25/M
1102 Bryan Borowy Jackson MI 3325 37 M 29:13.3 9:25/M
1103 kelly cates Westland MICHIGAN 5768 27 F 29:13.7 9:25/M
1104 Elizabeth Stehouwer Ann Arbor MI 5581 41 F 29:13.8 9:25/M
1105 Julianne Atkinson Carleton MI 3118 19 F 29:14.3 9:26/M
1106 Ryan Kelly Brighton MI 4732 13 M 29:14.5 9:26/M
1107 Daniel Marcin ann arbor MI 6114 25 M 29:14.6 9:26/M
1108 Emily Zimmer Chelsea MI 7817 37 F 29:14.7 9:26/M
1109 steven sperry Ann Arbor MI 8403 31 M 29:15.1 9:26/M
1110 Kylie Atkinson Carleton MI 3119 22 F 29:15.1 9:26/M
1111 Meghan Machak Ann Arbor MI 5439 35 F 29:15.5 9:26/M
1112 Laura Meyer Manchester MI 8221 29 F 29:15.7 9:26/M
1113 Phillippi Pierce Allen Park MI 6653 37 M 29:16.2 9:26/M
1114 Danielle Prince Ypsilanti MI 6712 24 F 29:16.3 9:26/M
1115 Sydney Tasker South Lyon MI 8428 16 F 29:16.4 9:26/M
1116 Katy Harris South Lyon MI 8778 0 F 29:17.0 9:27/M
1117 Eric Weir South Lyon MI 7631 32 M 29:18.4 9:27/M
1118 Justin Royer Bay City MI 6924 14 M 29:18.5 9:27/M
1119 Italo Gutierrez 5744 32 M 29:18.8 9:27/M
1120 Douglas Cook St. Johns MI 7949 41 M 29:19.0 9:27/M
1121 Deb Glinski Romeo MI 5350 0 F 29:19.1 9:27/M
1122 Shannon St.Louis Garden City MI 1400 35 F 29:19.3 9:27/M
1123 James VandenBerg Grand Rapids MI 7498 23 M 29:19.7 9:27/M
1124 Charlie Newell Ypsilanti MI 8248 27 M 29:20.4 9:28/M
1125 Leonard Wade Canton MI 7548 41 M 29:20.5 9:28/M
1126 Melissa Meyer Ann Arbor MI 6271 22 F 29:20.8 9:28/M
1127 Gordon Mosley Allen Park MI 6378 51 M 29:21.0 9:28/M
1128 courtney yan Ann Arbro MI 7782 28 F 29:21.2 9:28/M
1129 Kelly Bellus Jackson MI 7873 38 F 29:21.3 9:28/M
1130 Erin Weil Chicago IL 7627 23 F 29:21.3 9:28/M
1131 Katie Maier Ann Arbor MI 6082 0 F 29:21.9 9:28/M
1132 Jessica Taulbee Temperance MI 8429 34 F 29:21.9 9:28/M
1133 Kim Counelis Flushing MI 7957 33 F 29:22.8 9:28/M
1134 javier rios perez 5745 29 M 29:22.9 9:28/M
1135 Natalie Mogerman Ann Arbor MI 6337 22 F 29:23.0 9:29/M
1136 Brad Olson j MI 8268 36 M 29:23.3 9:29/M
1137 Jeff Lampman Fowlerville MI 4893 38 M 29:23.6 9:29/M
1138 Jessica Onkka Redford MI 6532 28 F 29:23.7 9:29/M
1139 Michelle Curtis Ann Arbor MI 3718 22 F 29:24.1 9:29/M
1140 Alex Hill Canton MI 4459 22 M 29:24.3 9:29/M
1141 Brian Weil 5849 26 M 29:24.5 9:29/M
1142 Mary Kaplan South Lyon MI 4684 25 F 29:24.9 9:29/M
1143 Michael Kaplan South Lyon MI 4685 33 M 29:25.3 9:29/M
1144 John Riddle Monroe MI 6822 22 M 29:25.5 9:29/M
1145 Larry Ehnis Dexter MI 3908 58 M 29:25.5 9:29/M
1146 Ben Currie New Hudson MI 3714 10 M 29:26.1 9:30/M
1147 Amy Sastry Northville MI 6989 30 F 29:26.4 9:30/M
1148 Tara Hudson Temperance MI 8105 32 F 29:26.9 9:30/M
1149 Ed Herron Midland MI 4435 45 M 29:27.1 9:30/M
1150 Michael Valasek Owosso MI 5124 31 M 29:27.2 9:30/M
1151 Allison Steglitz Ann Arbor MI 7276 10 F 29:27.4 9:30/M
1152 Dana Currie New Hudson MI 3715 42 F 29:27.6 9:30/M
1153 Amanda Herron Midland MI 4433 19 F 29:27.6 9:30/M
1154 Michael Galea Ann Arbor MI 4133 63 M 29:27.7 9:30/M
1155 Edward Shornak troy MI 7100 41 M 29:27.9 9:30/M
1156 Autumn Poisson Rockford MI 8297 23 F 29:28.0 9:30/M
1157 Jacob Jeske Ann Arbor MI 8115 21 M 29:28.3 9:30/M
1158 Kaitlyn Royer Bay City MI 6925 13 F 29:28.5 9:30/M
1159 Madeline Shornak Troy MI 7101 13 F 29:28.6 9:30/M
1160 Maddie Kurcz 5933 14 F 29:28.9 9:30/M
1161 Jason Schnob Westland MI 7020 34 M 29:29.7 9:31/M
1162 John Geeting Ann Arbor MI 495 32 M 29:29.9 9:31/M
1163 Mike Kelly Brighton MI 4731 42 M 29:30.0 9:31/M
1164 Ann Guttman Ann Arbor MI 4298 47 F 29:30.3 9:31/M
1165 Evie Hollerbach Ann Arbor MI 4500 22 F 29:30.5 9:31/M
1166 Joel Barss Tecumseh MI 3191 27 M 29:30.7 9:31/M
1167 Claire Smith Ann Arbor MI 7179 20 F 29:31.2 9:31/M
1168 Monica Boote 2558 41 F 29:32.0 9:32/M
1169 Jill Peplinski Ann Arbor MI 6614 24 F 29:32.1 9:32/M
1170 Courtney Johnston Dexter MI 4631 24 F 29:32.1 9:32/M
1171 Stephen Little South Lyon MI 6026 48 M 29:32.8 9:32/M
1172 Nathan Swenson Brighton MI 7332 33 M 29:32.9 9:32/M
1173 Elyse Geeting Ann Arbor MI 4158 28 F 29:33.0 9:32/M
1174 Megan Alderman Ann Arbor MI 8543 28 F 29:33.4 9:32/M
1175 Warren Stowe Plymouth MI 7306 29 M 29:33.9 9:32/M
1176 Katie Moro Wayne MI 8939 23 F 29:34.4 9:32/M
1177 Julie Grand Portage MI 4230 41 F 29:35.6 9:33/M
1178 Jan Gulliver-Kline Beulah MI 8764 56 F 29:36.0 9:33/M
1179 Frances Yeh Ann Arbor MI 7787 38 F 29:36.2 9:33/M
1180 Anne Cowan Ann Arbor MI 3670 42 F 29:36.3 9:33/M
1181 Martina Schultz Wayne MI 8363 29 F 29:36.7 9:33/M
1182 Kristin Quinn Grand Blanc MI 6734 39 F 29:36.9 9:33/M
1183 elly godel 5754 17 F 29:36.9 9:33/M
1184 Michael Anderson Hazel Park MI 8547 49 M 29:37.4 9:33/M
1185 Brian Lemon Plymouth MI 4961 29 M 29:38.0 9:34/M
1186 Audrey Moro Wayne MI 8938 51 F 29:38.3 9:34/M
1187 Jamie Guise Dexter MI 5755 48 F 29:38.9 9:34/M
1188 paul brann redford MI 3358 27 M 29:39.3 9:34/M
1189 Ana Dora Saline MI 3842 34 F 29:39.4 9:34/M
1190 Casey Daly Dearborn Heights MI 7970 28 M 29:39.7 9:34/M
1191 Jeffrey Bauer Milan MI 3206 29 M 29:40.0 9:34/M
1192 Mark Lombardo Canton MI 8880 33 M 29:40.4 9:34/M
1193 Jennifer Blackwell Ann Arbor MI 3294 40 F 29:40.8 9:34/M
1194 Isabel Talsma 5747 20 F 29:41.2 9:35/M
1195 Heather Kreger Grosse Ile MI 4836 34 F 29:41.5 9:35/M
1196 Kristin Sarkisian Ann Arbor MI 6981 22 F 29:41.6 9:35/M
1197 Amber VanSumeren Bay City MI 7510 34 F 29:42.4 9:35/M
1198 Mona Farah Ypsilanti MI 3978 20 F 29:42.4 9:35/M
1199 Thomas Walke Ann Arbor MI 7559 40 M 29:42.7 9:35/M
1200 Scott Purdy Huntington Woods MI 5004 41 M 29:42.7 9:35/M
 
Place Name City Bib No Age Gender Total Time Pace
1201 Jimmie Adamski South Rockwood MI 3020 36 M 29:42.9 9:35/M
1202 Doug Beaudet 5668 51 M 29:43.3 9:35/M
1203 Ann Fleszar Chelsea MI 4040 41 F 29:43.5 9:35/M
1204 Bryan Sinicki Bay City MI 5565 25 M 29:43.7 9:35/M
1205 Justin Marzean Ann Arbor MI 6143 24 M 29:43.7 9:35/M
1206 COLIN WRIGHT ELMHURST IL 7767 10 M 29:43.9 9:35/M
1207 Matthew Dennis Lakeland MI 3801 33 M 29:44.0 9:35/M
1208 Laura Rund Ann Arbor MI 6937 21 F 29:44.1 9:35/M
1209 Alec Carson Adrian MI 3514 16 M 29:44.1 9:35/M
1210 Ken Bishop Franklin MI 3288 41 M 29:44.1 9:35/M
1211 Jennifer Jackson Westland MI 4565 32 F 29:44.3 9:35/M
1212 Michael Marino Washington DC 6121 33 M 29:44.4 9:35/M
1213 Rita Prior Novi MI 6716 45 F 29:44.4 9:35/M
1214 Nina Silverstein Woodcliff Lake NJ 8377 22 F 29:44.5 9:35/M
1215 Marquel Howell Farmington Hills MI 8101 37 F 29:45.9 9:36/M
1216 CARRIE WRIGHT ELMHURST IL 7766 41 F 29:45.9 9:36/M
1217 Shannon Clark Tecumseh MI 7938 42 F 29:46.5 9:36/M
1218 TJ Olmstead Kalamazoo MI 6521 28 M 29:46.8 9:36/M
1219 Karli Mayer Ann Arbor MI 6167 20 F 29:46.8 9:36/M
1220 Amy Broderick Tecumseh MI 7909 36 F 29:46.9 9:36/M
1221 Patrick Smyk Farmington Hills MI 7208 41 M 29:47.6 9:36/M
1222 Patrick Morris Pinckney MI 6368 41 M 29:47.6 9:36/M
1223 Sarah Perry Clawson MI 6631 34 F 29:48.4 9:37/M
1224 Carlos Rawls Cincinnati OH 6765 31 M 29:48.7 9:37/M
1225 William Davis Ann Arbor MI 5286 47 M 29:48.9 9:37/M
1226 Jacob Kollinger Waterford MI 8838 12 M 29:48.9 9:37/M
1227 Anthony Murphy Auburn Hills MI 5480 28 M 29:49.3 9:37/M
1228 Nick Griggs ANN ARBOR MI 4251 23 M 29:49.5 9:37/M
1229 Andrea Schneider Lansing MI 8357 30 F 29:49.5 9:37/M
1230 Dan Bracy Romulus MI 3348 32 M 29:50.0 9:37/M
1231 Ji Won Kim Ann Arbor MI 4767 24 F 29:50.0 9:37/M
1232 Kenny Moffatt Ann arbor MI 5473 50 M 29:50.1 9:37/M
1233 Alexander Davis Ann Arbor MI 8665 10 M 29:50.5 9:37/M
1234 Angela Chen Ann Arbor MI 3557 22 F 29:50.6 9:37/M
1235 Carol Davis Ann Arbor MI 8666 45 F 29:50.6 9:37/M
1236 Tarran Johnson-LeMieux Allen Park MI 4629 30 M 29:51.0 9:38/M
1237 Jonny Adornetto King city ON 7840 28 M 29:51.1 9:38/M
1238 Cheryl Mario Plainwell MI 6122 50 F 29:51.2 9:38/M
1239 Luke Miller Montrose MI 6302 13 M 29:51.2 9:38/M
1240 Diana Klein St. Joseph MI 4793 24 F 29:51.3 9:38/M
1241 Kerry Ebert Austin TX 8701 36 M 29:51.3 9:38/M
1242 Ellen Tondreau Ann Arbor MI 5116 26 F 29:51.4 9:38/M
1243 Stacey Tompkins Grass Lake MI 7442 32 F 29:51.8 9:38/M
1244 Liana Easterby Troy MI 7996 25 F 29:52.1 9:38/M
1245 LINDA AMSTUTZ TECUMSEH MI 3061 43 F 29:52.6 9:38/M
1246 Leah Engle Ann Arbor MI 3935 25 F 29:52.6 9:38/M
1247 Victoria Zerbe Plainwell MI 7810 57 F 29:52.9 9:38/M
1248 Melynee Weber Ann Arbor MI 7620 36 F 29:53.5 9:38/M
1249 Kelly Bolton Petoskey MI 5224 31 F 29:53.7 9:38/M
1250 Jeff Grove Grand Blanc MI 4277 33 M 29:53.7 9:38/M
1251 Alison Foreman Ypsilanti MI 4067 32 F 29:53.9 9:38/M
1252 Grace Miller Dexter MI 6299 15 F 29:54.1 9:39/M
1253 Brad Smith Addison MI 5074 51 M 29:54.5 9:39/M
1254 brian hiatt jackson MI 8790 54 M 29:54.9 9:39/M
1255 Sheyonna Watson Ypsilanti MI 7605 27 F 29:55.4 9:39/M
1256 Cathy Schneider MACOMB MI 8358 41 F 29:55.5 9:39/M
1257 Blaine Krach Ann Arbor MI 8844 21 F 29:55.7 9:39/M
1258 Douglas Miller Dexter MI 6297 45 M 29:56.0 9:39/M
1259 Laura Holtz East Lansing MI 4503 19 F 29:56.2 9:39/M
1260 Hari Iyer Fort Collins CO 4562 62 M 29:56.2 9:39/M
1261 Karin Sletten-Farjo Ann Arbor MI 7168 40 F 29:56.7 9:39/M
1262 Timothy Hoban Ann Arbor MI 4477 51 M 29:56.9 9:39/M
1263 Jeff McIntyre Owosso MI 8912 36 M 29:57.1 9:40/M
1264 Devin Jordan Novi MI 4652 39 M 29:57.3 9:40/M
1265 Joseph Brockway Newaygo MI 7908 38 M 29:57.3 9:40/M
1266 Dennis Brady northville MI 3354 50 M 29:57.6 9:40/M
1267 Tim Herndon Milford MI 4427 39 M 29:57.7 9:40/M
1268 Alexandra Herndon Milford MI 4423 9 F 29:58.6 9:40/M
1269 SUSAN PETERS TECUMSEH MI 6634 43 F 29:58.7 9:40/M
1270 mario flores holland OH 8020 56 M 29:58.9 9:40/M
1271 Courtney Dilsizian Canton MI 3830 24 F 29:59.1 9:40/M
1272 Greg Stevens Ann Arbor MI 5097 38 M 29:59.5 9:40/M
1273 Dale Dyer Chelsea MI 7994 46 M 29:59.7 9:40/M
1274 Julie Uhl Lasalle MI 7476 27 F 29:59.7 9:40/M
1275 Lorraine Johnson Ypsilanti MI 4622 32 F 29:59.9 9:40/M
1276 Jeff Oerline Ann Arbor MI 6510 41 M 29:59.9 9:40/M
1277 Adrienne Grant Ann Arbor MI 4231 27 F 30:00.3 9:41/M
1278 Yvonne Perhne Ann Arbor MI 6619 42 F 30:00.3 9:41/M
1279 Lynn Itani Coral Springs FL 4560 22 F 30:00.6 9:41/M
1280 Robert Tam Ann Arbor MI 8424 27 M 30:00.7 9:41/M
1281 Jillian Peters Ann Arbor MI 8982 24 F 30:00.9 9:41/M
1282 Adam Mroz Maumee OH 6391 23 M 30:01.0 9:41/M
1283 Eric Coughlin Ann Arbor MI 8652 24 M 30:01.2 9:41/M
1284 Charlotte Lichtman Ann Arbor MI 4993 19 F 30:02.4 9:41/M
1285 Ross Robert Westland MI 6842 26 M 30:02.4 9:41/M
1286 Cassandra Fletcher-Martin Canton MI 4043 42 F 30:02.6 9:41/M
1287 Andrew Crawford Ypsilanti MI 8654 8 M 30:03.1 9:42/M
1288 scott haarz 5717 33 M 30:03.5 9:42/M
1289 Emily Gorowski Bowling Green OH 4220 23 F 30:03.6 9:42/M
1290 Alisha Birchmeier Dexter MI 8581 12 F 30:03.7 9:42/M
1291 Holly Lynema Martin MI 6062 31 F 30:03.8 9:42/M
1292 Matthew Brott Ann Arbor MI 3388 24 M 30:04.2 9:42/M
1293 Julia Wilmes Saline MI 5161 20 F 30:04.2 9:42/M
1294 Lance Dibble Ypsilanti MI 7976 33 M 30:04.3 9:42/M
1295 Robin Campbell Addison MI 3486 47 F 30:04.4 9:42/M
1296 Kristin Roth Southgate MI 5549 25 F 30:05.4 9:42/M
1297 Ian Rothstein Ann Arbor MI 5932 11 M 30:05.4 9:42/M
1298 liam hoover dearborn MI 4509 6 M 30:05.6 9:42/M
1299 Kevin Grigereit Ortonville MI 4250 11 M 30:05.7 9:42/M
1300 Blake Stoimenoff Grand Ledge MI 2533 50 M 30:06.0 9:43/M
 
Place Name City Bib No Age Gender Total Time Pace
1301 Jan Conlin Ann Arbor MI 3630 61 F 30:06.0 9:43/M
1302 Hisako Isozaki Ann Arbor MI 8112 36 F 30:06.2 9:43/M
1303 billy hoover dearborn MI 4507 38 M 30:06.3 9:43/M
1304 Jackie Williams Ann Arbor MI 5158 50 F 30:06.7 9:43/M
1305 Erik Lyon Mishawaka IN 915 38 M 30:07.0 9:43/M
1306 Greer Thibodeau Ypsilanti MI 1458 26 F 30:07.2 9:43/M
1307 Brian Eva Jackson MI 8708 40 M 30:07.9 9:43/M
1308 Loretta Cruz Adrian MI 3711 52 F 30:08.1 9:43/M
1309 Wendy Yallop Ann arbor MI 7781 44 F 30:08.5 9:43/M
1310 Kit I Ho Ann Arbor MI 4474 25 F 30:08.9 9:43/M
1311 Ashley Logan-Sitko Clawson MI 6035 26 F 30:09.5 9:44/M
1312 Katherine Olger Laingsburg MI 6519 20 F 30:09.8 9:44/M
1313 Amy Cerajewski Jackson MI 3534 36 F 30:10.3 9:44/M
1314 Kristine Martel Ann Arbor MI 6125 31 F 30:10.5 9:44/M
1315 Olivia Mayer Orion MI 6168 14 F 30:10.8 9:44/M
1316 James Do Ann Arbor MI 5294 23 M 30:10.9 9:44/M
1317 Ashley Plocharczyk livonia MI 6669 18 F 30:11.9 9:44/M
1318 James McCollom Ann Arbor MI 6188 32 M 30:12.1 9:45/M
1319 Jackie Yurkunas Westland MI 7792 25 F 30:12.3 9:45/M
1320 jessica Fissette roseville MI 4030 24 F 30:12.5 9:45/M
1321 Shannon Roberson Battle Creek MI 6841 34 F 30:12.8 9:45/M
1322 Karen Lang Ann Arbor MI 4896 46 F 30:12.9 9:45/M
1323 Angeline Lyon Ann Arbor MI 6063 29 F 30:13.1 9:45/M
1324 Kimberly Dunham 5698 27 F 30:13.2 9:45/M
1325 Jordan Adam Howell MI 3013 13 F 30:13.2 9:45/M
1326 Adam Benmoussa Whitmore lake MI 3251 13 M 30:13.4 9:45/M
1327 Kathy Roeser-Nordling Ann Arbor MI 6882 42 F 30:13.5 9:45/M
1328 Mychael Fields Southfield MI 8011 23 M 30:13.6 9:45/M
1329 Laura Taylor Dexter MI 7375 32 F 30:13.9 9:45/M
1330 Kailas Whitelocke Ann Arbor MI 5150 11 M 30:14.0 9:45/M
1331 Ashley Miller Sandwich IL 1009 26 F 30:14.2 9:45/M
1332 Addie Hunter ann arbor MI 4541 22 F 30:14.5 9:45/M
1333 Alex Hunter Lake Odessa MI 4542 19 M 30:15.5 9:45/M
1334 Hassane Benmoussa Whitmore lake MI 3252 47 M 30:16.0 9:46/M
1335 Nancy Schutter Hamilton MI 7034 57 F 30:16.0 9:46/M
1336 Tatsu Kobayashi Northville MI 4806 0 M 30:16.4 9:46/M
1337 Paul Zavell Sylvania OH 7802 14 M 30:16.6 9:46/M
1338 Patrick Montie Dimondale MI 6351 58 M 30:16.6 9:46/M
1339 Jessica Bunjik Canton MI 3426 32 F 30:16.7 9:46/M
1340 Katherine Milske Ann Arbor MI 6320 48 F 30:16.8 9:46/M
1341 Kerry Wenth 5773 56 M 30:17.7 9:46/M
1342 Julia SantaLucia Grosse Pointe MI 6980 20 F 30:18.0 9:46/M
1343 Elizabeth O'Hotzke Manchester MI 6513 10 F 30:18.0 9:46/M
1344 Steve Eldridge Ann Arbor MI 5303 53 M 30:18.2 9:46/M
1345 Gaby Kornblau Nanuet NY 4824 20 F 30:18.6 9:46/M
1346 Stacey Robertson Streetsboro OH 6856 29 F 30:18.6 9:46/M
1347 Amber Buchholz Dearborn Heights MI 3408 19 F 30:18.7 9:46/M
1348 Brent Woodman Ypsilanti MI 7753 40 M 30:18.8 9:46/M
1349 Courtney Curry Ann Arbor MI 3716 27 F 30:19.4 9:47/M
1350 Luke Simon Ann Arbor MI 8379 13 M 30:19.6 9:47/M
1351 Emily Woodman Ypsilanti MI 7754 10 F 30:19.6 9:47/M
1352 Allison Billi Ann Arbor MI 3282 0 F 30:19.9 9:47/M
1353 Jordan Nelson Miwaukee WI 5483 24 F 30:20.1 9:47/M
1354 Laura Morris Pinckney MI 6367 37 F 30:20.3 9:47/M
1355 Beth Driskell Ypsilanti MI 8696 37 F 30:20.5 9:47/M
1356 Toru Okubo Ann Arbor MI 8960 28 M 30:20.8 9:47/M
1357 Brian Miller Oakfield WI 8226 51 M 30:20.8 9:47/M
1358 Alissa Medina Jackson MI 5463 24 F 30:21.2 9:47/M
1359 Barbara Zickgraf Ann Arbor MI 7814 27 F 30:22.0 9:48/M
1360 Mary Kolasa Ann Arbor MI 4816 49 F 30:22.4 9:48/M
1361 Bernice Grigereit Ortonville MI 4249 43 F 30:22.6 9:48/M
1362 Kyle McElvany Monroe MI 6202 25 M 30:22.8 9:48/M
1363 Carolyn Minks Rye Brook NY 6322 0 F 30:22.9 9:48/M
1364 Michael Mutchler Hubbardston MA 6418 47 M 30:23.0 9:48/M
1365 Brian Ignash Charlotte NC 4552 0 M 30:23.3 9:48/M
1366 Donald Monroe Battle Creek MI 8240 34 M 30:23.4 9:48/M
1367 Morgan Derry Ann Arbor MI 3813 27 F 30:23.5 9:48/M
1368 Katja Uhlig Ann Arbor MI 5122 19 F 30:23.6 9:48/M
1369 Kevin Le Ann Arbor MI 4935 25 M 30:23.6 9:48/M
1370 Katie Bivens Battle Creek MI 7885 30 F 30:23.6 9:48/M
1371 cheri eli perrysburg OH 5307 40 F 30:24.2 9:48/M
1372 Don Bivens Battle Creek MI 7884 40 M 30:24.4 9:48/M
1373 Aki Okubo Ann Arbor MI 8959 28 F 30:24.5 9:48/M
1374 Kylie Smith Bettendorf IA 7190 18 F 30:24.6 9:48/M
1375 Kendra Belt Jackson MI 7874 22 F 30:24.7 9:48/M
1376 Gabrielle Samways Whitmore Lake MI 6967 10 F 30:24.8 9:48/M
1377 Jeanette Sladick Detroit MI 7158 39 F 30:24.9 9:48/M
1378 charlie eli perrysburg OH 5306 40 M 30:25.1 9:49/M
1379 lisa wan ann arbor MI 1857 28 F 30:25.4 9:49/M
1380 Evelynne Crumm Ann Arbor MI 3706 9 F 30:25.5 9:49/M
1381 Lance Lis Bloomfield Hills MI 8874 50 M 30:25.7 9:49/M
1382 Kara Grove Grand Blanc MI 4278 31 F 30:26.2 9:49/M
1383 Ethan Lis Bloomfield Hills MI 8873 14 M 30:26.5 9:49/M
1384 Karlee Kwiatkowski Carleton MI 4875 22 F 30:27.1 9:49/M
1385 Robert Schneider Stockbridge MI 1307 50 M 30:27.4 9:49/M
1386 Rod Balmer Ann Arbor MI 3162 50 M 30:27.6 9:49/M
1387 Chris Saxton Clinton MI 6996 12 M 30:27.7 9:49/M
1388 Dave Skaff Ann Arbor MI 7147 45 M 30:28.2 9:50/M
1389 Jay Richardson Brighton MI 6818 33 M 30:28.2 9:50/M
1390 Susan Farrell Ann Arbor MI 8716 44 F 30:28.9 9:50/M
1391 Sarah Berta Canal Windchester OH 3270 29 F 30:30.2 9:50/M
1392 Katy Phelps Clinton MI 6645 46 F 30:30.3 9:50/M
1393 John Fonte Ann Arbor MI 4061 20 M 30:30.4 9:50/M
1394 Isobel Kraft Bethesda MD 4834 19 F 30:31.0 9:51/M
1395 Jill Lyon San Rafael CA 6064 0 F 30:31.1 9:51/M
1396 Ryan Wood Ypsilanti MI 7749 29 M 30:31.2 9:51/M
1397 Kirk DeMars Ypsilanti MI 5289 35 M 30:31.8 9:51/M
1398 Elsida Konakciu Royal Oak MI 5420 26 F 30:31.8 9:51/M
1399 Prasad Shingne Ann Arbor MI 7098 26 M 30:32.3 9:51/M
1400 Kelly Walkovich Ypsilanti MI 7570 33 F 30:32.7 9:51/M
 
Place Name City Bib No Age Gender Total Time Pace
1401 Jeremiah Aigler Tiffin OH 3032 34 M 30:32.9 9:51/M
1402 Patrick Behm taylor MI 5211 27 M 30:33.0 9:51/M
1403 Jerry Wholihan Grosse Pointe MI 8492 43 M 30:33.1 9:51/M
1404 John Kim Ann Arbor MI 4768 44 M 30:33.4 9:51/M
1405 Joseph Lafata Macomb MI 838 32 M 30:33.6 9:51/M
1406 Tammy Odonahue 5772 40 F 30:33.7 9:51/M
1407 Nicole Smith Auburn Hills MI 5568 25 F 30:34.0 9:52/M
1408 Tiffany Parker Garden City MI 5510 35 F 30:34.1 9:52/M
1409 Katie Salisbury Belleville MI 6960 31 F 30:35.1 9:52/M
1410 Lyle Davis Frankenmuth MI 3766 25 M 30:36.8 9:52/M
1411 David Anderson Ypsilanti MI 3066 51 M 30:37.4 9:53/M
1412 Wesley Banning Sterling MI 7860 13 M 30:37.5 9:53/M
1413 Greg Leonard Dexter MI 8176 52 M 30:38.0 9:53/M
1414 Caitlin Roberts Fenton MI 6843 21 F 30:38.0 9:53/M
1415 Tammy Herring-Kittelberger Ann Arbor MI 4432 49 F 30:38.3 9:53/M
1416 Drew Pytel Woodhaven MI 6731 23 M 30:38.5 9:53/M
1417 Laura Kujawa Livonia MI 4865 32 F 30:38.6 9:53/M
1418 Charlene Jamula Wyandotte MI 5405 25 F 30:39.6 9:53/M
1419 Greg Cassin Bingham Farms MI 3526 27 M 30:40.0 9:54/M
1420 Tim Miller Redford MI 6310 33 M 30:40.1 9:54/M
1421 Joan Blackley Plymouth MI 7886 52 F 30:40.2 9:54/M
1422 David Stevens Ann Arbor MI 7289 19 M 30:40.3 9:54/M
1423 Christine Mulka Garden City MI 6393 27 F 30:40.5 9:54/M
1424 Samantha Sieler Monroe MI 5672 11 F 30:40.5 9:54/M
1425 Sawyer Northrop Chelsea MI 8957 9 M 30:41.0 9:54/M
1426 Denise Lagrace Farmington Hills MI 4886 28 F 30:41.8 9:54/M
1427 Travis Jewell Bingham Farms MI 4604 30 M 30:42.0 9:54/M
1428 Benjamin Tibbles Garden City MI 7425 32 M 30:42.0 9:54/M
1429 Linda Shaw Sylvania OH 7080 58 F 30:42.5 9:54/M
1430 Zach Campau Ann Arbor MI 3478 29 M 30:43.4 9:55/M
1431 Demita Pursell Ann Arbor MI 6726 0 F 30:43.6 9:55/M
1432 Tugba Adali Ann Arbor MI 3011 28 F 30:44.4 9:55/M
1433 Andrew Galczyk Trenton MI 5340 25 M 30:44.6 9:55/M
1434 Brian Lombardo Macomb MI 6038 44 M 30:44.8 9:55/M
1435 Kristi Dudas Adrian MI 3876 42 F 30:44.9 9:55/M
1436 Amin Lanseur Ypsilanti MI 4902 19 M 30:44.9 9:55/M
1437 Paul Charles Ann Arbor MI 3552 48 M 30:45.7 9:55/M
1438 Jeff Wagner Erie MI 7551 40 M 30:46.2 9:55/M
1439 steven dubicki royal oak MI 3871 45 M 30:46.3 9:55/M
1440 William Ross Clinton Township MI 6908 46 M 30:46.4 9:55/M
1441 Kurt Berger Dearborn MI 5216 39 M 30:47.1 9:56/M
1442 Gail Cook DeWitt MI 7950 54 F 30:47.1 9:56/M
1443 Pam Dahlmann Ann Arbor MI 3727 44 F 30:47.2 9:56/M
1444 Ken Vansparrentak Commerce Twsp MI 1518 47 M 30:47.4 9:56/M
1445 Paul Darling Ann Arbor MI 3747 49 M 30:47.4 9:56/M
1446 Ian Ross CLinton Township MI 6906 14 M 30:47.6 9:56/M
1447 Katherine Auger Ann Arbor MI 3121 33 F 30:48.3 9:56/M
1448 Kristina Walker Ann Arbor MI 8472 51 F 30:48.5 9:56/M
1449 Tye Wagner Erie MI 7557 9 M 30:48.8 9:56/M
1450 rebecca dubicki royal oak MI 3870 18 F 30:48.9 9:56/M
1451 Connor Millina Milan MI 8229 13 M 30:48.9 9:56/M
1452 avdo biogradlija 2566 26 M 30:49.0 9:56/M
1453 Chelsea Zenk Livonia MI 7808 ** F 30:49.4 9:56/M
1454 Eric Soto Chicago IL 7228 24 M 30:49.8 9:56/M
1455 Matthew Merritt Grand Blanc MI 6257 50 M 30:50.2 9:57/M
1456 Nicholas Reader Pittsford MI 6778 25 M 30:50.7 9:57/M
1457 Jonathon Willatt Ann Arbor MI 8498 50 M 30:50.9 9:57/M
1458 Kelly Berryman Oak Park MI 3269 37 F 30:51.3 9:57/M
1459 Adam Davis Williamston MI 3757 41 M 30:51.3 9:57/M
1460 Tracy Nolff Grand Blanc MI 6483 40 F 30:51.4 9:57/M
1461 Donovan Vitale Monroe MI 7531 10 M 30:52.3 9:57/M
1462 Matthew Olsen Michigan Center MI 6524 27 M 30:52.4 9:57/M
1463 Ayad Farjo Ann Arbor MI 3980 40 M 30:52.8 9:57/M
1464 Erica Briggs Ann Arbor MI 3370 35 F 30:53.8 9:58/M
1465 jennifer campau Lincoln Park MI 3477 37 F 30:54.4 9:58/M
1466 Jeff Kampsen Clawson MI 4680 30 M 30:54.4 9:58/M
1467 Edward Sohoza Allen Park MI 8397 56 M 30:54.6 9:58/M
1468 Aaron Bush Westland MI 3441 32 M 30:54.8 9:58/M
1469 chris barkoozis 5795 40 M 30:54.9 9:58/M
1470 Jamie Emmert Holly MI 3932 44 F 30:55.0 9:58/M
1471 Ashley Mo Ann Arbor MI 6335 19 F 30:55.2 9:58/M
1472 Chase Sieler Monroe MI 5671 14 M 30:55.3 9:58/M
1473 Sean Dunn Royal Oak MI 7991 43 M 30:55.7 9:58/M
1474 Katie Merritt Jackson MI 6256 28 F 30:55.8 9:58/M
1475 Kim Bonilla Dexter MI 7891 40 F 30:56.2 9:59/M
1476 Shannon Racine Chelsea MI 6740 33 F 30:56.2 9:59/M
1477 Laura Fisher Ann Arbor MI 4028 28 F 30:57.0 9:59/M
1478 Matthew Ferrari Shelby Township MI 3996 14 M 30:57.9 9:59/M
1479 Karley daniel ithaca MI 3739 27 F 30:58.1 9:59/M
1480 Sandy Brown Jackson MI 3399 45 F 30:58.2 9:59/M
1481 Corinne Fahlgren 5820 20 M 30:58.4 9:59/M
1482 Sheri Reck Ann Arbor MI 5008 36 F 30:58.4 9:59/M
1483 Peter Thai White Lake MI 7398 38 M 30:58.5 9:59/M
1484 Frank Levanduski Southfield MI 5430 33 F 30:58.7 9:59/M
1485 Rachel Siev Bad Axe MI 7116 42 F 30:58.9 9:59/M
1486 martin jalet 5887 10 M 30:59.3 10:00/M
1487 Dominic Sortor dexter MI 5090 7 M 30:59.6 10:00/M
1488 Connor Flynn Ann Arbor MI 4049 20 M 30:59.6 10:00/M
1489 patrick sortor Dexter MI 5093 39 M 30:59.7 10:00/M
1490 Chris Essenberg South Lyon MI 5314 0 M 31:00.0 10:00/M
1491 Michele Pendrick Woodhaven MI 8976 48 F 31:00.1 10:00/M
1492 Jennifer McCulloch Ypsilanti MI 6194 36 F 31:00.5 10:00/M
1493 Caroline Jacobini 5781 27 F 31:00.5 10:00/M
1494 Catherine Milford Nottawa MI 8224 15 F 31:00.8 10:00/M
1495 Daniel Hayes Milford MI 8782 53 M 31:00.9 10:00/M
1496 Mary Milford Nottawa MI 8225 18 F 31:01.6 10:00/M
1497 Claire Murphy Ann Arbor MI 8243 5 F 31:01.9 10:00/M
1498 Drew Herron Midland MI 4434 13 M 31:01.9 10:00/M
1499 Kimberly Shea Ypsilanti MI 7081 28 F 31:02.0 10:01/M
1500 Irma Brownley Traverse City MI 8605 46 F 31:02.1 10:01/M
 
Place Name City Bib No Age Gender Total Time Pace
1501 Nick Bryant Portage MI 5246 33 M 31:02.4 10:01/M
1502 Donald Coe Ypsilanti MI 8639 65 M 31:02.5 10:01/M
1503 Scott Bergeron Amherstburg ON 3261 36 M 31:02.6 10:01/M
1504 Krystal Samulak Ypsilanti MI 6966 28 F 31:02.9 10:01/M
1505 Ben Guidinger Ann Arbor MI 4287 38 M 31:03.0 10:01/M
1506 Doug LaCroix Ypsilanti MI 4881 55 M 31:03.4 10:01/M
1507 Lisa Johnson ann arbor MI 4621 50 F 31:03.9 10:01/M
1508 Elizabeth Warner Ann Arbor MI 7587 6 F 31:04.0 10:01/M
1509 James Sloan Ypsilanti MI 7170 32 M 31:04.1 10:01/M
1510 Angela Jacquemain Harrison Twp MI 4575 41 F 31:04.3 10:01/M
1511 Juliette Niemi Canton MI 6476 31 F 31:04.7 10:01/M
1512 Robert Barhite Chelsea MI 3171 49 M 31:04.8 10:01/M
1513 Anna Seitzer Ann Arbor MI 7059 23 F 31:05.1 10:02/M
1514 Dan Gamble Ann Arbor MI 4137 69 M 31:06.2 10:02/M
1515 Amy Locke Ann Arbor MI 6032 42 F 31:06.2 10:02/M
1516 Max Locke Ann Arbor MI 6033 8 M 31:06.4 10:02/M
1517 Joe Arozarena Ypsilanti MI 7851 52 M 31:06.5 10:02/M
1518 Ruth Benge Adrian MI 7876 42 F 31:07.0 10:02/M
1519 Jennifer Nelson Ypsilanti MI 8949 33 F 31:07.0 10:02/M
1520 Kristine Heck Ann Arbor MI 4398 31 F 31:07.2 10:02/M
1521 Michael Meinhold Ann Arbor MI 6245 26 M 31:07.3 10:02/M
1522 Jeremy Zahn Tecumseh MI 7795 31 M 31:07.7 10:02/M
1523 Justin Shi Herndon VA 8372 32 M 31:08.4 10:03/M
1524 John Clark Saline MI 3586 37 M 31:08.5 10:03/M
1525 Jack Perry Northville MI 6628 11 M 31:09.3 10:03/M
1526 Sara Zielinski Ann Arbor MI 7816 23 F 31:09.9 10:03/M
1527 Megan Stewart Wyandotte MI 5098 25 F 31:10.1 10:03/M
1528 Lupe Miranda Ann Arbor MI 6324 31 M 31:10.8 10:03/M
1529 Julie Zahn Tecumseh MI 7796 31 F 31:11.1 10:04/M
1530 Mary Torrice Chelsea MI 7445 30 F 31:11.2 10:04/M
1531 Ann Marie Macara Ann Arbor MI 6067 26 F 31:11.6 10:04/M
1532 Haleigh Seidell Davison MI 7055 15 F 31:13.0 10:04/M
1533 Megan Roberts 5914 30 F 31:13.6 10:04/M
1534 Jack Miller Northville MI 6300 16 M 31:13.6 10:04/M
1535 Samuel Gross Flushing MI 4273 11 M 31:14.0 10:05/M
1536 Ian Winslow Saline MI 7723 10 M 31:14.0 10:05/M
1537 Joe Taranto Lansing MI 7366 32 M 31:14.3 10:05/M
1538 Barclay Clarke Linden MI 5264 27 M 31:14.5 10:05/M
1539 Divya Agarwal Ann Arbor MI 3025 21 F 31:14.6 10:05/M
1540 Jeremy Northrop Chelsea MI 8956 12 M 31:14.8 10:05/M
1541 Michael Lukasak east china MI 5436 26 M 31:14.9 10:05/M
1542 wendy hassan grove city OH 8074 46 F 31:15.0 10:05/M
1543 Travis Young Byron MI 5176 16 M 31:15.4 10:05/M
1544 Stephanie Clarke Linden MI 5265 26 F 31:15.4 10:05/M
1545 PENELOPE GONZALES ROCHESTER HILLS MI 4206 32 F 31:15.6 10:05/M
1546 Larry Gurtowsky Ann Arbor MI 561 65 M 31:15.9 10:05/M
1547 Brendan Laurie Howell MI 4917 8 M 31:17.1 10:05/M
1548 Amanda Hayes Clinton Township MI 4388 19 F 31:17.1 10:05/M
1549 Ben Deininger Ann Arbor MI 3788 8 M 31:17.3 10:05/M
1550 Mary Anne Evans Ann Arbor MI 3961 34 F 31:17.6 10:05/M
1551 Sara Posner Ann Arbor MI 6690 20 F 31:17.8 10:05/M
1552 Roger Graves Battle Creek MI 4232 19 M 31:17.8 10:05/M
1553 Caleb Williams Ann Arbor MI 5156 11 M 31:17.9 10:05/M
1554 Elaine Nagel Ypsilanti MI 6425 35 F 31:18.4 10:06/M
1555 Jennie Walker Clio MI 2214 39 F 31:18.6 10:06/M
1556 ANN FRISINGER WHITMORE LAKE MI 4107 51 F 31:18.9 10:06/M
1557 Charlie Rosenfeld Ann Arbor MI 5027 6 M 31:19.0 10:06/M
1558 David Rosenfeld Ann Arbor MI 5028 47 M 31:19.0 10:06/M
1559 Ari Caliskan Canton MI 3468 39 M 31:19.0 10:06/M
1560 Kristen May Howell MI 6165 29 F 31:19.2 10:06/M
1561 Mary Samaniego 2213 46 F 31:19.2 10:06/M
1562 Madison Deininger Ann Arbor MI 3789 9 F 31:19.7 10:06/M
1563 Kelly Ciarkowski Ann Arbor MI 3574 41 F 31:20.8 10:06/M
1564 Sarah Miller Wyandotte MI 6305 23 F 31:21.0 10:07/M
1565 Travis Woodman Ypsilanti MI 7756 9 M 31:21.1 10:07/M
1566 Jim Bordeau LaSalle MI 7895 45 M 31:21.1 10:07/M
1567 Stephanie Prechter Ann Arbor MI 8999 31 F 31:21.1 10:07/M
1568 Josh Evans Clinton MI 8006 39 M 31:21.3 10:07/M
1569 Kathleen Gina Ann Arbor MI 4189 62 F 31:21.5 10:07/M
1570 Stephanie Kuo Walled Lake MI 4868 23 F 31:21.7 10:07/M
1571 Holly Fisher Holt MI 8719 34 F 31:22.1 10:07/M
1572 Andrew Morse Grand Rapids MI 6373 31 M 31:23.1 10:07/M
1573 Heather Woodman Ypsilanti MI 7755 38 F 31:24.0 10:08/M
1574 Brandy Wood Ann Arbor MI 7746 39 F 31:24.9 10:08/M
1575 Colleen Loughman Saline MI 8882 0 F 31:25.2 10:08/M
1576 Justin Williams Arlington Heights IL 7703 39 M 31:26.4 10:08/M
1577 Cindi Phillips Whitemore Lkae MI 6646 51 F 31:27.0 10:09/M
1578 Susan Aldrich Pinckney MI 15 50 F 31:27.2 10:09/M
1579 Will Koehler Ann Arbor MI 4810 23 M 31:27.9 10:09/M
1580 Max Sprauer Ann Arbor MI 7251 35 M 31:28.5 10:09/M
1581 Patti Coe-Worthington Ypsilanti MI 8641 55 F 31:29.0 10:09/M
1582 Bailey Fraker tecumseh MI 4085 8 F 31:29.4 10:09/M
1583 katie peterson Whitmore Lake MI 8292 22 F 31:29.6 10:09/M
1584 Cristy Krupp New Lothrop MI 4853 39 F 31:29.9 10:09/M
1585 Joshua Bonilla Dexter MI 7890 40 M 31:29.9 10:09/M
1586 Craig Liggett Ypsilanti MI 5000 45 M 31:29.9 10:09/M
1587 Jordan Cooper Lake Odessa MI 3647 0 M 31:30.5 10:10/M
1588 Aleassa Schambers Ottawa Hills OH 7002 40 F 31:30.5 10:10/M
1589 Sandra Weglarz Macomb MI 5140 45 F 31:30.8 10:10/M
1590 John Bernat Ann Arbor MI 7879 33 M 31:31.1 10:10/M
1591 Elizabeth Fraker tecumseh MI 4086 37 F 31:32.2 10:10/M
1592 Andy Bell Dexter MI 3237 38 M 31:32.5 10:10/M
1593 Jeffrey Williams Ann Arbor MI 7701 48 M 31:32.7 10:10/M
1594 Kalli Barrone Lake Odessa MI 3189 19 F 31:32.7 10:10/M
1595 Michelle Donovan Riverview MI 5295 23 F 31:32.9 10:10/M
1596 Karly Hillman Saginaw MI 4466 26 F 31:33.0 10:11/M
1597 Steve Epley Canton MI 8705 31 M 31:33.2 10:11/M
1598 Matt Krysiak Mason MI 4860 34 M 31:33.4 10:11/M
1599 John Rose Canton MI 8330 41 M 31:34.1 10:11/M
1600 Catherine Walker Ann Arbor MI 7561 27 F 31:34.5 10:11/M
 
Place Name City Bib No Age Gender Total Time Pace
1601 Anna Epley Canton MI 8704 30 F 31:34.7 10:11/M
1602 Justin Ventura Canton MI 7520 36 M 31:34.7 10:11/M
1603 Geoffrey Clarke Dearborn Heights MI 7939 38 M 31:34.7 10:11/M
1604 Kish Patchava Ypsilanti MI 6583 44 M 31:35.5 10:11/M
1605 Bryant Bradley Cement City MI 8592 19 M 31:35.8 10:11/M
1606 Scott Hansen Jenison MI 4342 33 M 31:35.9 10:11/M
1607 Reva Berman Ann Arbor MI 3267 23 F 31:36.2 10:12/M
1608 Sarah Miller Pinckney MI 6306 34 F 31:36.4 10:12/M
1609 Katharina Conlan Ann Arbor MI 8648 34 F 31:36.7 10:12/M
1610 Kirsten Henshaw Burr Ridge IL 8788 0 F 31:36.8 10:12/M
1611 Jenni Heidrich Ann Arbor MI 4402 37 F 31:36.9 10:12/M
1612 Stefano Zanger Blissfield MI 7797 35 M 31:37.2 10:12/M
1613 Kelsey Nolan Ann Arbor MI 6482 0 F 31:38.1 10:12/M
1614 Misty Angle Allegan MI 3082 46 F 31:38.4 10:12/M
1615 Kevin Kaye Troy MI 745 29 M 31:38.6 10:12/M
1616 Jeffrey Rupe Dearborn Heights MI 6939 35 M 31:38.7 10:12/M
1617 Jordyn McCaslin Northville MI 6185 11 F 31:38.9 10:12/M
1618 Eileen Hoban Ann Arbor MI 4476 17 F 31:39.0 10:13/M
1619 pat bastien pleasant lake MI 3201 54 F 31:39.0 10:13/M
1620 Christal Wierenga Walled Lake MI 5612 30 F 31:39.3 10:13/M
1621 Janis Kong Livonia MI 4820 41 F 31:39.7 10:13/M
1622 Ryan Abraham Allegan MI 3004 40 M 31:39.9 10:13/M
1623 Kathy Harris Westland MI 4364 23 F 31:40.0 10:13/M
1624 Eric Steinhauer Ann Arbor MI 7282 12 M 31:40.1 10:13/M
1625 Brian Ardanowski Ann Arbor MI 3096 26 M 31:40.3 10:13/M
1626 Jason Wilkerson Milan MI 8494 38 M 31:40.4 10:13/M
1627 Melinda Robison Allendale MI 5544 35 F 31:40.6 10:13/M
1628 Anne Steinhauer Ann Arbor MI 7281 44 F 31:40.8 10:13/M
1629 Amy Fry Ann Arbor MI 4114 26 F 31:40.9 10:13/M
1630 Matt Steinhauer Ann Arbor MI 7283 42 M 31:41.0 10:13/M
1631 Sabrina Egeler Jackson MI 5302 33 F 31:41.2 10:13/M
1632 Sheri McLelland Gregory MI 6226 45 F 31:41.2 10:13/M
1633 Sarah Boggio Highland MI 3309 31 F 31:41.8 10:13/M
1634 kathy peal chelsea MI 8285 43 F 31:42.4 10:14/M
1635 Matthew Lawson Ann Arbor MI 4932 26 M 31:42.5 10:14/M
1636 James Sedlar Flushing MI 7052 30 M 31:42.6 10:14/M
1637 steve debruler ann arbor MI 3781 39 M 31:43.3 10:14/M
1638 Jill Fassett Brooklyn MI 5321 31 F 31:43.6 10:14/M
1639 Mia Steinhauer Ann Arbor MI 7284 8 F 31:44.0 10:14/M
1640 Ruiqi Chen Novi MI 3558 18 M 31:44.1 10:14/M
1641 Laurie Zyczynski Ann Arbor MI 7834 36 F 31:44.3 10:14/M
1642 Kelly Lawson Ann Arbor MI 4930 27 F 31:44.3 10:14/M
1643 Susan Lewis Ann Arbor MI 8179 57 F 31:44.4 10:14/M
1644 Jessica Fairchild New Hudson MI 5832 25 F 31:45.4 10:15/M
1645 Cathy Sigler Ann Arbor MI 7117 57 F 31:45.6 10:15/M
1646 Sean McGinty Pinckney MI 6209 41 M 31:45.8 10:15/M
1647 Jacqueline Dusseau Temperance MI 7992 26 F 31:46.0 10:15/M
1648 Carlie Brandt Austin TX 5235 39 F 31:46.2 10:15/M
1649 heather Gundry Fenton MI 8765 44 F 31:46.3 10:15/M
1650 Julie Prince Chelsea MI 6713 55 F 31:46.4 10:15/M
1651 Kevin Barkume Canton MI 3177 50 M 31:47.1 10:15/M
1652 Aaron Riess Battle Creek MI 6827 18 M 31:47.3 10:15/M
1653 Ken Pieh Tecumseh MI 6651 59 M 31:47.8 10:15/M
1654 Christina Parrish New Hudson MI 6576 25 F 31:47.8 10:15/M
1655 Kevin OShaughnessy Novi MI 6548 55 M 31:48.0 10:15/M
1656 Adriana Dantzler Ann Arbor MI 5283 35 F 31:48.2 10:15/M
1657 Elsa Weber Ann Arbor MI 8482 1 F 31:48.3 10:15/M
1658 Owen Gross Flushing MI 4272 9 M 31:48.6 10:15/M
1659 Hallie Barkume Canton MI 3176 16 F 31:48.9 10:15/M
1660 Connie Riess Battle Creek MI 6828 50 F 31:49.0 10:16/M
1661 Carmel O'Shannessy Ann Arbor MI 6547 51 F 31:49.1 10:16/M
1662 Tanner Sowa Muskegon MI 7233 17 M 31:49.3 10:16/M
1663 crystal curtis 2522 33 F 31:49.4 10:16/M
1664 Lawson Sowa Muskegon MI 7232 13 M 31:49.4 10:16/M
1665 jack mylan Kimball MI 2529 38 M 31:49.6 10:16/M
1666 Amy DeKeyser Adrian MI 8670 31 F 31:49.9 10:16/M
1667 Yasuhiro Fujii Ann Arbor MI 8028 40 M 31:50.0 10:16/M
1668 Jaclyn Spalding Westland MI 7236 24 F 31:50.4 10:16/M
1669 Nicole Hincka Ypsilanti MI 8087 2 F 31:50.5 10:16/M
1670 Paul F Martin Flushing MI 6139 0 M 31:50.6 10:16/M
1671 Drake Frederick Grass Lake MI 4092 11 M 31:50.7 10:16/M
1672 Jeremy Sowa Muskegon MI 7230 25 M 31:51.2 10:16/M
1673 Kayla Nelson Ann Arbor MI 6446 23 F 31:51.3 10:16/M
1674 Jacob Meteer Orion MI 6267 11 M 31:51.5 10:16/M
1675 Masato Ishida Ann Arbor MI 8111 33 M 31:51.7 10:16/M
1676 Gary Meteer orion MI 6266 37 M 31:51.8 10:16/M
1677 Scott Phillips Flushing MI 6648 54 M 31:52.2 10:17/M
1678 Susan Surateaux Grand Ledge MI 8420 61 F 31:52.5 10:17/M
1679 Bruce Meggison Ann Arbor MI 6242 33 M 31:52.6 10:17/M
1680 sheri cataldo w. bloomfield MI 3532 50 F 31:53.2 10:17/M
1681 yoshiyuki kawamura Ann Arbor MI 8132 35 M 31:53.3 10:17/M
1682 Eileen Clark China Twp,. MI 3583 50 F 31:53.5 10:17/M
1683 Jennifer Frederick Grass Lake MI 4093 41 F 31:53.9 10:17/M
1684 Jeanette Brooks Dexter MI 8603 42 F 31:53.9 10:17/M
1685 Mark McPherson Riga MI 6235 32 M 31:54.0 10:17/M
1686 michael cataldo w. bloomfield MI 3531 20 M 31:54.1 10:17/M
1687 Catherine Gardner 5872 51 F 31:54.1 10:17/M
1688 Troy Ballard Luna Pier MI 5202 32 M 31:54.6 10:17/M
1689 Jenelle Milletti Holland OH 8228 26 F 31:54.6 10:17/M
1690 Sue Ballard Luna Pier MI 5201 30 F 31:55.1 10:18/M
1691 Maggie Kaercher Dexter MI 4666 14 F 31:55.7 10:18/M
1692 Lance Sowa Muskegon MI 7231 53 M 31:55.9 10:18/M
1693 Elyssa Bisoski Madison Heights MI 3289 24 F 31:55.9 10:18/M
1694 Meghan Horal Brighton MI 4514 14 F 31:56.2 10:18/M
1695 Shannon Lemmer Ypsilanti MI 5428 18 F 31:56.4 10:18/M
1696 Patrick Ingram Ann Arbor MI 4556 24 M 31:56.4 10:18/M
1697 Lauren Carroll Novi MI 3513 16 F 31:57.1 10:18/M
1698 Douglas Harris Saline MI 8776 52 M 31:57.3 10:18/M
1699 Ron Schutter Hamilton MI 7035 58 M 31:57.6 10:18/M
1700 Michelle Vogt Ypsilanti MI 7540 36 F 31:57.9 10:18/M
 
Place Name City Bib No Age Gender Total Time Pace
1701 Mike Barton Novi MI 3195 55 M 31:58.1 10:19/M
1702 Lillian DeBacker Ann Arbor MI 3778 44 F 31:58.5 10:19/M
1703 Janis Ortiz Jackson MI 6538 35 F 31:59.1 10:19/M
1704 Jason Fritz Royal oak MI 4111 39 M 31:59.3 10:19/M
1705 Nicole Lafata Macomb MI 4884 35 F 31:59.4 10:19/M
1706 Chris Hesson Ypsilanti MI 4440 40 M 31:59.7 10:19/M
1707 David Belmonte Ann Arbor MI 8572 42 M 31:59.7 10:19/M
1708 Gina Nowak Tecumseh MI 6490 41 F 32:00.0 10:19/M
1709 Barbara Modetz Northville MI 8236 0 F 32:00.2 10:19/M
1710 Susan Aaronson Ann Arbor MI 3002 47 F 32:00.3 10:19/M
1711 Anthony Block-Belmonte Ann Arbor MI 8586 43 M 32:00.3 10:19/M
1712 Ruth Kowalk Ann arbor MI 4833 37 F 32:00.4 10:19/M
1713 Georg Schulte 2542 0 M 32:00.6 10:19/M
1714 katelin milne south lyon MI 6319 22 F 32:00.7 10:19/M
1715 Ron Lippitt Commerce Township MI 8872 45 M 32:01.3 10:20/M
1716 Colin Bradley Mason MI 7899 11 M 32:01.5 10:20/M
1717 Amanda Schneider Ypsilanti MI 7018 23 F 32:01.7 10:20/M
1718 Daniel Velez Ypsilanti MI 5130 48 M 32:01.7 10:20/M
1719 Adrian Esquivel Chicago IL 3950 30 M 32:01.8 10:20/M
1720 Kimberly Haner Dexter MI 4334 31 F 32:01.9 10:20/M
1721 Mike Bourdo Alto MI 7897 51 M 32:02.1 10:20/M
1722 Brittany Batte Ann Arbor MI 3204 23 F 32:02.9 10:20/M
1723 Jennifer Osworth Tecumseh MI 8271 40 F 32:03.3 10:20/M
1724 Rocky Nichols Canton MI 8250 33 M 32:03.5 10:20/M
1725 Robert Hatcher South Lyon MI 4377 37 M 32:03.5 10:20/M
1726 Guanfen Xu Westland MI 7780 55 F 32:04.1 10:21/M
1727 Paul Steigerwald Ypsilanti MI 7278 39 M 32:04.3 10:21/M
1728 Liwei Hua Brighton MI 4530 36 F 32:04.4 10:21/M
1729 Monica Reynolds Canton MI 6807 46 F 32:04.9 10:21/M
1730 Madeline Bacolor Ann Arbor MI 3141 13 F 32:05.0 10:21/M
1731 Kathryn Gross Flushing MI 4271 39 F 32:05.1 10:21/M
1732 Ben Hazzard Port Lambton ON 602 35 M 32:05.7 10:21/M
1733 Robert Quick Saline MI 6733 54 M 32:05.7 10:21/M
1734 Alek Murphy Newport MI 6403 14 M 32:05.8 10:21/M
1735 asha gowda 2212 21 F 32:05.8 10:21/M
1736 Susan Widmann Fox Point WI 7673 50 F 32:06.0 10:21/M
1737 John Miller Grand Haven MI 8930 0 M 32:06.2 10:21/M
1738 Jane Ozanich Ypsilanti MI 6560 46 F 32:06.4 10:21/M
1739 Jenna Bacolor Ann Arbor MI 3140 41 F 32:06.9 10:21/M
1740 Anna Lichtman Ann Arbor MI 4992 22 F 32:07.3 10:22/M
1741 Craig Dolven Clarkston MI 3835 51 M 32:07.6 10:22/M
1742 Ryan Stanton 5912 29 M 32:07.7 10:22/M
1743 Celina Stampe Dexter MI 7263 17 F 32:08.0 10:22/M
1744 Cathy Koebke Bay City MI 8835 36 F 32:08.6 10:22/M
1745 Rachel Winkworth Ann Arbor MI 7722 20 F 32:08.8 10:22/M
1746 Andrew Killion Westland MI 4763 30 M 32:09.2 10:22/M
1747 Jette Greca Dexter MI 4234 40 F 32:09.2 10:22/M
1748 Bryan Johnston Pinckney MI 4630 39 M 32:09.4 10:22/M
1749 Anne Garcia Ann Arbor MI 8032 57 F 32:10.0 10:23/M
1750 Beth Eiler Williamston MI 3911 36 F 32:11.2 10:23/M
1751 James Raftery Farmington Hills MI 6748 56 M 32:11.4 10:23/M
1752 Thomas Kohl Caledonia MI 4814 55 M 32:12.3 10:23/M
1753 Holly Harnica Dundee MI 4353 15 F 32:12.5 10:23/M
1754 Nicole Schingeck hartland MI 7011 38 F 32:12.5 10:23/M
1755 Marianne Curtis Brighton MI 5280 1 F 32:12.5 10:23/M
1756 Matthew Greca Dexter MI 4235 42 M 32:13.1 10:24/M
1757 Rhonda Fink Petoskey MI 4016 52 F 32:13.5 10:24/M
1758 Laura Holladay Ann Arbor MI 4498 33 F 32:13.6 10:24/M
1759 Enid Rosario Ann Arbor MI 8329 29 F 32:13.8 10:24/M
1760 Jody Heath Dexter MI 8076 44 F 32:14.0 10:24/M
1761 Maryann Harnica Dundee MI 4354 49 M 32:14.2 10:24/M
1762 Michael Solomon Ann Arbor MI 7218 42 M 32:14.2 10:24/M
1763 Allison Harrison lansing MI 4366 25 F 32:14.5 10:24/M
1764 Zoe Solomon Ann Arbor MI 7219 9 F 32:14.6 10:24/M
1765 Jon Curtis Brighton MI 5279 2 M 32:14.7 10:24/M
1766 Heather Willard Pinckney MI 7695 36 F 32:15.0 10:24/M
1767 Jens Kober Plymouth MI 4807 41 M 32:15.1 10:24/M
1768 Matthew Reader Jackson MI 6777 27 M 32:15.2 10:24/M
1769 Dawn Liebert Milan MI 4997 44 F 32:15.6 10:24/M
1770 David Brauer Detroit MI 7900 46 M 32:15.6 10:24/M
1771 Erin Cooper Grand Blanc MI 3646 18 F 32:16.1 10:25/M
1772 Mary Robey Jackson MI 6857 24 F 32:16.2 10:25/M
1773 Charlotte Jackson Rochester MI 4564 0 F 32:16.5 10:25/M
1774 Clare McKenna Ann Arbor MI 8913 25 F 32:16.6 10:25/M
1775 Sandra VanSparrentak Commerce Twsp MI 1519 49 F 32:17.1 10:25/M
1776 Daniel Becker Garfield Hieghts OH 7871 46 M 32:17.4 10:25/M
1777 Elizabeth Brauer Detroit MI 7901 0 F 32:17.6 10:25/M
1778 CATHERINE QUINNAN Saint Charles MI 6735 32 F 32:17.9 10:25/M
1779 Ken Christensen Ann Arbor MI 3569 46 M 32:18.2 10:25/M
1780 Bailey Rice Dearborn Heights MI 8321 19 F 32:18.2 10:25/M
1781 Sarah Burkey Saginaw MI 3431 25 F 32:18.4 10:25/M
1782 Debbie Simpkins Howell MI 7132 59 F 32:18.5 10:25/M
1783 Henry McCoy Ann Arbor MI 8206 12 M 32:18.7 10:25/M
1784 Ashley Adamkowski Ann Arbor MI 5183 25 F 32:18.9 10:25/M
1785 Nancy Spleet Saint Charles MI 7247 37 F 32:18.9 10:25/M
1786 Sarah Tremont Ann Arbor MI 8452 26 F 32:19.3 10:25/M
1787 Kathryn Huss Portage MI 8804 26 F 32:19.4 10:25/M
1788 Walter Rice Dearborn Heights MI 8323 52 M 32:19.5 10:25/M
1789 Sarah Rockol Garden City MI 6871 0 F 32:19.8 10:25/M
1790 Cory Sharrow Haslett MI 7078 22 M 32:19.8 10:25/M
1791 Nancy Rupe Canton MI 6940 63 F 32:20.0 10:26/M
1792 Taryn Cordero Whitmore Lake MI 5272 0 F 32:20.1 10:26/M
1793 Joanna Elliott Ypsilanti MI 3921 31 F 32:20.3 10:26/M
1794 Mark Shulaw Hartford MI 7104 30 M 32:20.6 10:26/M
1795 Kevin Korach Dexter MI 8840 40 M 32:20.6 10:26/M
1796 Kevin Sorah Shelby Township MI 5085 24 M 32:21.5 10:26/M
1797 Debapriya Chatterjee Ann Arbor MI 7931 26 M 32:21.5 10:26/M
1798 Jessica Tomlinson Dearborn Heights MI 8447 28 F 32:21.6 10:26/M
1799 Mallory Lawrenchuk Ann Arbor MI 4926 27 F 32:21.9 10:26/M
1800 Patricia Herndon Milford MI 4425 41 F 32:22.1 10:26/M
 
Place Name City Bib No Age Gender Total Time Pace
1801 Melissa Rice Dearborn Heights MI 8324 18 F 32:22.2 10:26/M
1802 Lynn Hartman St. Clair Shores MI 4372 15 F 32:22.2 10:26/M
1803 Jim Behm Ann Arbor MI 3232 52 M 32:22.5 10:26/M
1804 Brett Mahaffey Willis MI 8187 27 M 32:23.5 10:27/M
1805 Kristy Terech Milan MI 7388 43 F 32:23.7 10:27/M
1806 Frankie Fultz Shelby Township MI 8734 22 F 32:24.0 10:27/M
1807 Yang Su Ann Arbor MI 8417 22 F 32:24.4 10:27/M
1808 Jim Krebs Canton MI 8162 48 M 32:25.7 10:27/M
1809 Michelle Lynch Attica MI 6061 23 F 32:25.9 10:27/M
1810 Carie Woodall Livonia MI 7752 39 F 32:26.3 10:28/M
1811 Bridget Scoville Ann Arbor MI 7041 26 F 32:26.4 10:28/M
1812 Karen Shaw Westland MI 7079 37 F 32:26.4 10:28/M
1813 Stephanie Nunez Ann Arbor MI 8257 26 F 32:26.4 10:28/M
1814 Jeff Pursell Ann Arbor MI 6727 0 M 32:26.6 10:28/M
1815 Heather Johnstone Plymouth MI 4639 36 F 32:27.1 10:28/M
1816 Aaron Morey Ypsilanti MI 6362 26 M 32:27.5 10:28/M
1817 Alex Gilbert Dexter MI 8744 7 M 32:27.6 10:28/M
1818 Forrest Karnopp Ypsilanti MI 4691 17 M 32:27.9 10:28/M
1819 Claudia Wood Ann Arbor MI 5171 12 F 32:27.9 10:28/M
1820 Hollie Kicinski Shelby Township MI 4751 19 F 32:28.0 10:28/M
1821 Megan Belken ann arbor MI 8570 27 F 32:28.2 10:28/M
1822 Anne Lewis Brighton MI 4984 48 F 32:28.8 10:28/M
1823 Brian Armstrong Ann Arbor MI 3099 41 M 32:28.9 10:28/M
1824 Bryan Kowalk Ann arbor MI 4832 39 M 32:28.9 10:28/M
1825 Amy Miles Fenton MI 6294 45 F 32:29.0 10:29/M
1826 Daniel Maser Ann Arbor MI 8200 22 M 32:29.5 10:29/M
1827 Diane Klann Canton MI 4788 46 F 32:29.8 10:29/M
1828 Josh Skipinski Attica MI 7154 23 M 32:30.0 10:29/M
1829 Lily Willatt Ann Arbor MI 8500 0 F 32:31.0 10:29/M
1830 Ben Gloger Ann Arbor MI 4198 20 M 32:31.1 10:29/M
1831 Blake Bustard Norton Shores MI 3454 10 M 32:31.3 10:29/M
1832 Irene Heinz Ypsilanti MI 4406 59 F 32:31.6 10:29/M
1833 Catherine Pfander South Lyon MI 6642 28 F 32:31.7 10:29/M
1834 Christopher Hoban Ann Arbor MI 4475 14 M 32:31.8 10:29/M
1835 Ellen Epstein Park City UT 3939 50 F 32:31.8 10:29/M
1836 Stephanie Hesson Ypsilanti MI 4441 34 F 32:32.4 10:30/M
1837 Tim Wise Jr Lansing MI 7732 32 M 32:32.4 10:30/M
1838 Breanna Miller Ann Arbor MI 5468 23 F 32:32.5 10:30/M
1839 Heather Gossman Palmyra MI 4222 19 F 32:32.6 10:30/M
1840 Rachel Pacernick Ann Arbor MI 8967 11 F 32:33.2 10:30/M
1841 Rebecca Miller Ann Arbor MI 6304 29 F 32:33.6 10:30/M
1842 Kevin Hamilton Defiance OH 4324 51 M 32:34.1 10:30/M
1843 Julie Alef Ypsilanti MI 5191 27 F 32:34.4 10:30/M
1844 melissa van wyk 2549 25 F 32:34.4 10:30/M
1845 Caden Woodall Livonia MI 7751 9 M 32:34.7 10:30/M
1846 Megan Bach Ypsilanti MI 3131 34 F 32:34.8 10:30/M
1847 Samantha Estepp Howell MI 8005 19 F 32:34.9 10:30/M
1848 Susanna Matulevich Ypsilanti MI 8897 43 F 32:35.1 10:31/M
1849 Josh McManus Howell MI 8211 19 M 32:35.1 10:31/M
1850 Amber Wise Lansing MI 7728 30 F 32:35.5 10:31/M
1851 Amanda Heichel Troy MI 8081 28 F 32:35.7 10:31/M
1852 Ryan Franks Westland MI 5335 31 M 32:35.7 10:31/M
1853 Peter Cook DeWitt MI 7951 55 M 32:35.9 10:31/M
1854 Sean Bustarn 5928 43 M 32:35.9 10:31/M
1855 Levon Mesropyan Ann Arbor MI 8220 0 M 32:36.0 10:31/M
1856 Sam Madorsky Birmingham MI 8186 28 M 32:36.1 10:31/M
1857 SangYoon Lee Chicago IL 4949 30 M 32:36.3 10:31/M
1858 Peter Zimmer Chicago IL 7819 36 M 32:36.4 10:31/M
1859 Juan Lucero Belleville MI 6050 54 M 32:36.8 10:31/M
1860 Mark Jenkins Livonia MI 4599 35 M 32:36.9 10:31/M
1861 Angela Endicott Dexter MI 8003 36 F 32:37.0 10:31/M
1862 Jim Huynh Capitol Heights MD 679 32 M 32:37.0 10:31/M
1863 Mirsad Biogradlija Clinton Township MI 5219 23 M 32:37.4 10:31/M
1864 Holly Sabbadini Monroe MI 6953 35 F 32:37.4 10:31/M
1865 Janet Mendez Mason MI 8218 38 F 32:37.5 10:31/M
1866 Danielle Roesch Adrian MI 6880 21 F 32:38.4 10:32/M
1867 Matthew Bouse Ann Arbor MI 8590 22 M 32:39.0 10:32/M
1868 Vitaly Peker Ann Arbor MI 6610 26 M 32:39.0 10:32/M
1869 Melissa Kandah Canton MI 8820 40 F 32:39.0 10:32/M
1870 Marie Marcelino ann arbor MI 6110 27 F 32:39.2 10:32/M
1871 Steve Ott Ann Arbor MI 8963 62 M 32:39.3 10:32/M
1872 Kendra Jaynes Ann Arbor MI 4593 24 F 32:39.5 10:32/M
1873 Kate Zimmer Chicago IL 7818 37 F 32:40.2 10:32/M
1874 Alan Vlad 5909 52 M 32:40.2 10:32/M
1875 Mary Caye Spieth Ann Arbor MI 7243 49 F 32:40.7 10:32/M
1876 Jeffrey Montgomery Ann Arbor MI 6346 38 M 32:41.3 10:33/M
1877 Anthony Grose Allen Park MI 4266 26 M 32:41.9 10:33/M
1878 Ann Ridge Clarkston MI 5540 47 F 32:42.3 10:33/M
1879 Jody Burton Dexter MI 8613 44 F 32:43.3 10:33/M
1880 Tina Mysierowicz Canton MI 6422 32 F 32:43.5 10:33/M
1881 Caitlin Grose Allen Park MI 550 25 F 32:43.6 10:33/M
1882 Brian Noble Ann Arbor MI 8955 43 M 32:43.9 10:33/M
1883 Jamieson Slaughter Farmington MI 7161 13 M 32:43.9 10:33/M
1884 Emily Schumaker Belleville MI 7030 27 F 32:44.1 10:34/M
1885 Dennis Ebbitt Westland MI 3902 35 M 32:44.2 10:34/M
1886 Candace Blandford Ann Arbor MI 3297 20 F 32:44.2 10:34/M
1887 Kevin Leonard Canton MI 4969 45 M 32:44.5 10:34/M
1888 Rachel Antone Bloomfield MI 3088 35 F 32:44.9 10:34/M
1889 Mary Oerline Ann Arbor MI 6511 40 F 32:45.2 10:34/M
1890 Emily Carpenter Ann Arbor MI 3505 20 F 32:45.3 10:34/M
1891 Jodi Carlson Holland MI 3501 37 F 32:45.7 10:34/M
1892 MARY JANE LIU DEXTER MI 6028 51 F 32:47.0 10:35/M
1893 Jennifer Hammon South Lyon MI 8065 0 F 32:48.0 10:35/M
1894 Jacob Bartuszevige Sanford MI 3200 30 M 32:48.7 10:35/M
1895 Karey Moore Commerce Twp MI 6358 31 F 32:48.9 10:35/M
1896 Stacey Pilarz Ypsilanti MI 8991 33 F 32:49.9 10:35/M
1897 Erin Osborne Belleville MI 6544 18 F 32:50.4 10:35/M
1898 Marcie Paul West Bloomfield MI 6592 54 F 32:51.0 10:36/M
1899 Brittany Sandefur Ann Arbor MI 6969 26 F 32:51.1 10:36/M
1900 billy dean gras lake MI 3775 49 M 32:51.5 10:36/M
 
Place Name City Bib No Age Gender Total Time Pace
1901 Anessa Varney Brooklyn MI 7515 40 F 32:51.5 10:36/M
1902 Rhonda Nall Jackson MI 5482 47 F 32:51.6 10:36/M
1903 Kenneth Gipfert Brooklyn MI 4193 44 M 32:52.3 10:36/M
1904 LaShon Wright Southfield MI 7772 41 F 32:52.6 10:36/M
1905 Gloria Hage Northville MI 4304 50 F 32:53.0 10:36/M
1906 clay briegol 2537 40 M 32:53.1 10:36/M
1907 Miyako Foley Canton MI 4059 48 F 32:53.1 10:36/M
1908 Brian Wietfeld Canton MI 7681 39 M 32:53.7 10:36/M
1909 Katie Larin Ann Arbor MI 5424 18 F 32:53.8 10:36/M
1910 Dan Patterson clarkston MI 6591 50 M 32:53.9 10:36/M
1911 Amanda Nichols Coldwater MI 8951 29 F 32:54.2 10:37/M
1912 Susan Nicholson Troy MI 6472 28 F 32:55.0 10:37/M
1913 Eric Lionquist Ypsilanti MI 6015 40 M 32:55.4 10:37/M
1914 Tim Parker Saline MI 2528 47 M 32:55.6 10:37/M
1915 Megan Lee 5728 37 F 32:55.9 10:37/M
1916 Patrick Phair 5692 43 M 32:56.1 10:37/M
1917 Jessica Shelton Romulus MI 5062 25 F 32:56.2 10:37/M
1918 Bas Phair 5693 12 M 32:56.2 10:37/M
1919 Tamara Tanner Ann Arbor MI 7364 43 F 32:56.9 10:37/M
1920 Austin Raubuch Ypsilanti MI 8313 13 M 32:57.1 10:38/M
1921 Matt Carlson Holland MI 3502 44 M 32:57.4 10:38/M
1922 Bethany Lechtanski Ypsilanti MI 4940 27 F 32:57.8 10:38/M
1923 Kimberly Giovannini Wolverine Lake MI 4192 28 F 32:57.9 10:38/M
1924 Travis Kruse Morenci MI 4856 31 M 32:57.9 10:38/M
1925 Cyndi Bartuszevige Sanford MI 3199 29 F 32:58.0 10:38/M
1926 Rich Yabs Ann Arbor MI 8520 47 M 32:58.8 10:38/M
1927 Nicole Mammo Farmington Hills MI 6095 27 F 33:00.4 10:39/M
1928 Stephanie Salvatore Manalapan NJ 6962 25 F 33:01.4 10:39/M
1929 Michael Zimmer Royal Oak MI 8534 31 M 33:01.9 10:39/M
1930 Marcia Smith Milford MI 5635 50 F 33:02.5 10:39/M
1931 Heather Stormont Jackson MI 5101 0 F 33:04.9 10:40/M
1932 Michael Lawrenchuk Ann Arbor MI 4927 28 M 33:05.0 10:40/M
1933 Christina Zimmer Royal Oak MI 8533 29 F 33:05.2 10:40/M
1934 Fletcher Howell Farmington Hills MI 8100 12 M 33:05.9 10:40/M
1935 Tonya Wozny Brooklyn MI 7764 38 F 33:06.2 10:41/M
1936 Marlenn Studer 5833 51 F 33:07.1 10:41/M
1937 Sarah Chittle ANN ARBOR MI 8634 9 F 33:07.9 10:41/M
1938 Brian Stormont Jackson MI 5100 35 M 33:08.0 10:41/M
1939 Brendan Cropsey Ann Arbor MI 3702 10 M 33:08.2 10:41/M
1940 Kathleen Koviak Ann Arbor MI 4831 20 F 33:08.4 10:41/M
1941 Matthew Chittle ANN ARBOR MI 8633 42 M 33:08.7 10:41/M
1942 Laura Holtz Livonia MI 4502 54 F 33:08.9 10:41/M
1943 Tatiana Anthony Ann Arbor MI 7848 34 F 33:09.1 10:42/M
1944 Jeff Gervasio Wyoming MI 4173 30 M 33:09.3 10:42/M
1945 Joshua Tran West Bloomfield MI 7446 9 M 33:09.7 10:42/M
1946 John Botica Ypsilanti MI 3331 40 M 33:10.2 10:42/M
1947 David MacArthur Canton MI 8184 39 M 33:10.4 10:42/M
1948 Joe Trulik Ann Arbor MI 5600 50 M 33:10.7 10:42/M
1949 Lindsay Colyer Rochester Hills MI 3623 24 F 33:11.4 10:42/M
1950 Gabrielle Young Orchard Lake MI 8524 16 F 33:11.5 10:42/M
1951 Peter Overgaard Ypsilanti MI 6557 9 M 33:11.7 10:42/M
1952 Christie Overgaard Ypsilanti MI 6556 40 F 33:12.2 10:43/M
1953 BRIAN BARTSCH FLATROCK MI 3198 34 M 33:12.6 10:43/M
1954 Brandi Spring Dexter MI 7255 26 F 33:12.6 10:43/M
1955 Tina Klinesmith Vassar MI 4799 34 F 33:12.7 10:43/M
1956 Tammy Keyes Ida MI 4749 50 F 33:12.9 10:43/M
1957 Sydney Jose Lake Isabella MI 5409 14 F 33:13.2 10:43/M
1958 Jessica Ellis Milan MI 3922 26 F 33:13.3 10:43/M
1959 Mackenzie Simon Westphalia MI 8380 22 F 33:13.7 10:43/M
1960 Stephen Harrington Canton MI 4357 31 M 33:14.4 10:43/M
1961 Chris Benford Canton MI 3249 39 M 33:15.1 10:44/M
1962 Susan Agnew Ann Arbor MI 10 51 F 33:15.5 10:44/M
1963 Gretchen Harrington Canton MI 4356 31 F 33:15.5 10:44/M
1964 Khalila King Ann Arbor MI 4777 30 F 33:17.0 10:44/M
1965 sheila Hoeft Dexter MI 4487 0 F 33:18.3 10:45/M
1966 Justine Klimowicz Brownstown MI 4797 35 F 33:18.8 10:45/M
1967 Riki Cujar Michigan Center MI 3713 30 F 33:19.1 10:45/M
1968 Peter Subaiya ann arbor MI 7314 23 M 33:19.3 10:45/M
1969 Cindy Grammatico Saline MI 4229 12 F 33:19.4 10:45/M
1970 jamie stoner Onsted MI 7302 42 F 33:19.6 10:45/M
1971 Brady Gambatese Ann Arbor MI 8031 36 M 33:19.8 10:45/M
1972 Melissa Davenport Pinckney MI 5727 39 F 33:19.9 10:45/M
1973 timothy davenport 5726 42 M 33:20.2 10:45/M
1974 Chad Thomson Michigan Center MI 7417 32 M 33:20.6 10:45/M
1975 Dustin Kuras Commerce Township MI 4872 30 M 33:20.7 10:45/M
1976 Rosangel Cruz Ann Arbor MI 3712 38 F 33:20.8 10:45/M
1977 Adam Brackmann auburn hills MI 3346 23 M 33:21.5 10:45/M
1978 Kathleen VanHouten Grand Blanck MI 7508 36 F 33:21.5 10:45/M
1979 Meghan Hanna 5997 25 F 33:21.6 10:45/M
1980 Loreina So Farmington Hills MI 7213 56 F 33:21.7 10:45/M
1981 Joe Krushelnick ann Arbor MI 4857 10 M 33:22.0 10:46/M
1982 Sandy Wilson Dexter MI 7712 35 F 33:22.0 10:46/M
1983 Matthew Hoffman Ypsilanti MI 8090 28 M 33:22.1 10:46/M
1984 Alonzo Julian Albion MI 8770 41 M 33:22.1 10:46/M
1985 Terry Steller SR. ann Arbor MI 8408 55 M 33:22.3 10:46/M
1986 Karl Krushelnick Ann Arbor MI 4858 47 M 33:24.4 10:46/M
1987 Jerrett Betzer Elwell MI 3276 24 M 33:24.8 10:46/M
1988 Timothy Tonak Westland MI 7443 0 M 33:24.8 10:46/M
1989 Kirsten Roque Ann Arbor MI 6898 37 F 33:25.0 10:47/M
1990 Karol Healy Saline MI 4392 33 F 33:25.1 10:47/M
1991 Robert McMordie Adrian MI 6231 41 M 33:25.3 10:47/M
1992 Courtney Truitt Brighton MI 7451 28 F 33:25.4 10:47/M
1993 Karl Thulin Lake Orion MI 5110 57 M 33:25.8 10:47/M
1994 morgan goldi 2550 23 F 33:26.8 10:47/M
1995 Chelsea Kearns Dexter MI 4707 15 F 33:26.9 10:47/M
1996 Eric Baumgartner Napervile IL 7867 24 M 33:27.1 10:47/M
1997 Jessica LaPorte Mt. Prospect IL 8171 23 F 33:27.8 10:47/M
1998 Jennifer Manuel Lisle IL 6105 38 F 33:27.9 10:47/M
1999 Doug Cropsey Ann Arbor MI 3703 46 M 33:28.2 10:48/M
2000 Victoria Germond Ann Arbor MI 8740 49 F 33:28.4 10:48/M
 
Place Name City Bib No Age Gender Total Time Pace
2001 Shayla King Ann Arbor MI 4780 27 F 33:28.9 10:48/M
2002 Hilary Hill Dexter MI 4462 34 F 33:29.2 10:48/M
2003 Michael Kearns Dexter MI 4709 27 M 33:29.9 10:48/M
2004 Jessica Huff Ann Arbor MI 4537 25 F 33:30.0 10:48/M
2005 Sally Eder Ann Arbor MI 3903 52 F 33:30.4 10:48/M
2006 Fernao De Oliveira Cesar Ypsilanti MI 315 28 M 33:30.6 10:48/M
2007 Kaysie Erickson Ann Arbor MI 8004 21 F 33:30.7 10:48/M
2008 Rachel Rifkin Ann Arbor MI 6831 24 F 33:30.8 10:48/M
2009 Angel Lynch Novi MI 6060 31 F 33:30.9 10:48/M
2010 Tara Kristock Novi MI 4847 21 F 33:31.1 10:49/M
2011 Danny McClure Jackson MI 969 54 M 33:31.2 10:49/M
2012 Jennifer Grady Westland MI 4227 30 F 33:31.3 10:49/M
2013 Pasqualina Iaderosa Farmington Hills MI 4548 23 F 33:31.7 10:49/M
2014 sue hadden ann arbor MI 4301 57 F 33:31.9 10:49/M
2015 April Boxeth Ann Arbor MI 3344 41 F 33:32.1 10:49/M
2016 Keith Butkovich Ann Arbor MI 5250 59 M 33:32.4 10:49/M
2017 Yukihiro Kito Ann Arbor MI 8148 50 M 33:32.6 10:49/M
2018 Shawn Pogrob Jackson MI 8995 25 M 33:32.7 10:49/M
2019 Melissa Roberts Clinton MI 8326 35 F 33:33.3 10:49/M
2020 Katie Szymanski Macomb MI 7344 19 F 33:33.5 10:49/M
2021 Leaona So Farmington Hills MI 7212 31 F 33:34.2 10:50/M
2022 Robert Rudnick Farmington Hills MI 5032 60 M 33:34.4 10:50/M
2023 Dan Boxeth Ann Arbor MI 3345 42 M 33:34.7 10:50/M
2024 James McAllister Dexter MI 6177 51 M 33:35.9 10:50/M
2025 Karen Johnston Pinckney MI 4634 33 F 33:36.1 10:50/M
2026 Sarah Skavnak Saline MI 7149 33 F 33:36.2 10:50/M
2027 Carrie Mitchell Eastpointe MI 6331 47 F 33:37.1 10:51/M
2028 Angela Walker Ann Arbor MI 7560 33 F 33:37.4 10:51/M
2029 Mike Long Plymouth MI 6040 26 M 33:37.6 10:51/M
2030 Kelly Richmond Bay Port MI 6820 39 F 33:37.6 10:51/M
2031 Robert Yuen Ann Arbor MI 7791 31 M 33:38.1 10:51/M
2032 Joel Pazhayampallil Ann Arbor MI 6599 21 M 33:38.1 10:51/M
2033 jessice monroe clarkston MI 6343 32 F 33:38.3 10:51/M
2034 John Drogowski Adrian MI 3863 41 M 33:38.4 10:51/M
2035 Tiffany Messer Milan MI 6265 25 F 33:39.1 10:51/M
2036 SARAH SIKKENGA WHITEHALL MI 7120 31 F 33:39.3 10:51/M
2037 Barbara Hoelzle Troy MI 4488 57 F 33:39.3 10:51/M
2038 Jamie Amshay Waterford MI 5194 36 F 33:39.4 10:51/M
2039 Michelle Sorensen Southgate MI 7225 44 F 33:40.0 10:52/M
2040 Christopher Sorensen Southgate MI 7224 46 M 33:40.7 10:52/M
2041 Sandra Gay LaSalle MI 4154 41 F 33:41.0 10:52/M
2042 Thomas Hoelzle Troy MI 4489 62 M 33:41.4 10:52/M
2043 Drew Eleazar Saline MI 8002 36 M 33:41.5 10:52/M
2044 Maya Krugman Ann Arbor MI 4851 12 F 33:42.0 10:52/M
2045 Genna Novara 5925 9 F 33:42.1 10:52/M
2046 Jason Helle Canton MI 4408 32 M 33:42.4 10:52/M
2047 Miranda Welbourne Ann Arbor MI 7638 29 F 33:43.2 10:53/M
2048 Kendall Johnstone Plymouth MI 4640 12 F 33:43.3 10:53/M
2049 Sarah Grimmette Tecumseh MI 4256 27 F 33:44.3 10:53/M
2050 Erin Anthony Chicago IL 3087 27 F 33:44.3 10:53/M
2051 cara laurain new boston MI 4916 25 F 33:44.4 10:53/M
2052 Christin Macbeth White Lake MI 6068 32 F 33:44.5 10:53/M
2053 Chris Nesbitt Commerce MI 6453 49 M 33:44.7 10:53/M
2054 chris vandiver vandiver new boston MI 7505 32 M 33:44.9 10:53/M
2055 Charles See Britton MI 1322 0 M 33:45.1 10:53/M
2056 chris richards ypsilanti MI 8325 34 M 33:45.2 10:53/M
2057 Bradford White Evanston IL 7661 51 M 33:45.2 10:53/M
2058 Sarah Najor Troy MI 5481 0 F 33:45.5 10:53/M
2059 Matthew Ranville Ann Arbor MI 5007 41 M 33:46.1 10:54/M
2060 Martha Wohlfeil Pinckney MI 7738 44 F 33:46.2 10:54/M
2061 Chris McWatters Ann Arbor MI 5461 27 M 33:46.3 10:54/M
2062 Brianna Clementz Ann Arbor MI 3601 24 F 33:46.9 10:54/M
2063 Marc Wohlfeil Pinckney MI 7737 45 M 33:47.0 10:54/M
2064 Alicia Levesque Ann Arbor MI 4980 33 F 33:47.5 10:54/M
2065 Mike Raubuch Ypsilanti MI 8314 46 M 33:47.5 10:54/M
2066 Andrew Mychkovsky Ann Arbor MI 6419 23 M 33:47.6 10:54/M
2067 Kate Hofmann Kawkawlin MI 8091 26 F 33:47.8 10:54/M
2068 Andrea Ernst Ann Arbor MI 3945 26 F 33:48.1 10:54/M
2069 Jeremy Macbeth White Lake MI 6069 35 M 33:48.3 10:54/M
2070 Rhonda Hanna Rocky River OH 8774 30 F 33:48.4 10:54/M
2071 Kurt Rigg Ann Arbor MI 6833 47 M 33:48.5 10:54/M
2072 Ken Crase Snover MI 3691 45 M 33:49.0 10:55/M
2073 Samir Hanna Shelby Township MI 5365 24 M 33:49.1 10:55/M
2074 Maria Schuster Ann Arbor MI 5054 28 F 33:49.1 10:55/M
2075 Elaine Nesbitt Commerce MI 6454 49 F 33:49.3 10:55/M
2076 Laura Crase Snover MI 3692 39 F 33:49.3 10:55/M
2077 Scott Yarckow Onsted MI 7784 43 M 33:50.1 10:55/M
2078 Steve Legner Bay City MI 4956 27 M 33:51.0 10:55/M
2079 Steven Masker Frankenmuth MI 6146 31 M 33:51.1 10:55/M
2080 JOHN EDWARDS WEST BLOOMFIELD MI 3906 49 M 33:51.7 10:55/M
2081 Kristin Shultz-Brown Ann Arbor MI 7105 26 F 33:53.3 10:56/M
2082 Robert Millson Windsor ON 6318 59 M 33:53.5 10:56/M
2083 melissa balogh southgate MI 7859 22 F 33:53.7 10:56/M
2084 David Wymer Sterling Heights MI 7773 41 M 33:54.2 10:56/M
2085 Karalee McKinstry Frankenmuth MI 6223 33 F 33:54.8 10:56/M
2086 Millard Elder Ann Arbor MI 3915 60 M 33:54.8 10:56/M
2087 Jonathan Cohn Ann Arbor MI 3615 42 M 33:55.0 10:56/M
2088 Hayden Blair Bay City MI 5221 11 M 33:57.5 10:57/M
2089 Jill Lemens Ann Arbor MI 4960 44 F 33:58.3 10:57/M
2090 Karen Danzeisen Ann Arbor MI 3745 49 F 34:00.0 10:58/M
2091 Greg Blair Bay City MI 5220 39 M 34:00.6 10:58/M
2092 Stephanie Schneider Fowler MI 8359 0 F 34:00.7 10:58/M
2093 Stephanie Lafata Rochester Hills MI 4885 34 F 34:00.9 10:58/M
2094 Elisabeth Morrow Ann Arbor MI 6371 36 F 34:01.4 10:58/M
2095 Kelli Sullivan Ypsilanti MI 7316 22 F 34:02.1 10:59/M
2096 Bob Goodsell Ann Arbor MI 4211 54 M 34:02.2 10:59/M
2097 Dr Erica Peabody Fenton MI 8284 0 F 34:02.2 10:59/M
2098 Emily Mayer Orion MI 6166 18 F 34:02.4 10:59/M
2099 Emily Bell Dexter MI 3238 33 F 34:02.8 10:59/M
2100 Andrea Heldsinger Ann Arbor MI 4407 60 F 34:04.4 10:59/M
 
Place Name City Bib No Age Gender Total Time Pace
2101 Patrick Conklin Manchester MI 8647 0 M 34:04.4 10:59/M
2102 Nicole Bigelow Ypsilanti MI 3279 32 F 34:04.9 10:59/M
2103 Claire Conlon Ann Arbor MI 3631 22 F 34:05.1 11:00/M
2104 Camille Conklin Manchester MI 8646 32 F 34:07.0 11:00/M
2105 Frank Zyber Ann Arbor MI 7832 51 M 34:08.0 11:01/M
2106 Rheagan Anderson Charlotte MI 3071 32 F 34:08.4 11:01/M
2107 Jayna Ballard 5786 31 F 34:08.5 11:01/M
2108 Chad Pardo Livonia MI 8278 26 M 34:09.1 11:01/M
2109 April Bigelow 5784 36 F 34:09.6 11:01/M
2110 Sarah Raux Ann Arbor MI 6764 30 F 34:09.8 11:01/M
2111 Lauren Skop Livonia MI 7155 31 F 34:10.1 11:01/M
2112 Cathy Boismier Plymouth MI 3310 44 F 34:11.1 11:02/M
2113 Trudi Whitley Chelsea MI 7670 56 F 34:11.1 11:02/M
2114 Tracey Duda Riverview MI 5829 39 F 34:11.9 11:02/M
2115 Jennifer Applebee Royal Oak MI 3090 38 F 34:12.7 11:02/M
2116 Lauren Hornberger Saline MI 4518 41 F 34:12.8 11:02/M
2117 Greg Byars 5830 41 M 34:13.4 11:02/M
2118 Julia Barhoumeh dearborn hts MI 3172 24 F 34:13.7 11:02/M
2119 Cristina Wojack Ann Arbor MI 7739 22 F 34:13.7 11:02/M
2120 Kristen Awdish Novi MI 3123 46 F 34:13.7 11:02/M
2121 Courtney Noonan Ann Arbor MI 6484 0 F 34:14.4 11:03/M
2122 Katie Vasquez Farmington Hills MI 7519 34 F 34:14.7 11:03/M
2123 Carol Girath 5913 27 F 34:15.5 11:03/M
2124 Ann Little Ann Arbor MI 6021 58 F 34:16.0 11:03/M
2125 Rick Stewart Grant MI 7298 52 M 34:16.2 11:03/M
2126 Marsha Gott Ann Arbor MI 8759 54 F 34:16.2 11:03/M
2127 David Albright Farmington Hills MI 3040 61 M 34:17.2 11:04/M
2128 Danielle Wilkinson walled lake MI 8496 28 F 34:17.7 11:04/M
2129 AnnMarie Furlong Ann Arbor MI 4122 44 F 34:17.8 11:04/M
2130 Tim Spicer Plymouth MI 8404 29 M 34:18.4 11:04/M
2131 Paul Buckman Redford MI 3411 56 M 34:18.6 11:04/M
2132 Lara Cooper Ann Arbor MI 3648 44 F 34:18.6 11:04/M
2133 Laura Ingleby Plymouth MI 8109 28 F 34:18.7 11:04/M
2134 Stephanie Heemstra Farmington Hills MI 4399 0 F 34:18.8 11:04/M
2135 Lyndsay Johnson-LeMieux Allen Park MI 4628 30 F 34:18.8 11:04/M
2136 Nicholas Sempert Chicago IL 7061 32 M 34:19.2 11:04/M
2137 Margaret Bacon Ann Arbor MI 3143 28 F 34:19.2 11:04/M
2138 Giovanna DeMatteo Wyandotte MI 3799 13 F 34:19.3 11:04/M
2139 KATY DETRISAC ANN ARBOR MI 3820 25 F 34:19.5 11:04/M
2140 Kate Saetang Ann Arbor MI 6956 26 F 34:20.1 11:05/M
2141 Robyn Brock Ann Arbor MI 3382 21 F 34:20.4 11:05/M
2142 rebecca sawicki berkley MI 6995 40 F 34:20.7 11:05/M
2143 Jodi Heileman Westland MI 4403 42 F 34:21.1 11:05/M
2144 belinda miesch berkley MI 6288 50 F 34:21.5 11:05/M
2145 Jessica Chapman Toledo OH 8630 25 F 34:21.7 11:05/M
2146 Molly Saunders-Scott Ann Arbor MI 6993 26 F 34:22.3 11:05/M
2147 Ann Marie DesLauriers-Cox Fenton MI 5291 44 F 34:22.7 11:05/M
2148 Laura Major Clinton Township MI 6085 51 F 34:23.0 11:05/M
2149 Jon Desenberg Ann Arbor MI 7975 77 M 34:23.4 11:05/M
2150 Hunter Sword Milford MI 7335 8 M 34:24.1 11:06/M
2151 Kasey Whitley Chelsea MI 7669 27 F 34:24.6 11:06/M
2152 Holly Smith Ann Arbor MI 7186 31 F 34:24.7 11:06/M
2153 Elizabeth Schapiro Scarsdale NY 7003 20 F 34:24.8 11:06/M
2154 Dustin Helbing Toledo OH 609 33 M 34:25.0 11:06/M
2155 Dawn Jakubik Grand Blanc MI 4583 52 F 34:25.1 11:06/M
2156 Angela vonSchwarz Grosse Pointe Farms MI 5133 38 F 34:25.6 11:06/M
2157 connie renfer addison MI 6799 47 F 34:25.8 11:06/M
2158 david peterson 5797 42 M 34:26.1 11:06/M
2159 Rhonda Sanders Farmington Hills MI 8345 24 F 34:26.3 11:06/M
2160 Joe Evans Brownstown MI 3959 32 M 34:27.0 11:07/M
2161 Sirene Lipschutz Ann Arbor MI 6016 31 F 34:27.5 11:07/M
2162 Brandy Campeau Brownstown MI 3487 30 F 34:27.7 11:07/M
2163 Tracy Wraight Saline MI 7765 24 F 34:28.1 11:07/M
2164 Hannah Rebandt Canton MI 6780 15 F 34:28.4 11:07/M
2165 Carly Potts Petoskey MI 8306 20 F 34:28.4 11:07/M
2166 Molina Serr Ann Arbor MI 7067 42 F 34:28.7 11:07/M
2167 Brian Thelen South Lyon MI 7400 43 M 34:29.1 11:07/M
2168 Meredith Chizek Ann Arbor MI 3564 32 F 34:29.5 11:07/M
2169 Madison Cotner Saline MI 3660 10 F 34:29.6 11:07/M
2170 Becca Racz Oakland MI 6741 21 F 34:29.8 11:07/M
2171 Jeff Pinch Dearborn MI 5519 32 M 34:29.8 11:07/M
2172 Sunghoon Jung Chicago IL 4660 27 M 34:29.9 11:07/M
2173 Jieun Lee Ann Arbor MI 4945 27 F 34:30.3 11:08/M
2174 Kathleen Stearns Redford MI 7269 22 F 34:30.5 11:08/M
2175 Raeanna Robertson GARDEN CITY MI 6855 33 F 34:30.6 11:08/M
2176 Allison Wilson Ypsilanti MI 7708 31 F 34:30.8 11:08/M
2177 Brenna Bustard Norton Shores MI 3455 10 F 34:31.1 11:08/M
2178 Jerry Cotner Saline MI 3659 38 M 34:31.6 11:08/M
2179 rebecca lister ann arbor MI 8878 14 F 34:32.0 11:08/M
2180 Robert Lloyd Dexter MI 6030 32 M 34:32.1 11:08/M
2181 DANIEL CHAE YPSILANTI MI 5260 29 M 34:32.3 11:08/M
2182 Dianne Racz Oakland MI 6743 50 F 34:32.3 11:08/M
2183 Jennifer Bustard Norton Shores MI 3456 45 F 34:32.5 11:08/M
2184 Melissa Pinch Dearborn MI 5520 33 F 34:32.5 11:08/M
2185 David Feiertag Superior Twp. MI 3988 27 M 34:32.7 11:08/M
2186 Casey Zaski Dexter MI 7799 32 M 34:33.1 11:09/M
2187 JON BAEK ANN ARBOR MI 5200 35 M 34:34.5 11:09/M
2188 Phillip Crumm Ann Arbor MI 3708 7 M 34:35.5 11:09/M
2189 Mesha Mieske Whitmore Lake MI 6289 37 F 34:35.8 11:09/M
2190 Janice Rubrich Chesterfield Township MI 8334 42 F 34:37.3 11:10/M
2191 Tyler Hutchinson commerce MI 4545 23 M 34:37.6 11:10/M
2192 Natalie Parks 5918 37 F 34:37.9 11:10/M
2193 dana strickland haslett MI 7309 55 F 34:38.6 11:10/M
2194 Alesha Barnes Tawas City MI 3180 0 F 34:38.6 11:10/M
2195 Debbie Richley Dexter MI 6819 48 F 34:38.9 11:10/M
2196 Erica Barnes Bay City MI 3181 27 F 34:39.5 11:11/M
2197 Keith Trost Ann Arbor MI 5120 60 M 34:40.3 11:11/M
2198 Susan Chang West Bloomfield MI 3542 38 F 34:40.6 11:11/M
2199 Whitney Smith White Lake MI 5079 21 F 34:41.3 11:11/M
2200 Ashley Allen Lansing MI 8544 21 F 34:41.4 11:11/M
 
Place Name City Bib No Age Gender Total Time Pace
2201 Catherine Skimin Royal oak MI 7151 27 F 34:41.6 11:11/M
2202 nicole sieler monroe MI 7114 11 F 34:42.0 11:12/M
2203 Jayesh Patel Ypsilanti MI 5512 25 M 34:42.1 11:12/M
2204 Melanie Warren Battle Creek MI 7593 35 F 34:42.1 11:12/M
2205 Stephen Douglas Chardon OH 5297 18 M 34:42.2 11:12/M
2206 Rachel Rennolds Grosse Pointe Woods MI 8318 24 F 34:42.3 11:12/M
2207 Clark Woods Columbus OH 7757 61 M 34:42.3 11:12/M
2208 Kat Nye Royal Oak MI 6494 26 F 34:42.5 11:12/M
2209 Jacob Smith Bowling Green OH 7187 19 M 34:42.7 11:12/M
2210 Chance Ackley Bowling Green OH 3010 21 M 34:43.6 11:12/M
2211 Gary McMenamin Warren MI 6229 49 M 34:43.7 11:12/M
2212 Kevin Warner Holt MI 7589 56 M 34:44.0 11:12/M
2213 Joan Rucker Northville MI 5031 67 F 34:44.1 11:12/M
2214 Laura Shaffer Livonia MI 8368 24 F 34:44.9 11:12/M
2215 Sophia Chittle ANN ARBOR MI 8635 7 F 34:45.2 11:13/M
2216 Samantha Briguglio Chesterfield Twp MI 3373 22 F 34:46.2 11:13/M
2217 James McFarlane Brighton MI 6203 34 M 34:46.4 11:13/M
2218 Lindsay Kasmier Novi MI 4695 29 F 34:46.5 11:13/M
2219 Frank Johnson Ann Arbor MI 4613 61 M 34:46.7 11:13/M
2220 Rodney Elswick 6564 32 M 34:48.7 11:14/M
2221 Georgia Grimes Jackson MI 4254 31 F 34:48.8 11:14/M
2222 leslie garoufalis 5790 45 F 34:49.2 11:14/M
2223 Julie Adams Dexter MI 5634 43 F 34:49.2 11:14/M
2224 Jane Chittle Ann Arbor MI 8632 43 F 34:49.2 11:14/M
2225 Jennifer Hawkins Ypsilanti MI 4384 37 F 34:49.6 11:14/M
2226 Julie Hepler Plymouth MI 4417 47 F 34:49.9 11:14/M
2227 Paul Gutschlag Ann Arbor MI 4297 68 M 34:50.3 11:14/M
2228 zoey gillis 5701 14 F 34:50.8 11:14/M
2229 Heidi Reichert Ann Arbor MI 6794 38 F 34:52.7 11:15/M
2230 Dan Johnston Pinckney MI 4632 52 M 34:53.9 11:15/M
2231 Karan Balmer Ann Arbor MI 3161 46 F 34:54.0 11:15/M
2232 Theresa Olechowski Rochester MI 6518 40 F 34:54.1 11:15/M
2233 Chad Reichert Ann Arbor MI 6793 38 M 34:54.2 11:15/M
2234 Rebecca LaCroix Ypsianti MI 4882 13 F 34:54.3 11:15/M
2235 Lance Farb Northbrook IL 3979 21 M 34:54.6 11:15/M
2236 Meg Hanrath Ann Arbor MI 574 40 F 34:55.0 11:16/M
2237 Margaret Daigneau Brighton MI 3728 58 F 34:55.5 11:16/M
2238 Monica Price Belleville MI 6711 28 F 34:56.1 11:16/M
2239 Aileen Ryan Canton MI 6945 29 F 34:56.3 11:16/M
2240 Fernanda Amaral de Andrade Ypsilanti MI 3056 28 F 34:56.5 11:16/M
2241 Melisa Carrasco Ann Arbor MI 3508 28 F 34:56.7 11:16/M
2242 Yasuhiro Kyono Ann Arbor MI 4879 29 M 34:57.0 11:16/M
2243 Barbara Kerkove Ann Arbor MI 4743 25 F 34:57.7 11:16/M
2244 Katie Eggenberger Ypsilanti MI 3907 13 F 34:57.8 11:16/M
2245 Bethena Wallace Ypsilanti MI 8473 35 F 34:58.0 11:17/M
2246 Penny Kinch Jackson MI 4773 51 F 34:58.2 11:17/M
2247 Andries Coetzee Ann Arbor MI 5268 40 M 34:58.4 11:17/M
2248 Wendy Sherrill Ann Arbor MI 7094 42 F 34:58.8 11:17/M
2249 Adam Tomchuck Chelsea MI 7441 33 M 34:58.8 11:17/M
2250 Karen Wheeler Ann Arbor MI 7658 48 F 34:58.9 11:17/M
2251 Emma Kessler Ann Arbor MI 8825 19 F 34:59.5 11:17/M
2252 Sophia Iannone Ann Arbor MI 5400 13 F 34:59.8 11:17/M
2253 Michael Daigneau Brighton MI 3729 59 M 35:00.1 11:17/M
2254 Ken Nguyen Livonia MI 6464 38 M 35:00.1 11:17/M
2255 Kristl Regalado Manitou Beach MI 6792 20 F 35:00.1 11:17/M
2256 Michelle Sladick Fowlerville MI 7159 41 F 35:00.6 11:17/M
2257 Zoe Sunahara Ann Arbor MI 7318 11 F 35:00.8 11:17/M
2258 Ann Murphy LIvonia MI 6404 47 F 35:01.0 11:18/M
2259 Karyn Truxell Livonia MI 7455 52 F 35:01.3 11:18/M
2260 Darla Earls Fowlerville MI 3894 38 F 35:02.2 11:18/M
2261 Lauren Burleson Hazel Park MI 3433 22 F 35:02.4 11:18/M
2262 kim vandermarkt jenison MI 5126 35 F 35:02.7 11:18/M
2263 Tracy Glover Toledo OH 4199 0 F 35:03.1 11:18/M
2264 Daniel Connors Allen Park MI 3635 45 M 35:03.8 11:18/M
2265 Lynn Heumann Ann Arbor MI 4443 49 F 35:03.8 11:18/M
2266 Michelle Evans Lansing MI 3962 24 F 35:03.9 11:18/M
2267 Krista Schuh Jackson MI 7027 23 F 35:04.0 11:19/M
2268 Amy Rydleski Ann Arbor MI 8343 2 F 35:04.0 11:19/M
2269 Steve Zwolinski Ann Arbor MI 7831 27 M 35:04.1 11:19/M
2270 Lisa Keefauver Ann Arbor MI 4713 40 F 35:04.1 11:19/M
2271 Elizabeth Ridge Clarkston MI 5541 17 F 35:04.7 11:19/M
2272 Deanna Rydleski Ann Arbor MI 8344 12 F 35:04.8 11:19/M
2273 Lori Burleson Ferndale MI 3434 47 F 35:04.9 11:19/M
2274 Carson Fowler Ypsilanti MI 8724 6 M 35:05.5 11:19/M
2275 Laura Cerimele Saline MI 7925 13 F 35:05.7 11:19/M
2276 Katharine Beach Ypsilanti MI 3214 36 F 35:05.7 11:19/M
2277 Cammie Dalton 5884 11 F 35:05.7 11:19/M
2278 Jessica Clarke Saline MI 3589 0 F 35:06.0 11:19/M
2279 Stephanie Wolffe Ann Arbor MI 7743 21 F 35:06.3 11:19/M
2280 Dennis Bjoraker Canton MI 8584 51 M 35:06.3 11:19/M
2281 Grace Rojas Allen Park MI 6891 20 F 35:06.6 11:19/M
2282 emily owen jackson MI 6558 23 F 35:07.2 11:20/M
2283 Justin LaRose Warren MI 8859 26 M 35:07.4 11:20/M
2284 Pete Weston Marshall MI 1581 59 M 35:07.4 11:20/M
2285 Jennifer Collins Ann Arbor MI 8643 47 F 35:07.6 11:20/M
2286 Lauren Gaines Plymouth MI 8029 25 F 35:07.7 11:20/M
2287 Kate Tales Ann Arbor MI 1439 30 F 35:08.5 11:20/M
2288 Carmen Fowler Ypsilanti MI 8723 8 F 35:08.5 11:20/M
2289 Kyle Feliks Ann Arbor MI 3991 40 M 35:09.2 11:20/M
2290 Christopher Secor Bay City MI 7049 47 M 35:09.3 11:20/M
2291 Alaina Feliks Ann Arbor MI 3990 35 F 35:09.4 11:20/M
2292 Cindy Ervin Ypsilanti MI 3948 43 F 35:09.9 11:20/M
2293 Darlene Schoppe Shelby Twp MI 7022 37 F 35:10.0 11:21/M
2294 Tyler Hicks YPSILANTI MI 4450 26 M 35:10.3 11:21/M
2295 Trevor McCullough Ypsilanti MI 6196 10 M 35:10.6 11:21/M
2296 David Hyatt Ann Arbor MI 5397 40 M 35:10.7 11:21/M
2297 Keith McCullough Ypsilanti MI 6195 43 M 35:11.2 11:21/M
2298 John Wenzel Lapeer MI 7646 57 M 35:11.8 11:21/M
2299 Dan Nye Royal Oak MI 6493 25 M 35:11.9 11:21/M
2300 elizebeth haav 5995 46 F 35:12.3 11:21/M
 
Place Name City Bib No Age Gender Total Time Pace
2301 Meghan London Ann Arbor MI 894 7 F 35:12.4 11:21/M
2302 Janice Skadsen Ann Arbor MI 7145 57 F 35:12.6 11:21/M
2303 samantha wiesner 5996 19 F 35:12.7 11:21/M
2304 Erin Murray Warren MI 6411 29 F 35:12.8 11:21/M
2305 Alex Teska Ann Arbor MI 7392 24 F 35:12.9 11:21/M
2306 David Diener Clarkston MI 7980 8 M 35:12.9 11:21/M
2307 Sheralyn Sherrill Ann Arbor MI 5063 40 F 35:13.0 11:22/M
2308 Peter Schoppe Shelby Twp MI 7023 42 M 35:13.2 11:22/M
2309 Justin Brassell Dearborn MI 5236 20 M 35:13.4 11:22/M
2310 Jaimie Dechy roseville MI 3783 24 F 35:13.4 11:22/M
2311 Thomas Allor Dearborn Heights MI 3049 46 M 35:13.7 11:22/M
2312 Elizabeth Diener Clarkston MI 7981 3 F 35:13.7 11:22/M
2313 Daniel Horal Brighton MI 4512 55 M 35:14.8 11:22/M
2314 Nicole Chrisman Tecumseh MI 3568 0 F 35:14.9 11:22/M
2315 Shannon Dennis Lakeland MI 3804 39 F 35:15.1 11:22/M
2316 Ted London Ann Arbor MI 895 48 M 35:15.5 11:22/M
2317 Shekinah Reser Ann Arbor MI 6802 20 F 35:16.7 11:23/M
2318 Emily Fanelli Ann Arbor MI 3976 32 F 35:16.9 11:23/M
2319 Sarah Dowhal Flushing MI 8692 23 F 35:17.1 11:23/M
2320 Catherine Baldwin Ann Arbor MI 3157 25 F 35:17.6 11:23/M
2321 Mikki Sheridan Columbus IN 5564 0 F 35:18.8 11:23/M
2322 Sarah Drinkrow Flint MI 5300 30 F 35:19.5 11:24/M
2323 Brian Murphy Toledo OH 8944 32 M 35:20.3 11:24/M
2324 Patricia Birchmeier Dexter MI 8583 42 F 35:20.4 11:24/M
2325 Amanda Drinkrow Traverse CIty MI 5299 30 F 35:20.7 11:24/M
2326 Douglas Artt White Lake MI 3106 53 M 35:20.8 11:24/M
2327 Harold Matthews Plymouth MI 6159 59 M 35:20.9 11:24/M
2328 Diane Artt White Lake MI 3105 52 F 35:21.0 11:24/M
2329 Charisse Hanson Ann Arbor MI 5368 31 F 35:21.0 11:24/M
2330 Ashley Barbour Ann Arbor MI 7862 26 F 35:21.1 11:24/M
2331 David Lau Plymouth MI 8173 63 M 35:22.0 11:25/M
2332 Gary Wardwell Walled Lake MI 7584 57 M 35:22.7 11:25/M
2333 Keri Leslie 2532 38 F 35:22.9 11:25/M
2334 Marsha Whitehouse Brighton MI 7667 58 F 35:23.1 11:25/M
2335 sarah pfeiffle ypsilanti MI 6643 24 F 35:23.7 11:25/M
2336 Kaleena Johnson Ann Arbor MI 4618 0 F 35:24.9 11:25/M
2337 karyn meteer Orion MI 6268 35 F 35:25.0 11:25/M
2338 Louie Klaus Ann Arbor MI 4792 11 M 35:25.9 11:25/M
2339 Jakia Aiken Manchester MI 8541 8 F 35:25.9 11:25/M
2340 Kathleen Klaus Ann Arbor MI 4791 47 F 35:26.4 11:26/M
2341 Joe Bolstrum Canton MI 3315 43 M 35:26.5 11:26/M
2342 Amy Guffey Grand Rapids MI 4286 23 F 35:26.9 11:26/M
2343 Timothy Castello Ann Arbor MI 1878 37 M 35:27.2 11:26/M
2344 Jennifer Giovannini Northville MI 4191 30 F 35:27.3 11:26/M
2345 Greta Klaus Ann Arbor MI 4790 13 F 35:27.4 11:26/M
2346 Jim Boss Ypsilanti MI 3327 46 M 35:27.6 11:26/M
2347 Kevin Reynolds Novi MI 6805 25 M 35:27.7 11:26/M
2348 Brian Masser Brooklyn MI 6151 43 M 35:28.0 11:26/M
2349 Andrew Konik Livonia MI 4821 26 M 35:28.2 11:26/M
2350 jennifer cooper taylor MI 7953 25 F 35:28.4 11:26/M
2351 Payton Doan Gregory MI 8687 10 F 35:28.4 11:26/M
2352 aidan boote 2559 10 M 35:28.5 11:26/M
2353 Mike Kushmaul Jackson MI 8852 41 M 35:28.9 11:26/M
2354 Melanie Pomerville Hampton VA 6679 25 F 35:28.9 11:26/M
2355 Sarah Baxter Davison MI 3209 32 F 35:29.6 11:27/M
2356 Kim Gibson Windsor ON 8742 38 F 35:29.7 11:27/M
2357 Rose Organek Sterling Heights MI 6533 48 F 35:29.8 11:27/M
2358 Michelle Murphy Toledo OH 8945 34 F 35:30.0 11:27/M
2359 Lisa Koch Milan MI 4809 38 F 35:30.4 11:27/M
2360 Matt Doan Gregory MI 8684 42 M 35:30.6 11:27/M
2361 Larry Aiken Manchester MI 8542 64 M 35:31.2 11:27/M
2362 Vibhav Alokam Ypsilanti MI 3051 5 M 35:31.6 11:27/M
2363 rachel boote 2557 15 M 35:32.3 11:28/M
2364 Howard Brauckmuller Ypsilanti MI 3364 41 M 35:32.5 11:28/M
2365 Carly Ahrens Ann Arbor MI 3027 24 F 35:32.5 11:28/M
2366 Kenneth Close Toledo OH 8638 62 M 35:32.7 11:28/M
2367 James Stclair 5639 47 M 35:32.7 11:28/M
2368 Brianne Frayne Ann Arbor MI 4090 21 F 35:33.2 11:28/M
2369 Alec Laurie Howell MI 4918 10 M 35:33.3 11:28/M
2370 Jennifer Medina Sterling heights MI 8215 34 F 35:33.8 11:28/M
2371 Jeff Koch Milan MI 4808 38 M 35:34.1 11:28/M
2372 Mohammad Hasan Pontiac MI 8780 1 M 35:34.9 11:28/M
2373 Dean Boote Gregory MI 5735 55 M 35:34.9 11:28/M
2374 Lezlie Morrow Wolverine MI 6372 60 F 35:35.2 11:29/M
2375 Shannon Laurie Howell MI 4919 37 F 35:35.2 11:29/M
2376 Lisa Breithaupt Belleville MI 3366 53 F 35:35.4 11:29/M
2377 augustus tasker 2535 17 M 35:35.4 11:29/M
2378 Kimberly Sparks Ann Arbor MI 7237 26 F 35:35.7 11:29/M
2379 Derek Lucas Columbus OH 905 27 M 35:35.7 11:29/M
2380 Evelyn Nieves ypsilanti MI 6479 36 F 35:35.8 11:29/M
2381 Tricia Jones Ann Arbor MI 4650 46 F 35:35.9 11:29/M
2382 rachel fugitt 2208 27 F 35:36.1 11:29/M
2383 Gillian Krupp New Lothrop MI 4854 10 F 35:36.1 11:29/M
2384 Eleanor Davis Ann Arbor MI 3762 12 F 35:36.7 11:29/M
2385 Erik Andersen Ann Arbor MI 7847 33 M 35:37.0 11:29/M
2386 Grace Boote Gregory MI 5736 11 F 35:37.2 11:29/M
2387 Dennis Haner East Lansing MI 4332 63 M 35:37.5 11:29/M
2388 Rebecca See Britton MI 1323 0 F 35:37.9 11:29/M
2389 Chelsea Emans Columbus OH 387 29 F 35:38.3 11:30/M
2390 shane baranek 2527 38 M 35:39.9 11:30/M
2391 Casey Fitzgibbons Jackson MI 4031 34 F 35:40.3 11:30/M
2392 Thomas Brady 5924 23 M 35:41.0 11:31/M
2393 Tyler Meadows Northville MI 5462 11 M 35:41.4 11:31/M
2394 Matthew Rogers Elyria OH 6886 29 M 35:41.7 11:31/M
2395 Lauren Bebry Ann Arbor MI 3221 28 F 35:42.1 11:31/M
2396 David Burgoyne Jr. Ann Arbor MI 3428 12 M 35:42.2 11:31/M
2397 Kirk Baldwin Sterling MI 7857 24 M 35:42.5 11:31/M
2398 David Burgoyne Sr. Ann Arbor MI 3429 52 M 35:43.6 11:31/M
2399 Carolyn Kuranz Ann Arbor MI 5421 0 F 35:43.6 11:31/M
2400 Lisa Langley Ann Arbor MI 4898 51 F 35:44.3 11:32/M
 
Place Name City Bib No Age Gender Total Time Pace
2401 Lisa Detmer Northville MI 3819 44 F 35:44.5 11:32/M
2402 Carolyn King Lansing MI 4774 63 F 35:44.6 11:32/M
2403 Dawn Seidell Davison MI 7054 40 F 35:44.6 11:32/M
2404 Jessica Schaengold Ann Arbor MI 7001 23 F 35:45.6 11:32/M
2405 John Richert Ann Arbor MI 5921 45 M 35:45.6 11:32/M
2406 Lea Lockwood 5935 35 F 35:45.7 11:32/M
2407 John Baca South Lyon MI 3129 51 M 35:45.9 11:32/M
2408 Eric Windemuller Cedar Springs MI 7714 37 M 35:46.0 11:32/M
2409 Anand Sharangpani Plymouth MI 7075 66 M 35:46.1 11:32/M
2410 Irina Zeylikovich Ann Arbor MI 7812 25 F 35:46.2 11:32/M
2411 Ann Baca South Lyon MI 3128 51 F 35:47.1 11:33/M
2412 Londyn Swenson Plymouth MI 7331 8 F 35:47.6 11:33/M
2413 kelsee stirn 2219 18 F 35:47.7 11:33/M
2414 Paula Francisco Ypsilanti MI 4088 23 F 35:47.9 11:33/M
2415 Tyacie Corle Ann Arbor MI 7955 28 F 35:48.1 11:33/M
2416 Kori Jones Westland MI 4647 36 F 35:48.2 11:33/M
2417 Baylie Dush Saint Johns MI 8699 11 F 35:48.5 11:33/M
2418 Courtney Frye Ann Arbor MI 4117 20 F 35:48.7 11:33/M
2419 Steve Nobis Saint Johns MI 8954 61 M 35:48.9 11:33/M
2420 Adrienne Burgoyne Ann Arbor MI 3427 23 F 35:48.9 11:33/M
2421 David Buchner Ann Arbor MI 8607 35 M 35:49.0 11:33/M
2422 Jeff Schulz Ypsilanti MI 5053 45 M 35:49.3 11:33/M
2423 Ellen Buchner Beachwood OH 8608 60 F 35:49.4 11:33/M
2424 Michelle McClellan Chelsea MI 8904 45 F 35:49.6 11:33/M
2425 Ashley Crete Ann Arbor MI 7963 26 F 35:49.9 11:33/M
2426 Stephanie Hornyak Royal Oak MI 8097 26 F 35:50.0 11:34/M
2427 Theresa Norris Downers Grove IL 6487 51 F 35:50.6 11:34/M
2428 kayla kasputis 5699 20 F 35:50.7 11:34/M
2429 Michelle Pitt Farmington Hills MI 6665 23 F 35:50.7 11:34/M
2430 Kailani Buckner Ann Arbor MI 8609 19 F 35:50.8 11:34/M
2431 richard chesney ann arbor MI 7932 77 M 35:51.5 11:34/M
2432 Elizabeth Braun Canton MI 5238 15 F 35:52.1 11:34/M
2433 David Bierl Rochester Hills MI 7881 42 M 35:52.2 11:34/M
2434 Mirian Freedman 5802 12 F 35:52.3 11:34/M
2435 john kovacik sterlintg heights MI 4828 38 M 35:52.5 11:34/M
2436 Stephen Welch Grand Blanc MI 7639 62 M 35:52.8 11:34/M
2437 Lauren Brandt Ann Arbor MI 3357 21 F 35:53.7 11:35/M
2438 Jessica Hebda Linden MI 4394 37 F 35:54.0 11:35/M
2439 Carly Hatcher South Lyon MI 4376 36 F 35:54.1 11:35/M
2440 Cathy Kerr Ann Arbor MI 4746 50 F 35:54.5 11:35/M
2441 Kavita Warrier Ann Arbor MI 7594 34 F 35:54.8 11:35/M
2442 Sarah Lacy Ann Arbor MI 4883 35 F 35:55.3 11:35/M
2443 Abigail Prout Auburn Hills MI 6717 37 F 35:55.5 11:35/M
2444 Kelly Rysso Brighton MI 6950 35 F 35:55.9 11:35/M
2445 Betsy Wagner Brighton MI 8469 12 F 35:57.6 11:36/M
2446 Anna Bennett Ann Arbor MI 7877 47 F 35:58.2 11:36/M
2447 Mike Ruotman Birmingham AL 6938 58 M 35:58.2 11:36/M
2448 Mary Anne Jaeger Ann Arbor MI 4579 55 F 35:58.4 11:36/M
2449 Karen Carter Garden City MI 3519 45 F 35:58.6 11:36/M
2450 Jay Menlen Madison Heights MI 6250 35 M 35:58.6 11:36/M
2451 Regan Nunez Ann Arbor MI 8256 24 F 35:59.2 11:36/M
2452 Jackie Borowski Dexter MI 3324 33 F 35:59.3 11:36/M
2453 Cynthia Rautman Birmingham AL 6763 55 F 35:59.3 11:36/M
2454 Ashley Jordet Midland MI 4654 24 F 36:00.1 11:37/M
2455 Kelly Hamilton Saginaw MI 5364 35 F 36:00.3 11:37/M
2456 Jack Carroll Toledo OH 3511 61 M 36:00.5 11:37/M
2457 Heather Goemer Brighton MI 4201 35 F 36:01.8 11:37/M
2458 Joel Buffington Ann Arbor MI 8610 49 M 36:01.9 11:37/M
2459 Amanda Clevey Chicago IL 7940 22 F 36:02.7 11:37/M
2460 Wisam Naoum Novi MI 8947 24 M 36:03.0 11:38/M
2461 Max Brown Chicago IL 7911 22 M 36:03.4 11:38/M
2462 Tom Watson Paris MI 7607 28 M 36:03.8 11:38/M
2463 Taylor Fitzgerald Battle Creek MI 8018 10 F 36:03.8 11:38/M
2464 Bree Foreman Lansing MI 4068 22 F 36:03.9 11:38/M
2465 Taisiya Tworek Ann Arbor MI 7470 9 F 36:05.2 11:38/M
2466 Marie Lemmer Ypsilanti MI 8864 56 F 36:06.1 11:39/M
2467 Ingrid Ford Ann Arbor MI 4064 14 F 36:06.1 11:39/M
2468 Nicole Wohl Clarkston MI 8514 34 F 36:06.3 11:39/M
2469 Diane Wasielewski Ann Arbor MI 7597 39 F 36:06.4 11:39/M
2470 Kayleigh Fitzgerald Battle Creek MI 8017 12 F 36:06.8 11:39/M
2471 Ella Wasielewski Ann Arbor MI 1554 8 F 36:07.3 11:39/M
2472 Jimmy Fitzgerald Battle Creek MI 8016 41 M 36:07.8 11:39/M
2473 Amy Bekemeier Sturgis MI 3235 24 F 36:08.2 11:39/M
2474 Carli Arendt Ann Arbor MI 8552 23 F 36:08.4 11:39/M
2475 Cindy J Borsvold Adrian MI 8588 0 F 36:08.7 11:39/M
2476 Robert Hartwig Dearborn Heights MI 5376 28 M 36:09.2 11:40/M
2477 Jennifer Roberts Oregon OH 6845 35 F 36:10.5 11:40/M
2478 Karen Braun Canton MI 8597 49 F 36:10.6 11:40/M
2479 becky wasson highland MI 1558 27 F 36:10.9 11:40/M
2480 Jim Karnopp Ypsilanti MI 4692 44 M 36:10.9 11:40/M
2481 Tara Smiley Ann ARbor MI 5073 27 F 36:11.1 11:40/M
2482 Carolyn Bybee Ann Arbor MI 3461 53 F 36:11.3 11:40/M
2483 Brian Deem Struthers OH 8669 38 M 36:11.5 11:40/M
2484 Carole Galea Ann Arbor MI 4132 60 F 36:13.1 11:41/M
2485 Bo Lanseur Ypsilantie MI 4903 55 M 36:13.1 11:41/M
2486 Gayl Casgrain Ypsilanti MI 3524 63 F 36:13.3 11:41/M
2487 Jing Xiao Ann Arbor MI 7779 20 F 36:13.6 11:41/M
2488 Maureen Marich Ypsilanti MI 8197 51 F 36:13.6 11:41/M
2489 Jim Diroff Carleton MI 3832 51 M 36:13.9 11:41/M
2490 Ethan Hyland Ann Arbor MI 5398 25 M 36:14.1 11:41/M
2491 Akosua Dow Ypsilanti MI 3850 49 F 36:14.2 11:41/M
2492 Thomas Hartwig Ann Arbor MI 4373 30 M 36:14.7 11:41/M
2493 Brice Marich Ypsilanti MI 8196 0 M 36:15.2 11:42/M
2494 Hannah Ward Vicksburg MI 7582 20 F 36:15.3 11:42/M
2495 Stephen Stawecki Macomb MI 7267 36 M 36:16.3 11:42/M
2496 Jen Cotton Ann arbor MI 8651 26 F 36:16.3 11:42/M
2497 Sarah Beaton Grand Haven MI 3220 19 F 36:17.0 11:42/M
2498 Tyler DeBrot Holton MI 3779 21 M 36:17.5 11:42/M
2499 Sonja Rezler Chelsea MI 6808 41 F 36:17.7 11:42/M
2500 Joy Millina Milan MI 6313 35 F 36:17.8 11:42/M
 
Place Name City Bib No Age Gender Total Time Pace
2501 Michele Tanderys Livonia MI 7361 43 F 36:17.9 11:42/M
2502 Sandy Seitz Grass Lake MI 7058 39 F 36:18.3 11:43/M
2503 Jennifer Zimmer Ann Arbor MI 5181 43 F 36:18.5 11:43/M
2504 Lisa Rhonemus Ann Arbor MI 1215 19 F 36:18.8 11:43/M
2505 Jeanette Rusch Redford MI 6942 40 F 36:18.9 11:43/M
2506 Katie Murphy Saline MI 6408 34 F 36:19.5 11:43/M
2507 Haley Craig Dexter MI 5275 9 F 36:19.7 11:43/M
2508 Julie Steele Grand Blanc MI 7273 40 F 36:20.0 11:43/M
2509 Bryana Perez Chicago IL 6615 26 M 36:20.2 11:43/M
2510 Melissa Martin Lincoln Park MI 6138 28 F 36:20.8 11:43/M
2511 Abigail Zimmer 5749 15 F 36:21.0 11:44/M
2512 Ronja Utermark Ann Arbor MI 5601 17 F 36:21.2 11:44/M
2513 Daniel Martin Lincoln Park MI 6131 33 M 36:21.2 11:44/M
2514 Jeanie Alee Macomb MI 3043 26 F 36:21.5 11:44/M
2515 Carolyn Thompson Ann Arbor MI 5109 58 F 36:21.9 11:44/M
2516 Jen Taylor Battle Creek MI 7372 39 F 36:22.6 11:44/M
2517 Antonia Brasher Ann Arbor MI 3362 7 F 36:22.7 11:44/M
2518 Daniel King Westland MI 8146 26 M 36:22.9 11:44/M
2519 Christina Cook Pleasant Lake MI 3637 32 F 36:22.9 11:44/M
2520 Norma Ward Vicksburg MI 7583 54 F 36:23.1 11:44/M
2521 Teresa Smith Pleasant Lake MI 7200 49 F 36:23.2 11:44/M
2522 Kyoko Foley Canton MI 4058 17 F 36:23.3 11:44/M
2523 Tammy Duff Battle Creek MI 3878 39 F 36:23.5 11:44/M
2524 Greg Collins Battle Creek MI 3621 50 M 36:23.9 11:44/M
2525 Alice Reaume Monroe MI 8315 34 F 36:24.5 11:45/M
2526 Nicholas Hill Lake Orion MI 8085 18 M 36:24.5 11:45/M
2527 Jack Millina Milan MI 6312 43 M 36:24.6 11:45/M
2528 Melissa Narkun-Clark Ann Arbor MI 6440 38 F 36:24.8 11:45/M
2529 Sarah Parrish Canton MI 6578 35 F 36:25.5 11:45/M
2530 Debra Eipperle-Smith Monroe MI 8702 54 F 36:25.8 11:45/M
2531 Don Kline Ann Arbor MI 4798 38 M 36:25.9 11:45/M
2532 Josh Krauth-Harding 5777 13 M 36:26.5 11:45/M
2533 Kathleen Lawson Fenton MI 4929 44 F 36:26.9 11:45/M
2534 Brian Smith Ann Arbor MI 7176 38 M 36:27.0 11:45/M
2535 Shannon Emerick Livonia MI 3931 35 F 36:27.6 11:45/M
2536 Justin Wise Dimondale MI 7729 30 M 36:27.6 11:45/M
2537 Eric Olson Ann Arbor MI 8269 35 M 36:28.0 11:46/M
2538 Jennifer Henderson-Zaner Troy MI 4413 39 F 36:28.0 11:46/M
2539 Rebecca Papp 5778 13 F 36:28.3 11:46/M
2540 Lydia Willis Ann Arbor MI 5616 26 F 36:28.9 11:46/M
2541 Justina Clayburn Berrien Center MI 3592 25 F 36:29.3 11:46/M
2542 Deborah Weber Ann Arbor MI 7619 61 F 36:29.5 11:46/M
2543 Jeanette Olson Yspilanti MI 6526 31 F 36:30.1 11:46/M
2544 Nicholas Briguglio Chesterfield Twp MI 3372 27 M 36:30.1 11:46/M
2545 Katie Olson San Diego CA 6527 0 F 36:31.0 11:47/M
2546 Christopher Hill Lake Orion MI 4460 49 M 36:31.1 11:47/M
2547 Joan Tobin Brighton MI 8445 43 F 36:31.4 11:47/M
2548 Rachel Kurowski Brooklyn MI 8851 36 F 36:31.9 11:47/M
2549 Julie Harris Ann Arbor MI 4363 30 F 36:32.1 11:47/M
2550 Joseph Karasek Grand Blanc MI 4687 44 M 36:32.4 11:47/M
2551 Therese Benevich Ann Arbor MI 3248 46 F 36:32.5 11:47/M
2552 Katelyn Patient Novi MI 6588 17 F 36:32.6 11:47/M
2553 ASHLEY MISEJKA WHITEHOUSE OH 6325 28 F 36:33.6 11:47/M
2554 Abigail Gall Ann Arbor MI 8030 0 F 36:34.8 11:48/M
2555 Derek Roch livonia MI 6864 16 M 36:34.8 11:48/M
2556 Paul Kahlenberg Ann Arbor MI 4668 46 M 36:35.4 11:48/M
2557 Kelly Kaye Troy MI 744 22 F 36:35.7 11:48/M
2558 Mike Kieffer Chesaning MI 4756 11 M 36:35.8 11:48/M
2559 Sara Greenwood 5798 31 F 36:36.5 11:48/M
2560 Dan Patient Novi MI 6586 46 M 36:36.5 11:48/M
2561 Deinna Clement Holly MI 3596 39 F 36:37.2 11:49/M
2562 Cheryl Ansel Clarkston MI 3085 37 F 36:37.3 11:49/M
2563 Kathleen Hagerty Ann Arbor MI 8054 14 F 36:37.4 11:49/M
2564 wanda Zenzen Bay City MI 7809 39 F 36:37.5 11:49/M
2565 Valerie Nafso Farmington Hills MI 8244 22 F 36:37.6 11:49/M
2566 Jen Thomas temperance MI 7404 30 F 36:37.8 11:49/M
2567 Tricia Bradley Wyandotte MI 8594 22 F 36:37.9 11:49/M
2568 Salvatore Vitale Monroe MI 7532 37 M 36:38.0 11:49/M
2569 Jennifer Taylor Pinckney MI 7373 0 F 36:38.1 11:49/M
2570 Tricia Kaye Chicago IL 746 34 F 36:39.0 11:49/M
2571 Andrew Martin Chesaning MI 6126 37 M 36:39.6 11:49/M
2572 Christie Wilde Novi MI 7690 21 F 36:39.9 11:49/M
2573 Shanna Buettner Appleton WI 3416 32 F 36:40.5 11:50/M
2574 Kristine Karasek Grand Blanc MI 4688 42 F 36:40.7 11:50/M
2575 Paul Samways Whitmore Lake MI 6968 47 M 36:41.1 11:50/M
2576 Nathan Oaklander Ann Arbor MI 6496 66 M 36:41.1 11:50/M
2577 Tiffany Fee Ann Arbor MI 3986 28 F 36:41.4 11:50/M
2578 Nyah Ansel Clarkston MI 3086 10 F 36:41.4 11:50/M
2579 Manilay Pulsinelli Ypsilanti MI 8310 36 F 36:42.0 11:50/M
2580 Chloe Campbell Ypsilanti MI 3479 25 F 36:42.1 11:50/M
2581 jake lister ann arbor MI 8877 10 M 36:42.5 11:50/M
2582 Tammy Giannunzio Marshall MI 4179 35 F 36:44.3 11:51/M
2583 Lisa Perry Wyandotte MI 6630 27 F 36:44.6 11:51/M
2584 Ally Rooker Ann Arbor MI 6896 19 F 36:45.0 11:51/M
2585 Danielle Laroche Brighton MI 4907 23 F 36:45.9 11:51/M
2586 Courtney Reed Ann Arbor MI 5534 26 F 36:45.9 11:51/M
2587 Jill Lohr Bloomfield Hills MI 6036 56 F 36:46.4 11:52/M
2588 Erin Moulton Ypsilanti MI 6384 35 F 36:47.5 11:52/M
2589 Nora Hall Belleville MI 4315 28 F 36:47.9 11:52/M
2590 Lisa Simon Ann Arbor MI 8378 45 F 36:48.0 11:52/M
2591 Brenda Kitz Garden City MI 4786 45 F 36:48.0 11:52/M
2592 Karen Rooker Fenton MI 6897 51 F 36:48.2 11:52/M
2593 Kristen May Birmingham MI 6164 39 F 36:48.2 11:52/M
2594 Megan Sandison Dearborn MI 6975 26 F 36:48.4 11:52/M
2595 Madeline McGee Crystal MI 6205 7 F 36:49.1 11:53/M
2596 Erin Sekely Dearborn MI 7060 22 F 36:50.2 11:53/M
2597 Tracie Misiak Canton MI 6330 49 F 36:50.2 11:53/M
2598 Ryan Belville Dearborn Heights MI 3242 24 M 36:50.7 11:53/M
2599 scott hammond Linden MI 4328 47 M 36:51.8 11:53/M
2600 Eric VanDyne Lyons MI 7507 38 M 36:52.1 11:54/M
 
Place Name City Bib No Age Gender Total Time Pace
2601 Kerry Meggison Ann Arbor MI 6243 34 F 36:52.4 11:54/M
2602 Rebekka McGee Crystal MI 6206 33 F 36:52.8 11:54/M
2603 Ana Clara Duran Ann Arbor MI 367 30 F 36:53.0 11:54/M
2604 dennis berke novi MI 3263 46 M 36:53.6 11:54/M
2605 Diane Telgen Canton MI 7382 46 F 36:54.0 11:54/M
2606 Shay Bachman Ann Arbor MI 3132 41 F 36:54.2 11:54/M
2607 Clare Sansburn Ann Arbor MI 6978 39 F 36:57.5 11:55/M
2608 Brent Johnson Milan MI 4610 26 M 36:58.7 11:55/M
2609 Kathie Wolney Ann Arbor MI 7744 39 F 36:59.2 11:56/M
2610 robin gillis 5702 42 F 36:59.6 11:56/M
2611 Danielle Platte Kentwood MI 6666 27 F 37:00.3 11:56/M
2612 Kami Swenson Plymouth MI 7330 38 F 37:00.6 11:56/M
2613 Vanessa Baldwin Sterling MI 7858 26 F 37:00.7 11:56/M
2614 Mary Ellen Sexton Hyannis MA 8367 56 F 37:00.9 11:56/M
2615 Julie Birchmeier Milan MI 3285 40 F 37:01.0 11:56/M
2616 Caleigh Aigler Tiffin OH 3030 8 F 37:01.6 11:56/M
2617 Gary O'Hotzke Manchester MI 6514 44 M 37:01.7 11:56/M
2618 Joe Delgado The Woodlands TX 3792 56 M 37:01.7 11:56/M
2619 Stephanie Dush Saint Johns MI 8700 38 F 37:01.9 11:56/M
2620 Jeffrey Backoski Williamston MI 3136 31 M 37:02.1 11:57/M
2621 Carrie Aigler Tiffin OH 3031 29 F 37:03.7 11:57/M
2622 Kimberly Haman Milan MI 4322 33 F 37:03.9 11:57/M
2623 Mark Bradford Fraser MI 8591 50 M 37:04.1 11:57/M
2624 Helen Levy Ann Arbor MI 8869 42 F 37:04.1 11:57/M
2625 Amber Trongo Westland MI 8456 30 F 37:04.4 11:57/M
2626 Jennifer Early East Lansing MI 3897 37 F 37:06.1 11:58/M
2627 Katy Lemmer Ypsilanti MI 5426 11 F 37:06.8 11:58/M
2628 Joseph Sickler Limerick PA 7107 22 M 37:07.0 11:58/M
2629 Melissa Campbell West Bloomfield MI 3484 42 F 37:07.9 11:58/M
2630 emma lister ann arbor MI 8876 8 F 37:08.8 11:59/M
2631 Meghan Lemmer Ypsilanti MI 5427 24 F 37:09.2 11:59/M
2632 Shubhum Sidhar West Bloomfield MI 5067 0 M 37:09.3 11:59/M
2633 Tracy Olowinski Fraser MI 6522 0 F 37:10.1 11:59/M
2634 akihide kobayashi Northville MI 8154 53 M 37:10.1 11:59/M
2635 Joseph Coolon Ann Arbor MI 3641 29 M 37:12.9 12:00/M
2636 Yukiko Harris Ann Arbor MI 8777 47 F 37:13.7 12:00/M
2637 Kraig Stevenson Ann Arbor MI 3642 27 M 37:15.1 12:01/M
2638 Diane Pokorski St. Clair Shores MI 6672 39 F 37:15.1 12:01/M
2639 Ashley Pokorski St. Clair Shores MI 6671 11 F 37:15.1 12:01/M
2640 Ellie Stark Lakeland MI 7265 8 F 37:15.8 12:01/M
2641 Kathy Stark Lakeland MI 7266 40 F 37:15.8 12:01/M
2642 Jarrod Sandel Ann Arbor MI 5039 28 M 37:16.2 12:01/M
2643 Jamie Mayo Ypsilanti MI 6169 33 F 37:16.3 12:01/M
2644 WASSIM ZRIKEM ANN ARBOR MI 7825 11 M 37:16.6 12:01/M
2645 Diane Montie Dimondale MI 6350 59 F 37:17.1 12:02/M
2646 Jackie Novak Ann Arbor MI 8255 26 F 37:17.2 12:02/M
2647 kelli gibbs Westland MI 2215 33 F 37:17.9 12:02/M
2648 Ryan Schumaker Belleville MI 7031 30 M 37:17.9 12:02/M
2649 Rachel Muller Livonia MI 5479 25 F 37:18.9 12:02/M
2650 Eric Jaeger Ann Arbor MI 4578 57 M 37:19.2 12:02/M
2651 David Manuel Lisle IL 6103 38 M 37:19.6 12:02/M
2652 Thomas Ward Novi MI 8479 12 M 37:20.3 12:03/M
2653 Dina McMenamin Warren MI 6228 38 F 37:20.3 12:03/M
2654 Jannet Provost Ellsworth MI 6718 51 F 37:20.4 12:03/M
2655 Abby Taylor Hastings MI 7369 45 F 37:20.7 12:03/M
2656 Emma Sortor dexter MI 5091 9 F 37:20.7 12:03/M
2657 Derek Gibbs Westland MI 8036 36 M 37:21.4 12:03/M
2658 Violet Taba Windsor ON 7346 32 F 37:22.3 12:03/M
2659 Cliff Rowley Pinckney MI 6921 57 M 37:22.3 12:03/M
2660 Laura Rozycki South Lyon MI 6926 48 F 37:22.4 12:03/M
2661 Sara Provost Kalamazoo MI 6719 25 F 37:22.7 12:03/M
2662 Andrew Renner South Lyon MI 5537 9 M 37:22.7 12:03/M
2663 Jennifer Renner South Lyon MI 5538 35 F 37:23.4 12:04/M
2664 Stephen Jackson Westland MI 4566 36 M 37:24.7 12:04/M
2665 Nicholaus Pinkelman Ann Arbor MI 6660 9 M 37:25.8 12:04/M
2666 Donia Mueller Ypsilanti MI 6392 46 F 37:26.2 12:05/M
2667 Kathy VanderMarkt Jenison MI 7503 57 F 37:26.4 12:05/M
2668 Ashley Earle Saginaw MI 3893 27 F 37:26.4 12:05/M
2669 Jeffrey Perin Ypsilanti MI 6620 43 M 37:26.8 12:05/M
2670 Alyson Oslin Ann Arbor MI 6552 28 F 37:27.6 12:05/M
2671 Danielle Westbay Southgate MI 7650 35 F 37:27.8 12:05/M
2672 Jennifer Sortor Dexter MI 5092 38 F 37:28.1 12:05/M
2673 Melissa Harrison Walled Lake MI 593 29 F 37:28.1 12:05/M
2674 Sarah Pinkelman Ann Arbor MI 6661 42 F 37:28.4 12:05/M
2675 Keith Truitt Brighton MI 7453 10 M 37:28.8 12:05/M
2676 Laura Schnob Westland MI 7021 33 F 37:28.9 12:05/M
2677 Jennifer Moore Ann Arbor MI 5475 50 F 37:29.1 12:05/M
2678 Tim Hess Alto MI 4439 41 M 37:29.1 12:05/M
2679 Krissa Rumsey Milan MI 8335 41 F 37:30.1 12:06/M
2680 Nirav Acharya Ann Arbor MI 3009 29 M 37:30.4 12:06/M
2681 Nick Hess Alto MI 4438 16 M 37:30.6 12:06/M
2682 Nichol Hopkins Ann Arbor MI 4510 34 F 37:30.7 12:06/M
2683 Bonnie Brickett Ann Arbor MI 8599 57 F 37:30.8 12:06/M
2684 James Bengtson Ann Arbor MI 8575 59 M 37:30.9 12:06/M
2685 Ella Mosher 5919 13 F 37:31.0 12:06/M
2686 Christeen Colter Ann Arbor MI 3622 36 F 37:31.9 12:06/M
2687 Julie Cohen South Lyon MI 3613 31 F 37:32.5 12:06/M
2688 Kelly Roberts Fenton MI 6846 19 F 37:33.7 12:07/M
2689 Julie Fitzgibbons Jackson MI 4032 8 F 37:34.1 12:07/M
2690 carina mcgraw allen park MI 8910 27 F 37:34.4 12:07/M
2691 John Daniels Farmington MI 307 12 M 37:34.5 12:07/M
2692 Matthew Rollins Westland MI 6893 37 M 37:34.9 12:07/M
2693 Ellie Katz Ypsilanti MI 4699 37 F 37:34.9 12:07/M
2694 Colleen Roberts 5868 17 F 37:34.9 12:07/M
2695 Hannah Wing Ypsilanti MI 7715 24 F 37:35.4 12:07/M
2696 Mary Ernst Novi MI 3946 32 F 37:36.1 12:08/M
2697 Mike Michon Plymouth MI 6281 56 M 37:36.2 12:08/M
2698 Vanessa Debus Ypsilanti MI 3782 25 F 37:37.7 12:08/M
2699 Dennis Kirkwood ANN ARBOR MI 4785 63 M 37:37.8 12:08/M
2700 heather bonnewit ann arbor MI 3319 42 F 37:38.8 12:08/M
 
Place Name City Bib No Age Gender Total Time Pace
2701 Carrie Nimmo Shelby Township MI 6480 32 F 37:40.0 12:09/M
2702 Kimberly Cullen Swartz Creek MI 5278 0 F 37:40.3 12:09/M
2703 Katelyn Kaliszewski Woodhaven MI 4671 21 F 37:41.1 12:09/M
2704 Chad Baker Brighton MI 3153 39 M 37:41.2 12:09/M
2705 Kathy Rogers Elyria OH 6885 28 F 37:41.3 12:09/M
2706 Ginny Trocchio Dexter MI 7450 38 F 37:41.4 12:09/M
2707 Christena Koester Brownstown MI 8837 31 F 37:41.5 12:09/M
2708 L G MI 5339 8 F 37:42.2 12:10/M
2709 Kelly Bronski Royal Oak MI 3383 33 F 37:42.8 12:10/M
2710 Renee Heath Tecumseh MI 8079 0 F 37:42.8 12:10/M
2711 D Greer Northville MI 5357 40 M 37:43.0 12:10/M
2712 Kevin Watts Dearborn MI 7610 34 M 37:43.2 12:10/M
2713 Irene Watss Dearborn MI 7609 34 F 37:43.6 12:10/M
2714 Jeff Wojcik Chicago IL 5166 39 M 37:43.6 12:10/M
2715 Linda Rowley Rives Junction MI 5550 61 F 37:44.2 12:10/M
2716 Lee Mitchell Dexter MI 5706 33 F 37:44.5 12:10/M
2717 Paul Dickey Dexter MI 7979 42 M 37:44.5 12:10/M
2718 Ted Welling Ann Arbor MI 7640 43 M 37:44.6 12:10/M
2719 Catherine Meldrum Pinckney MI 8918 0 F 37:44.7 12:10/M
2720 Christi Fiedler Port Huron MI 5322 35 F 37:44.8 12:10/M
2721 Lexi Heath Dexter MI 8077 13 F 37:45.0 12:11/M
2722 Katy Ross Ann Arbor MI 6907 13 F 37:45.9 12:11/M
2723 C Greer Northville MI 5356 40 F 37:46.1 12:11/M
2724 jarrad mitchell 5704 31 M 37:46.3 12:11/M
2725 Jule Dickey Dexter MI 7978 42 F 37:46.9 12:11/M
2726 Robert Mitchell 5705 58 M 37:48.1 12:12/M
2727 Dawn Dalessandro Southgate MI 300 53 F 37:48.5 12:12/M
2728 Rachel Naasko Ann Arbor MI 6424 36 F 37:49.0 12:12/M
2729 Andrea Schroeder Ypsilanti MI 7024 ** F 37:49.0 12:12/M
2730 Catherine Habes St. Charles IL 8767 62 F 37:50.1 12:12/M
2731 Kylie Mount Ludington MI 8941 14 F 37:50.4 12:12/M
2732 Michaela McArthur Grosse Pointe MI 6178 28 F 37:50.7 12:12/M
2733 Lauren Wojcik Chicago IL 5167 36 F 37:50.7 12:12/M
2734 Marco Luna-Gen Berkley MI 6056 10 M 37:51.1 12:13/M
2735 Mia Wojcik Chicago IL 5168 2 F 37:51.4 12:13/M
2736 Jessica Taranto Lansing MI 7365 37 F 37:51.5 12:13/M
2737 Robert Habes St. Charles IL 8768 65 M 37:51.7 12:13/M
2738 giuseppe cusumano huntington woods MI 3719 36 M 37:51.8 12:13/M
2739 Jordyn Sanders Ludington MI 6973 14 F 37:52.0 12:13/M
2740 Vivian Ross 5844 8 F 37:53.8 12:13/M
2741 Angie Hall Milan MI 8056 50 F 37:54.3 12:14/M
2742 Carrie Atkinsom Dundee MI 3117 0 F 37:54.7 12:14/M
2743 Claudia Lozon 5731 10 F 37:57.1 12:15/M
2744 Sue Massuch New Hudson MI 6153 51 F 37:57.7 12:15/M
2745 Gretchen Kronsbein Novi MI 4848 36 F 37:58.7 12:15/M
2746 Kathrin Costello New Hudson MI 8650 32 F 37:58.8 12:15/M
2747 Tishia Hardy ann arbor MI 5369 26 F 37:59.4 12:15/M
2748 Tara Freni Ann Arbor MI 8023 23 F 37:59.7 12:15/M
2749 Rachel Matteson Ann Arbor MI 8895 0 F 38:00.2 12:15/M
2750 Megan Wietfeld Canton MI 7682 39 F 38:01.8 12:16/M
2751 corinne courtright ann arbor MI 7958 6 F 38:02.3 12:16/M
2752 Jorge Luna-Gen Berkley MI 6055 40 M 38:02.4 12:16/M
2753 lauren courtright ann arbor MI 7961 9 F 38:02.7 12:16/M
2754 Dawn Daniels Farmmington MI 306 35 F 38:03.5 12:16/M
2755 Amanda Nephew Ann Arbor MI 6451 30 F 38:03.6 12:16/M
2756 john courtright ann arbor MI 7960 41 M 38:03.6 12:16/M
2757 jessica courtright ann arbor MI 7959 7 F 38:03.9 12:16/M
2758 Donald Parrish Canton MI 6577 40 M 38:05.8 12:17/M
2759 Gerald Colon Britton MI 8645 27 M 38:06.3 12:17/M
2760 Richard Massuch New Hudson MI 6152 54 M 38:06.5 12:17/M
2761 Megan MacNeill Grand Blanc MI 8886 22 F 38:06.7 12:17/M
2762 Rahiem Hampton Ann Arbor MI 8067 30 M 38:10.6 12:19/M
2763 Evan Kleinhenz Tiffin OH 5412 7 M 38:12.0 12:19/M
2764 Pete Kleinhenz Tiffin OH 5414 58 M 38:12.3 12:19/M
2765 Michael Wright Huntington Woods MI 8517 1 M 38:12.4 12:19/M
2766 Mary Hayes Milford MI 8783 51 F 38:13.1 12:20/M
2767 Joyce Haner East Lansing MI 4333 62 F 38:14.6 12:20/M
2768 Kinsleigh Sleep Southgate MI 7164 15 F 38:14.8 12:20/M
2769 Matt Feltner Wyandotte MI 8718 24 M 38:14.8 12:20/M
2770 Abel Walkotten Holland MI 7566 5 M 38:14.9 12:20/M
2771 Jaclyn Kleinhenz Wyandotte MI 5413 27 F 38:15.1 12:20/M
2772 Candace Kleinhenz Wyandotte MI 8831 24 F 38:15.1 12:20/M
2773 Kenny McBride Wyandotte MI 5451 29 M 38:15.9 12:20/M
2774 Renea Walkotten Holland MI 7569 38 F 38:16.3 12:21/M
2775 Amanda Lowe Ypsilanti MI 8883 41 F 38:16.5 12:21/M
2776 Kathy Halsey Dexter MI 4321 40 F 38:17.0 12:21/M
2777 lexus mucna 5934 14 F 38:17.4 12:21/M
2778 Yasin Unlu Ann Arbor MI 8460 31 M 38:17.6 12:21/M
2779 Corrie Perry Redford MI 8289 29 F 38:18.1 12:21/M
2780 Effie Ogoe Canton MI 5494 33 F 38:18.1 12:21/M
2781 Daniel Piippo Ypsilanti MI 6657 29 M 38:18.3 12:21/M
2782 Derk Walkotten Holland MI 7568 40 M 38:18.5 12:21/M
2783 Avery Walkotten Holland MI 7567 7 F 38:18.6 12:21/M
2784 kristen macgregor ann arbor MI 6072 26 F 38:18.6 12:21/M
2785 Stephanie Teves ann arbor MI 7396 31 F 38:18.7 12:21/M
2786 Sue Renfer Addison MI 6800 27 F 38:18.7 12:21/M
2787 Reilei Van Alsburg Ann Arbor MI 5125 13 F 38:19.7 12:22/M
2788 Janice Hemenway East Lansing MI 4412 61 F 38:19.7 12:22/M
2789 April Behm Commerce Twp MI 3231 37 F 38:19.8 12:22/M
2790 Sarah Holley Ann Arbor MI 8797 0 F 38:19.9 12:22/M
2791 Bill Kwasniak Dearborn Heights MI 8853 33 M 38:20.9 12:22/M
2792 Shawna Fleming Farmington MI 4039 33 F 38:21.7 12:22/M
2793 Allison Piippo Ypsilanti MI 6656 29 F 38:21.8 12:22/M
2794 Liam Ruff 5877 10 M 38:23.1 12:23/M
2795 Deanna Petkoff Troy MI 6636 32 F 38:23.2 12:23/M
2796 Renee Lintern Lake Orion MI 6013 37 F 38:23.3 12:23/M
2797 Phillip Lintern Lake Orion MI 6012 39 M 38:23.3 12:23/M
2798 Patti Biggs Ann Arbor MI 3280 50 F 38:23.4 12:23/M
2799 Maureen Sertich Ann Arbor MI 7068 30 F 38:23.6 12:23/M
2800 Adam Wright 5683 29 M 38:24.0 12:23/M
 
Place Name City Bib No Age Gender Total Time Pace
2801 Kristin Lozon 5730 45 F 38:24.8 12:23/M
2802 Jonathan Newby Chesterfield Twp MI 6455 24 M 38:24.9 12:23/M
2803 Logan Levasseur Tecumseh ON 8867 11 M 38:25.2 12:24/M
2804 James Carlson Flint MI 3500 66 M 38:25.4 12:24/M
2805 Laura Yarckow Onsted MI 7783 31 F 38:26.2 12:24/M
2806 Nancy Driscoll Holly MI 3861 64 F 38:27.3 12:24/M
2807 Kerrie Kwasniak Dearborn Heights MI 8854 27 F 38:27.7 12:24/M
2808 nicole hall 5682 29 F 38:27.8 12:24/M
2809 Fred Steuber Howell MI 7287 44 M 38:28.2 12:25/M
2810 Lisa Wright Huntington Woods MI 7770 37 F 38:28.3 12:25/M
2811 Henry Rebandt Canton MI 6782 49 M 38:28.4 12:25/M
2812 Michele Driscoll Maybee Howell MI 3862 39 F 38:28.6 12:25/M
2813 jennifer fornell 5878 30 F 38:30.5 12:25/M
2814 Mason Steuber Howell MI 7288 3 M 38:30.5 12:25/M
2815 Christian Nichols Howell MI 6467 10 M 38:30.7 12:25/M
2816 Lauren Nichols Howell MI 6469 12 F 38:30.9 12:25/M
2817 Melissa Steuber Howell MI 8412 2 F 38:31.2 12:25/M
2818 Kathleen Barden 3349 58 F 38:31.9 12:25/M
2819 Katie Valasek Owosso MI 5123 28 F 38:32.5 12:26/M
2820 Michael Roch livonia MI 6866 41 M 38:32.6 12:26/M
2821 Mckenna roch livonia MI 6865 12 F 38:32.6 12:26/M
2822 John Reilly Bloomfield Hills MI 8316 54 M 38:33.1 12:26/M
2823 Valerie Tesmer Ann Arbor MI 7393 43 F 38:33.1 12:26/M
2824 Rosemarie Reilly Bloomfield Hills MI 8317 52 F 38:33.3 12:26/M
2825 Laurel Brady northville MI 3355 52 F 38:33.4 12:26/M
2826 Saudia Major Ann Arbor MI 5443 37 F 38:33.4 12:26/M
2827 laura giles 5681 47 F 38:34.4 12:26/M
2828 Julie Austin Ann Arbor MI 5198 29 F 38:34.6 12:26/M
2829 Cecilia Sauter Ann Arbor MI 5046 48 F 38:34.7 12:26/M
2830 Gary coe canton MI 8640 43 M 38:36.0 12:27/M
2831 Ben Lane 5800 0 M 38:37.6 12:27/M
2832 Joseph Johnson Ann Arbor MI 4616 34 M 38:37.9 12:27/M
2833 Steven Zimmer Chelsea MI 7820 45 M 38:38.1 12:28/M
2834 Diana Obradovich Howell MI 6497 27 F 38:38.5 12:28/M
2835 Chad Osborne Belleville MI 6543 40 M 38:39.1 12:28/M
2836 Karen Reid clarkston MI 6795 49 F 38:39.3 12:28/M
2837 Brian Zimmer Ann Arbor MI 5180 46 M 38:39.3 12:28/M
2838 Nicole Lane Northville MI 4895 38 F 38:40.9 12:28/M
2839 Sue Zieske Linden MI 8532 44 F 38:41.3 12:29/M
2840 cassidy mullins 5894 12 F 38:42.3 12:29/M
2841 Jennifer Nichols Canton MI 8249 33 F 38:43.1 12:29/M
2842 Yvonne Flynn New Lothrop MI 4052 58 F 38:43.8 12:29/M
2843 Brigid Essenberg South Lyon MI 5313 0 F 38:44.7 12:30/M
2844 Sara Schafer Livonia MI 8352 40 F 38:45.0 12:30/M
2845 Thomas Rose Battle Creek MI 6901 22 M 38:45.8 12:30/M
2846 Vilma Mesa Ann Arbor MI 6262 48 F 38:47.8 12:31/M
2847 Gloria Burns Flint MI 3438 60 F 38:47.9 12:31/M
2848 hannah banfield lincoln park MI 3167 20 F 38:48.5 12:31/M
2849 Jennifer nordin Plymouth MI 8251 41 F 38:48.5 12:31/M
2850 mark rose 2560 55 M 38:50.7 12:32/M
2851 Tiffany Sadowski Lincoln Park MI 6955 21 F 38:52.5 12:32/M
2852 Victoria Emch Ypsilanti MI 3930 39 F 38:53.3 12:33/M
2853 Kara Osborne Detroit MI 1102 29 F 38:53.8 12:33/M
2854 Mark Osborne Ypsilanti MI 1103 52 M 38:54.7 12:33/M
2855 Rebekah O'Connor Taylor MI 8260 27 F 38:54.7 12:33/M
2856 Kate Lilly Ann Arbor MI 6002 26 F 38:54.8 12:33/M
2857 Adam Lanseur Ypsilanti MI 4901 23 M 38:56.0 12:34/M
2858 Sheryl Faix Ann Arbor MI 3971 59 F 38:57.4 12:34/M
2859 Susan Montgomery Ann Arbor MI 6349 46 F 38:58.1 12:34/M
2860 Brooke Reid ann arbor MI 5536 30 F 38:58.9 12:34/M
2861 kathy racine Ann Arbor MI 6739 64 F 38:59.1 12:35/M
2862 Jennifer Pellegrini Ann Arbor MI 8286 33 F 38:59.7 12:35/M
2863 ERIC VANBUSKIRK SYLVANIA OH 7496 28 M 38:59.8 12:35/M
2864 Alexander Dennis Saline MI 8673 12 M 39:00.2 12:35/M
2865 Brian Dennis Saline MI 8674 48 M 39:01.0 12:35/M
2866 Casey Smith Muskegon MI 7177 31 F 39:01.4 12:35/M
2867 Mary Anne Chadwick Farmington Hills MI 3537 59 F 39:01.9 12:35/M
2868 Andrew Crutchfield Ann Arbor MI 3709 25 M 39:04.9 12:36/M
2869 Kimberly Blaska Tecumseh MI 3300 34 F 39:06.9 12:37/M
2870 Stephanie Dinius Tecumseh MI 3831 30 F 39:08.1 12:37/M
2871 Krystin Engelter ypsilanti MI 3934 27 F 39:09.0 12:38/M
2872 Shelley Knowlan Waldron MI 4804 48 F 39:09.0 12:38/M
2873 Todd Howell Farmington Hills MI 8102 42 M 39:10.3 12:38/M
2874 Katie Krushelnick Ann Arbor MI 4859 8 F 39:10.8 12:38/M
2875 Tina Gray Ann Arbor MI 5355 50 F 39:12.8 12:39/M
2876 Greg Lewis Ann Arbor MI 4988 48 M 39:12.9 12:39/M
2877 Ian Lewis Ann Arbor MI 4989 7 M 39:13.2 12:39/M
2878 SORAYA ZRIKEM ANN ARBOR MI 7824 12 F 39:14.0 12:39/M
2879 Amy Osborne Belleville MI 6542 38 F 39:14.3 12:39/M
2880 Kellie Donajkowski Ann Arbor MI 3837 22 F 39:14.9 12:39/M
2881 OUAFA EL OUADILI ANN ARBOR MI 3913 49 F 39:15.1 12:40/M
2882 Reem Bazzi Dearborn Heights MI 3213 25 F 39:15.9 12:40/M
2883 james siskosky novi MI 7140 66 M 39:16.9 12:40/M
2884 YOUSSEF ZRIKEM ANN ARBOR MI 7826 50 M 39:17.0 12:40/M
2885 Cheryl Warren Dimondale MI 7592 46 F 39:17.7 12:40/M
2886 Jessica Nelson Saline MI 6445 34 F 39:18.9 12:41/M
2887 Sarah Baybeck Ann Arbor MI 3211 8 F 39:19.2 12:41/M
2888 Randall Thomas Wayne MI 7407 32 M 39:19.4 12:41/M
2889 Roberta Niedson Ypsilanti MI 6475 51 F 39:19.6 12:41/M
2890 Renay Thomas Wayne MI 7408 30 F 39:20.0 12:41/M
2891 Paula Rivera-Kerr Dearborn MI 6840 0 F 39:20.7 12:41/M
2892 Valaria Sunday Flushing MI 7320 28 F 39:23.1 12:42/M
2893 Lisa Patten Trenton MI 6590 44 F 39:23.4 12:42/M
2894 Eva Vizzini Saline MI 7535 54 F 39:24.7 12:43/M
2895 Shelley Abraham Allegan MI 3005 41 F 39:25.0 12:43/M
2896 Katie Peat Union MI 8975 40 F 39:27.3 12:44/M
2897 Heather Jose Lake Isabella MI 5408 39 F 39:28.3 12:44/M
2898 Mary Post Auburn MI 6691 62 F 39:28.7 12:44/M
2899 Jen Weatherson Ann Arbor MI 7612 34 F 39:29.8 12:44/M
2900 Heather Bowen Midland MI 5231 21 F 39:30.7 12:45/M
 
Place Name City Bib No Age Gender Total Time Pace
2901 David Thomas Ann Arbor MI 7403 0 M 39:32.5 12:45/M
2902 Grant Ellis bloomfield hills MI 5309 12 M 39:33.4 12:45/M
2903 Cristina Munoz Ann Arbor MI 6402 26 F 39:34.2 12:46/M
2904 Matthew Borck Bloomfield Hills MI 5226 12 M 39:35.1 12:46/M
2905 Melyssa Secor Bay City MI 7051 17 F 39:35.4 12:46/M
2906 Rae Platte Ann Arbor MI 8993 28 F 39:36.1 12:46/M
2907 Jennifer Drabek Livonia MI 3855 29 F 39:36.6 12:46/M
2908 Eric Anderson Ann Arbor MI 3067 54 M 39:37.3 12:47/M
2909 JESSICA BOBEE Canton MI 3304 28 F 39:37.4 12:47/M
2910 Ed Ellis Bloomfield Hills MI 5308 0 M 39:38.6 12:47/M
2911 Adam Stechschulte Fort Jennings OH 7271 32 M 39:39.1 12:47/M
2912 Richard Fitzgerald Canton MI 5327 37 M 39:39.7 12:47/M
2913 Stacey Platte Chevy Chase MD 8994 30 F 39:39.9 12:47/M
2914 Kara Stechschulte Fort Jennings OH 7272 31 F 39:40.3 12:48/M
2915 Robert Radford Woodhaven MI 6746 31 M 39:41.4 12:48/M
2916 anne Kubek San Rafael CA 825 0 F 39:41.7 12:48/M
2917 Michelle Carter Sterling heights MI 3520 24 F 39:42.1 12:48/M
2918 Bryan Carter Sterling heights MI 3518 27 M 39:42.2 12:48/M
2919 Diana Radford Woodhaven MI 6745 29 F 39:42.3 12:48/M
2920 Sue Vitale Monroe MI 7533 42 F 39:43.7 12:49/M
2921 Stanley Sieler Monroe MI 7115 65 M 39:44.0 12:49/M
2922 Lisa Brown Manchester MI 3397 45 F 39:44.0 12:49/M
2923 srwzn weingarten 2563 4 M 39:44.2 12:49/M
2924 Rocio Cardenas Ann Arbor MI 3496 28 F 39:44.7 12:49/M
2925 Micki Berg onsted MI 3259 41 F 39:44.7 12:49/M
2926 Michelle Norwood Troy MI 8253 38 F 39:45.6 12:49/M
2927 Jolene Lee howell MI 5425 36 F 39:46.7 12:50/M
2928 trah weingarten 2564 0 F 39:47.0 12:50/M
2929 Julia Martin Chesaning MI 6137 9 F 39:47.5 12:50/M
2930 Thomas Noonan Farmington Hills MI 5488 39 M 39:48.2 12:50/M
2931 Andrea Garrett Stockbridge MI 4146 47 F 39:48.6 12:50/M
2932 MARISA PAUPORE South Lyon MI 6594 28 F 39:48.7 12:50/M
2933 Jessica Mellinger Ann Arbor MI 8217 34 F 39:49.0 12:51/M
2934 Carley Martin Chesaning MI 6129 6 F 39:49.9 12:51/M
2935 Bobby Russell Mi.an MI 8337 40 M 39:50.0 12:51/M
2936 Sharlene D'Souza Ann Arbor MI 3869 29 F 39:50.1 12:51/M
2937 Brenda Martin Chesaning MI 6127 37 F 39:50.7 12:51/M
2938 Carrie Ruf Warren MI 6930 38 F 39:51.0 12:51/M
2939 Kelly Miller Ottoville OH 5677 51 F 39:51.4 12:51/M
2940 Pamela McCaskill Northville MI 6184 42 F 39:51.9 12:51/M
2941 Joanie Leider Farmington Hills MI 4957 20 F 39:52.7 12:52/M
2942 Lynn Kujawa Westland MI 4866 35 F 39:52.8 12:52/M
2943 Sarah Mason Belleville MI 6149 25 F 39:53.0 12:52/M
2944 Matt Kieffer Chesaning MI 4755 9 M 39:53.2 12:52/M
2945 Teresa Merritt Grand Blanc MI 6260 50 F 39:54.0 12:52/M
2946 Kelly Taylor Southfield MI 7374 29 F 39:54.0 12:52/M
2947 Camilla Medel-Mayer Saginaw MI 6239 54 F 39:56.0 12:53/M
2948 Ashley Goldenberg Ann Arbor MI 8753 20 F 39:56.7 12:53/M
2949 janie quinn 2506 42 F 39:58.3 12:54/M
2950 Jonathan Freedman 5804 57 M 39:58.4 12:54/M
2951 Karly Stillman West Bloomfield MI 5099 20 F 39:58.5 12:54/M
2952 Wan-Chin Lee Ann Arbor MI 4950 26 F 40:00.7 12:54/M
2953 Te-Ping Kang Ann Arbor MI 4682 28 M 40:01.6 12:55/M
2954 Derrick Campbell Ypsilanti MI 3482 28 M 40:02.1 12:55/M
2955 John Sheets Jackson MI 7084 49 M 40:02.8 12:55/M
2956 Jane Morgan Waterville OH 6364 53 F 40:02.9 12:55/M
2957 Tess Lin Ann Arbor MI 6006 28 F 40:04.3 12:55/M
2958 julianne zinn 2567 52 F 40:06.1 12:56/M
2959 Fritz Reifert Ypsilanti MI 6797 57 M 40:06.3 12:56/M
2960 Thomas Zempel 5769 71 M 40:06.6 12:56/M
2961 Lisa Reifert Ypsilanti MI 6798 54 F 40:06.6 12:56/M
2962 Kathleen Ford Ann Arbor MI 4065 56 F 40:07.7 12:56/M
2963 Yumi Oshikiri Northville MI 6551 23 F 40:08.0 12:57/M
2964 Timothy Applegate Grand Blanc MI 3092 31 M 40:09.3 12:57/M
2965 Kristen McCurry Ann Arbor MI 6198 25 F 40:09.7 12:57/M
2966 Sara Applegate Grand Blanc MI 3091 31 F 40:11.4 12:58/M
2967 Christa Helbing Toledo OH 8082 33 F 40:11.8 12:58/M
2968 Julie Bensinger Canton MI 7878 48 F 40:12.1 12:58/M
2969 Kristen Cochran Ypsilanti MI 3610 37 F 40:12.4 12:58/M
2970 Susan Bjoraker Canton MI 8585 48 F 40:14.1 12:59/M
2971 Jason Sterioff Westland MI 5096 32 M 40:14.2 12:59/M
2972 Wendy Cerimele Saline MI 7926 44 F 40:14.3 12:59/M
2973 Mike Barone Garden City MI 7864 53 M 40:14.8 12:59/M
2974 DANIELA HEINZ YPSILANTI MI 8786 35 F 40:15.6 12:59/M
2975 Ellen Lee Ann Arbor MI 4942 41 F 40:16.5 12:59/M
2976 Joan Tibai Carleton MI 7424 44 F 40:17.1 13:00/M
2977 Nicole Stanley Farmington Hills MI 7264 27 F 40:17.3 13:00/M
2978 Mia Solomon Ann Arbor MI 7217 7 F 40:17.3 13:00/M
2979 Heather Oleniczak Ann Arbor MI 5499 34 F 40:18.1 13:00/M
2980 Diane McDowell Hudsonville MI 6200 51 F 40:18.8 13:00/M
2981 Paul Batchelor Hillsdale MI 3202 53 M 40:19.0 13:00/M
2982 Cameron Novar Ann Arbor MI 8958 12 F 40:19.4 13:00/M
2983 Brian Bundesen Ann Arbor MI 3425 55 M 40:20.1 13:01/M
2984 Camryn Branch Ann arbor MI 8595 13 F 40:21.1 13:01/M
2985 Julia Sheehan Ann Arbor MI 5562 12 F 40:21.3 13:01/M
2986 Daniel Zeimet Ann Arbor MI 7804 11 M 40:21.8 13:01/M
2987 Elizabeth Tibai Ann Arbor MI 7423 25 F 40:21.9 13:01/M
2988 Derek Finley Canton MI 5326 38 M 40:23.3 13:02/M
2989 maria canamore 2209 34 F 40:24.6 13:02/M
2990 Laura Wyatt Dearborn MI 5627 40 F 40:24.6 13:02/M
2991 Susan Newell Hopkins MI 6457 59 F 40:25.0 13:02/M
2992 Holli Bertram Ann Arbor MI 3271 54 F 40:27.5 13:03/M
2993 Katie Mulligan South Lyon MI 6397 24 F 40:28.1 13:03/M
2994 Erin Ranville Ann Arbor MI 5006 41 F 40:28.3 13:03/M
2995 Rachel Sigsbey Ann Arbor MI 7118 30 F 40:29.0 13:04/M
2996 Ann Mooney Ann Arbor MI 6355 59 F 40:30.5 13:04/M
2997 Julie Hodges Milan MI 4482 37 F 40:30.9 13:04/M
2998 Corey Hodges Milan MI 4481 13 M 40:31.3 13:04/M
2999 Deedee Varick Ann Arbor MI 5606 34 F 40:31.8 13:04/M
3000 Brittney Hall Southfield MI 4312 26 F 40:32.6 13:05/M
 
Place Name City Bib No Age Gender Total Time Pace
3001 khelli wade 2568 26 F 40:34.6 13:05/M
3002 Jacqueline Arita Ann Arbor MI 5195 32 F 40:35.6 13:05/M
3003 Anthony Emanuele Riverview MI 3928 24 M 40:36.7 13:06/M
3004 Mary Kate Church Ann Arbor MI 3572 25 F 40:36.7 13:06/M
3005 Susan Bridgman Plymouth MI 5241 42 F 40:37.6 13:06/M
3006 Erin Ennis Taylor MI 3936 28 F 40:39.5 13:07/M
3007 Janet Goldberg Ann Arbor MI 8752 56 F 40:40.1 13:07/M
3008 Robyn Pomerville Riverview MI 6680 25 F 40:41.8 13:07/M
3009 Dina McMullin Brighton MI 8914 51 F 40:43.8 13:08/M
3010 Kriselmir Peshkepia Sterling Heights MI 5517 29 M 40:45.1 13:09/M
3011 Michelle Hill Ypsilanti MI 4463 37 F 40:45.1 13:09/M
3012 Samantha Brooks LaSalle MI 3387 16 F 40:45.9 13:09/M
3013 amanda hall westland MI 4310 0 F 40:46.2 13:09/M
3014 Robert Babion Rochester Hills MI 3126 60 M 40:47.8 13:09/M
3015 Kathryn Babion Northville MI 3125 28 F 40:47.9 13:09/M
3016 Karen Gilbert Dexter MI 8745 43 F 40:50.1 13:10/M
3017 Gail Giannola clinton township MI 4178 46 F 40:50.9 13:10/M
3018 Marisha Sunday Mount Morris MI 7319 31 F 40:51.0 13:11/M
3019 Beverly Turner Ann Arbor MI 7467 62 F 40:52.1 13:11/M
3020 Kristen McCaw Chestefield MI 8903 45 F 40:54.7 13:12/M
3021 Ashley Fiscelli Marysville MI 4020 26 F 40:55.4 13:12/M
3022 Anthony Fiscelli Marysville MI 4019 30 M 40:55.9 13:12/M
3023 Jenni Reader Jackson MI 6776 27 F 40:56.4 13:12/M
3024 Ruth Shamraj Ann Arbor MI 7072 53 F 40:58.1 13:13/M
3025 Natalie Bierl Rochester Hills MI 7882 30 F 41:01.8 13:14/M
3026 Tony Widmer Garden City MI 7675 43 M 41:01.8 13:14/M
3027 Wendy Nemzek Novi MI 6450 37 F 41:02.5 13:14/M
3028 Autumn Widmer Garden City MI 7674 39 F 41:02.7 13:14/M
3029 Jennifer Findeis-Hosey Ann Arbor MI 4014 31 F 41:03.4 13:15/M
3030 Amy Cohn Ann Arbor MI 3614 42 F 41:05.6 13:15/M
3031 Daniel Hosey Ann Arbor MI 4522 33 M 41:05.6 13:15/M
3032 Kelly Frendscho St Charles MI 4099 26 F 41:06.0 13:15/M
3033 Jeannette Canning Ann Arbor MI 5255 17 F 41:06.7 13:15/M
3034 Jackie Ray Chelsea MI 6768 43 F 41:06.9 13:15/M
3035 Rob Finkle Burton MI 8013 0 M 41:06.9 13:15/M
3036 mario perez saginaw MI 6616 28 M 41:07.0 13:16/M
3037 Sandy Hayward Pinckney MI 4390 52 F 41:08.9 13:16/M
3038 Brenda Lee Badish Gregory MI 3147 71 F 41:10.1 13:17/M
3039 christopher potts rives junction MI 6696 50 M 41:10.2 13:17/M
3040 Sara McDowell Grand Blanc MI 8208 37 F 41:10.9 13:17/M
3041 marilyn bradford hartland MI 3350 54 F 41:11.5 13:17/M
3042 William Pomerville Riverview MI 6681 48 M 41:12.0 13:17/M
3043 Jolie Grimes Woodhaven MI 4255 40 F 41:13.6 13:18/M
3044 Jackson Early East Lansing MI 3895 7 M 41:14.0 13:18/M
3045 Michelle Balvanz Bay City MI 3163 31 F 41:14.5 13:18/M
3046 Deborah Evans South Lyon MI 3958 47 F 41:15.1 13:18/M
3047 DENISE ZUCHOWSKI TOLEDO OH 7827 47 F 41:15.4 13:18/M
3048 Jason Early East Lansing MI 3896 37 M 41:15.9 13:18/M
3049 Gary Woodall Ann Arbor MI 5622 48 M 41:16.1 13:19/M
3050 melissa stirn 2218 42 F 41:18.2 13:19/M
3051 Colin Geiman Ann Arbor MI 8033 10 M 41:18.4 13:19/M
3052 Morgan DeLeonard Ann Arbor MI 3791 27 F 41:18.7 13:19/M
3053 Monique Geiman Ann Arbor MI 8034 37 F 41:19.1 13:20/M
3054 Angela Barbash Ypsilanti MI 7861 0 F 41:19.2 13:20/M
3055 cynthia doniger Ann Arbor MI 3839 0 F 41:19.3 13:20/M
3056 Brenda Lee Saline MI 4941 43 F 41:20.1 13:20/M
3057 Susan lickert Ann Arbor MI 4996 38 F 41:20.4 13:20/M
3058 Stephanie Wolfe Pinckney MI 7742 37 F 41:20.4 13:20/M
3059 Georgan Matthews Plymouth MI 8896 58 F 41:20.5 13:20/M
3060 Louis McFall FENTON MI 5452 60 M 41:21.9 13:20/M
3061 Sofie Miller Ann Arbor MI 6307 11 F 41:25.0 13:22/M
3062 Rose Locke Ann Arbor MI 6034 8 F 41:25.8 13:22/M
3063 Steven Sheppard Jackson MI 7092 33 M 41:26.0 13:22/M
3064 Jessica Beacome Farmington MI 5660 36 F 41:27.3 13:22/M
3065 Roxanne McFall Fenton MI 5453 56 F 41:28.1 13:23/M
3066 Dena Ryan Farmington Hills MI 6947 34 F 41:29.3 13:23/M
3067 Sean Beacome Farmington MI 3215 38 M 41:29.6 13:23/M
3068 Brian Mickey Ann Arbor MI 6284 42 M 41:30.7 13:23/M
3069 Kristin Rorick Chesterfield Township MI 6899 32 F 41:33.5 13:24/M
3070 kim Kitzmiller canton MI 4787 48 F 41:36.3 13:25/M
3071 Jim Zittel 2220 48 M 41:36.4 13:25/M
3072 Emily Keizer Spring Lake MI 4722 23 F 41:36.4 13:25/M
3073 Kristin Wildes Ada MI 7693 41 F 41:36.7 13:25/M
3074 Jack Wildes Ada MI 7692 10 M 41:37.1 13:25/M
3075 Joan Rehak Ann Arbor MI 5010 54 F 41:37.3 13:25/M
3076 Olivia Minneboo Saline MI 8932 13 F 41:38.0 13:26/M
3077 Carter Hickson Owosso MI 4451 10 M 41:40.2 13:26/M
3078 christy roch livonia MI 6863 42 F 41:40.5 13:26/M
3079 Becky Gillis Farwell MI 4183 38 F 41:40.9 13:26/M
3080 Erin Martin Beaverton MI 6134 26 F 41:41.1 13:27/M
3081 Halee Gillis Farwell MI 4184 12 F 41:42.2 13:27/M
3082 Melissa Westphal Dexter MI 5611 35 F 41:43.3 13:27/M
3083 Miranda Mayo Michigan Center MI 6171 35 F 41:43.8 13:27/M
3084 hung hoang 2562 36 M 41:44.3 13:28/M
3085 tate lameman 5711 5 M 41:44.3 13:28/M
3086 Alka Sheth Novi MI 8371 36 F 41:44.9 13:28/M
3087 Jessica Legner Bay City MI 4955 24 F 41:45.3 13:28/M
3088 Luann Keizer Spring Lake MI 4723 58 F 41:45.6 13:28/M
3089 Elizabeth Smith Milan MI 7183 42 F 41:46.8 13:28/M
3090 Shelley Douglas Grand Blanc MI 3848 40 F 41:47.7 13:29/M
3091 Carl Douglas Grand Blanc MI 3847 42 M 41:47.8 13:29/M
3092 Steven Adams Clinton MI 7837 3 M 41:48.5 13:29/M
3093 Jennifer Coots 5853 36 F 41:48.9 13:29/M
3094 Martin Gall Alger MI 4135 63 M 41:49.3 13:29/M
3095 Amy Wiseman Ypsilanti MI 8511 3 F 41:49.4 13:29/M
3096 Laurie Cross Hell MI 3705 51 F 41:49.6 13:29/M
3097 Timothy Johnson Mount Morris MI 4626 53 M 41:49.7 13:29/M
3098 jennifer cowan Garden city MI 8653 35 F 41:50.6 13:30/M
3099 Mark Brennan Chelsea MI 7905 53 M 41:50.7 13:30/M
3100 Toby Jones Ann Arbor MI 4649 8 M 41:55.0 13:31/M
 
Place Name City Bib No Age Gender Total Time Pace
3101 Melissa D'Angelo Dexter MI 8662 32 F 41:55.0 13:31/M
3102 Aditya Pandey Ann Arbor MI 8276 0 M 41:55.2 13:31/M
3103 Matthew Jones Ann Arbor MI 4648 48 M 41:55.2 13:31/M
3104 Wayne Criddle Spring Lake MI 3698 51 M 41:55.5 13:31/M
3105 Amy Cantu Ann Arbor MI 3493 45 F 41:55.5 13:31/M
3106 Steven Bean Lapeer MI 3217 57 M 41:55.8 13:31/M
3107 Maria Hagan Milan MI 4303 46 F 41:57.0 13:32/M
3108 Margaret Pitsinger Dayton OH 6664 58 F 41:57.2 13:32/M
3109 Ethel Bailey Fenton MI 3150 43 F 41:57.5 13:32/M
3110 Ryan Tracy clawson MI 8451 33 M 41:57.5 13:32/M
3111 Matt Hickson Owosso MI 4452 44 M 41:57.5 13:32/M
3112 Tim Gartland Ann Arbor MI 5344 39 M 41:57.8 13:32/M
3113 Ingrid Garnett Farmington hills MI 5343 37 F 41:58.0 13:32/M
3114 Michele Taylor Livonia MI 7376 41 F 41:59.1 13:33/M
3115 Desiree McGuire Jackson MI 8911 42 F 42:00.3 13:33/M
3116 Mark Szczepanski Canton MI 7341 26 M 42:00.3 13:33/M
3117 Rex Roof Ann Arbor MI 6895 36 M 42:00.6 13:33/M
3118 Erin Mann Ann Arbor MI 6099 26 F 42:01.6 13:33/M
3119 Katrina Lorenz Walled Lake MI 6043 33 F 42:01.7 13:33/M
3120 Drew Nelson Saline MI 8948 36 M 42:02.2 13:34/M
3121 Mark Bowman Farmington Hills MI 3341 50 F 42:02.7 13:34/M
3122 Brian Lameman 5712 38 M 42:02.9 13:34/M
3123 Kari Fan Muskegon MI 8713 35 F 42:03.0 13:34/M
3124 Lauren Hantz Royal Oak MI 4344 23 F 42:03.9 13:34/M
3125 Kale Lameman 5713 9 M 42:04.3 13:34/M
3126 Patricia Hogikyan Ann Arbor MI 4496 51 F 42:05.2 13:35/M
3127 Theresa Gumowski Jenison MI 4293 24 F 42:06.7 13:35/M
3128 Paul Webb Ann Arbor MI 7617 66 M 42:07.8 13:35/M
3129 Carol Webb Ann Arbor MI 7615 62 F 42:08.0 13:35/M
3130 Virginia Barker Livonia MI 3173 56 F 42:08.3 13:35/M
3131 Beth Molnar Pinckney MI 6340 52 F 42:08.3 13:35/M
3132 Diane Giannola Ann Arbor MI 4177 44 F 42:08.4 13:35/M
3133 Michael Bridson South Lyon MI 8601 35 M 42:08.6 13:35/M
3134 Eman Bridson South Lyon MI 8600 28 F 42:08.8 13:35/M
3135 Claire Robinson Ann Arbor MI 5851 9 F 42:09.3 13:36/M
3136 Clara Adiska Novi MI 3023 15 F 42:11.3 13:36/M
3137 Karina Ream Ann Arbor MI 5533 32 F 42:12.1 13:37/M
3138 Allison Supica Ann Arbor MI 7321 43 F 42:12.5 13:37/M
3139 Cherie Fugitt Saranac MI 4119 54 F 42:12.7 13:37/M
3140 Qinghui Liu ann arbor MI 6029 49 M 42:12.9 13:37/M
3141 Maddie Baybeck Ann Arbor MI 3210 6 F 42:13.0 13:37/M
3142 Cathy Slezak Chelsea MI 7169 57 F 42:14.0 13:37/M
3143 wendy codd 2512 60 F 42:14.5 13:37/M
3144 Gina Liu ann arbor MI 6027 10 F 42:15.0 13:38/M
3145 Meg Keenan Paris MI 4718 25 F 42:15.2 13:38/M
3146 Chris Rovik Canton MI 8333 37 M 42:15.6 13:38/M
3147 Rachel Perl Syosset NY 6622 19 F 42:16.5 13:38/M
3148 Ann Brennan Ann Arbor MI 3367 42 F 42:17.1 13:38/M
3149 Casie LaMay Howell MI 8856 13 F 42:17.5 13:38/M
3150 Shelley Catalan Plymouth MI 3528 57 F 42:18.0 13:39/M
3151 Arleen Cox Spring Lake MI 3672 58 F 42:18.4 13:39/M
3152 Lori Cary Westland MI 3521 39 F 42:18.5 13:39/M
3153 Dennis Cox Spring Lake MI 3675 60 M 42:20.2 13:39/M
3154 maria spicer wayne MI 5094 43 F 42:20.2 13:39/M
3155 Chuck Puzemis South Lyon MI 5523 48 M 42:20.5 13:39/M
3156 Kristen LaMay Howell MI 8857 45 F 42:20.6 13:39/M
3157 Ann Keenan Bay City MI 4715 49 F 42:21.0 13:40/M
3158 Derica Wade Canton MI 7547 39 F 42:21.6 13:40/M
3159 Dawn Ellithorpe Grand Blanc MI 3923 36 F 42:21.7 13:40/M
3160 Amanda Harris Belleville MI 4358 37 F 42:21.8 13:40/M
3161 Robyn Mallari Westland MI 6093 35 F 42:22.1 13:40/M
3162 Linda Langness Ypsilanti MI 5423 28 F 42:22.9 13:40/M
3163 Kaanchan Gangal Ann Arbor MI 8737 30 F 42:23.6 13:40/M
3164 penny hargis westland MI 4352 44 F 42:23.7 13:40/M
3165 Amy Cornwell Chesterfield MI 3653 38 F 42:24.9 13:41/M
3166 Nicholette Wladischkin Plymouth MI 7736 0 F 42:25.6 13:41/M
3167 Lindsay Schmidt Brighton MI 8356 32 F 42:26.7 13:41/M
3168 Marie Howard Chesterfield MI 8800 39 F 42:27.7 13:42/M
3169 Alexander Craig W BLOOMFIELD MI 3688 30 M 42:27.8 13:42/M
3170 Junah Whitelocke Ann Arbor MI 5149 8 M 42:29.0 13:42/M
3171 Maria DeRosia Grass Lake MI 3809 42 F 42:29.4 13:42/M
3172 Caitlyn Hepner Ann Arbor MI 4419 0 F 42:29.7 13:42/M
3173 Myron Hepner Ann Arbor MI 4420 46 M 42:29.8 13:42/M
3174 Brendan Hepner Ann Arbor MI 4418 9 M 42:30.0 13:43/M
3175 Heather Meyer Jackson MI 6270 24 F 42:31.4 13:43/M
3176 Vanessa Pote Brownstown MI 6692 26 F 42:32.6 13:43/M
3177 Allison Burlock Ann Arbor MI 3436 26 F 42:32.8 13:43/M
3178 Brett Foerster Fenton MI 4055 41 M 42:33.3 13:44/M
3179 Katelynn Foerser Fenton MI 4053 10 F 42:33.9 13:44/M
3180 Kathy Moody 5838 43 F 42:34.5 13:44/M
3181 Angie Seiser Cement City MI 7057 38 F 42:34.7 13:44/M
3182 Justin Routman Ann Arbor MI 5999 27 M 42:35.3 13:44/M
3183 Lindsay Walker Canton MI 7564 26 F 42:35.6 13:44/M
3184 Samika Whitelocke Ann Arbor MI 5151 7 F 42:35.8 13:44/M
3185 Anu Whitelocke Ann Arbor MI 5148 39 F 42:37.3 13:45/M
3186 Joann DePeel Dansville MI 3806 62 F 42:37.7 13:45/M
3187 Tracie Seiser Manitou Beach MI 5057 45 F 42:38.5 13:45/M
3188 Nicole Chalut Roseville MI 8626 31 F 42:40.0 13:46/M
3189 Andrea Pace 5837 42 F 42:40.5 13:46/M
3190 Trevor Vitale Monroe MI 7534 9 M 42:40.5 13:46/M
3191 Deanna Beyer Ann Arbor MI 3278 68 F 42:40.7 13:46/M
3192 Nicholas Benzie Brighton MI 3258 7 M 42:42.0 13:46/M
3193 Antonio Lencioni Canton MI 8866 13 M 42:44.3 13:47/M
3194 Linda Mosley Allen Park MI 6379 59 F 42:45.7 13:47/M
3195 Melissa Benzie Brighton MI 3257 43 F 42:46.0 13:48/M
3196 Amy Sheppard Jackson MI 7090 28 F 42:46.5 13:48/M
3197 Charlotte DeMatteo-Lencioni Canton MI 8672 37 F 42:46.5 13:48/M
3198 Beatrix VanKampen Williamston MI 8464 63 F 42:46.6 13:48/M
3199 Cheryl Keefe Willis MI 4714 56 F 42:46.9 13:48/M
3200 Marci Mulligan South Lyon MI 6398 54 F 42:47.4 13:48/M
 
Place Name City Bib No Age Gender Total Time Pace
3201 Colleen Rodriguez Plymouth MI 5020 49 F 42:49.2 13:49/M
3202 Paula Riddell Chesterfield MI 5014 29 F 42:49.5 13:49/M
3203 Madison Sonnenday Ann Arbor MI 5084 9 F 42:50.2 13:49/M
3204 Susan Yasi ANN ARBOR MI 7785 50 F 42:50.6 13:49/M
3205 william bridgeford 5858 34 M 42:51.8 13:49/M
3206 Steven DePeel Dansville MI 3807 63 M 42:52.1 13:50/M
3207 Chris Sonnenday Ann Arbor MI 5083 40 M 42:53.0 13:50/M
3208 Erica Meier Grosse Pointe Woods MI 6244 23 F 42:53.2 13:50/M
3209 lori sasek eastpointe MI 5042 34 F 42:57.1 13:51/M
3210 Dameon Rice Adrian MI 6812 10 M 42:57.3 13:51/M
3211 Richard Bacus Adrian MI 3146 50 M 42:58.9 13:52/M
3212 Rick Williams Ann Arbor MI 5160 52 M 43:02.9 13:53/M
3213 Elizabeth Keating Farmington Hills MI 4711 51 F 43:08.2 13:55/M
3214 Roger Higgins Ypsilanti MI 8792 63 M 43:09.9 13:55/M
3215 Amber Rissman Dexter MI 6837 30 F 43:12.6 13:56/M
3216 Navinder Pirti Pal Singh Whitmore Lake MI 8296 37 F 43:14.1 13:57/M
3217 robin hamilton Defiance OH 4326 51 F 43:16.0 13:57/M
3218 Therese Lasswell Ypsilanti MI 4910 55 F 43:16.0 13:57/M
3219 Frederick Taylor Belleville MI 7370 63 M 43:16.0 13:57/M
3220 Connie Bacus Adrian MI 3145 54 F 43:16.5 13:57/M
3221 Cornelius Kelly Ann Arbor MI 4729 50 M 43:17.2 13:58/M
3222 Lisa Brown-Taylor Belleville MI 3402 54 F 43:17.2 13:58/M
3223 Dennis Tibai Carleton MI 7422 51 M 43:18.2 13:58/M
3224 Karen Anderson Laurium MI 3070 24 F 43:20.0 13:59/M
3225 Christine Kantola Fowlerville MI 4683 31 F 43:24.0 14:00/M
3226 ellie sieler monroe MI 7113 9 F 43:24.6 14:00/M
3227 Mary Bullard Monroe MI 3423 62 F 43:25.7 14:00/M
3228 Rebecca Palmer Battle Creek MI 8275 29 F 43:25.7 14:00/M
3229 Joan Carson Bridgewater MA 7923 59 F 43:25.9 14:00/M
3230 Jonathan Polcyn Ann Arbor MI 6676 8 M 43:27.0 14:01/M
3231 MICHELLE CHARRON-WITT HOWELL MI 234 54 F 43:28.3 14:01/M
3232 SANDY ATHERTON LANSING MI 39 60 F 43:28.9 14:01/M
3233 SHARON TRUDEAU LANSING MI 1490 53 F 43:28.9 14:01/M
3234 DAVID CHARRON HOWELL MI 233 52 M 43:31.2 14:02/M
3235 Allison Osborne Belleville MI 6541 8 F 43:32.2 14:03/M
3236 Alicia Herrera Ann Arbor MI 4431 18 F 43:33.1 14:03/M
3237 Katie Carpenter Ann Arbor MI 3506 19 F 43:33.1 14:03/M
3238 Damian Farrell Ann Arbor MI 5319 1 M 43:33.2 14:03/M
3239 Ursula Kotzabassi Ann Arbor MI 4827 28 F 43:33.9 14:03/M
3240 Katherine Farrell Ann Arbor MI 5320 2 F 43:35.4 14:04/M
3241 Jaime Spradlin Morenci MI 7248 0 F 43:37.8 14:04/M
3242 Sandy Estep-Shull Ligonier IN 5315 50 F 43:40.2 14:05/M
3243 emilie mullins Lenawee MI 5893 36 F 43:40.2 14:05/M
3244 Susan Estep 5908 29 F 43:40.4 14:05/M
3245 rosemary birchmeier 2526 29 F 43:40.6 14:05/M
3246 Ann Jeffers Saline MI 5907 30 F 43:40.9 14:05/M
3247 Tallon Ansel Clarkston MI 8550 6 M 43:41.0 14:05/M
3248 Dick Sarns Ann Arbor MI 6983 84 M 43:42.1 14:06/M
3249 Alex Markovic Royal Oak MI 5446 27 M 43:42.1 14:06/M
3250 Jennifer Orleman Wayne MI 6534 33 F 43:42.6 14:06/M
3251 matthew rodeman 2546 12 M 43:43.1 14:06/M
3252 joanne rodeman 2547 51 F 43:44.3 14:06/M
3253 Jet Hung Belleville MI 5394 9 M 43:44.3 14:06/M
3254 Kylie McCaskill Northville MI 6183 9 F 43:44.5 14:06/M
3255 ALICE ODONNELL NORTHVILLE MI 8261 57 F 43:45.2 14:07/M
3256 Elizabeth Diliberti Shelby Township MI 3826 18 F 43:47.3 14:07/M
3257 Laurie Ferrari Shelby Township MI 3995 43 F 43:47.4 14:07/M
3258 John McCaskill Northville MI 6182 49 M 43:47.8 14:07/M
3259 Melissa Diliberti Shelby Township MI 3827 21 F 43:48.6 14:08/M
3260 George Weinhagen Ann Arbor MI 7629 50 M 43:51.8 14:09/M
3261 Pam Weinhagen Ann Arbor MI 7630 50 F 43:54.0 14:10/M
3262 Karole James Ann Arbor MI 4586 56 F 43:54.1 14:10/M
3263 Sarah Andrews Temperance MI 3076 27 F 43:55.8 14:10/M
3264 Nancy Rovik Canton MI 6919 45 F 43:55.9 14:10/M
3265 Joy Koenes Wyoming MI 4811 27 F 43:56.1 14:10/M
3266 Danielle Polcyn Ann Arbor MI 6674 11 F 43:57.2 14:11/M
3267 robert james 5760 57 M 43:57.7 14:11/M
3268 Matthew Collin Kalamazoo MI 3620 31 M 43:58.8 14:11/M
3269 Denise Polcyn Ann Arbor MI 6675 46 F 43:59.0 14:11/M
3270 Laila Krugman Ann Arbor MI 4850 9 F 44:03.4 14:13/M
3271 Becky O'Brien Canton MI 6498 33 F 44:04.6 14:13/M
3272 Lisa Franklin Ann Arbor MI 4089 41 F 44:04.8 14:13/M
3273 David gian white lake MI 4176 28 M 44:07.1 14:14/M
3274 Lance Lane Brighton MI 4894 50 M 44:12.1 14:15/M
3275 Annette Edwards South Lyon MI 3904 54 F 44:14.2 14:16/M
3276 Aimee Bartrum Fenton MI 3197 23 F 44:14.4 14:16/M
3277 Lindsay Van Aartsen Livonia MI 7492 28 F 44:15.4 14:16/M
3278 Debbie Hill Ypsilanti MI 4461 44 F 44:16.0 14:17/M
3279 Elena Pulieri West Bloomfield MI 5003 28 F 44:17.5 14:17/M
3280 Darlene Coughlin Willis MI 3664 31 F 44:17.8 14:17/M
3281 Nancy LePage Harrison Township MI 4972 47 F 44:19.3 14:18/M
3282 Courtney Crazier 3696 0 F 44:20.7 14:18/M
3283 Karen Owings Center Line MI 6559 41 F 44:22.2 14:19/M
3284 Katrina Johnson Mount Morris MI 4619 53 F 44:22.4 14:19/M
3285 AJ Ruddy Mt. Pleasant MI 6928 0 M 44:22.7 14:19/M
3286 Megan Carson Adrian MI 3517 13 F 44:23.3 14:19/M
3287 Shannon Drouillard Fraser MI 3865 43 F 44:24.8 14:19/M
3288 Jennifer Pardo Livonia MI 8279 25 F 44:26.2 14:20/M
3289 Alex Respess 6803 0 M 44:30.3 14:21/M
3290 Gregory Carson Adrian MI 3515 43 M 44:30.6 14:21/M
3291 Lisa Brennan Chelsea MI 7904 25 F 44:32.1 14:22/M
3292 Erin Duda Commerce MI 3874 0 F 44:34.5 14:23/M
3293 Jodi Heuvers Livonia MI 4444 38 F 44:35.6 14:23/M
3294 Rob Gran Sterling Hts. MI 5353 0 M 44:37.1 14:24/M
3295 Stephanie Schneider Stockbridge MI 5557 21 F 44:39.3 14:24/M
3296 Cory Schngider 5724 25 F 44:41.0 14:25/M
3297 Leigh Austin Ypsilanti MI 7853 25 F 44:41.9 14:25/M
3298 Sandy Buettner Appleton WI 3415 58 F 44:42.6 14:25/M
3299 Julie Schneider Stockbridge MI 1306 49 F 44:46.0 14:26/M
3300 Laura Dorsey Brighton MI 3845 57 F 44:46.6 14:26/M
 
Place Name City Bib No Age Gender Total Time Pace
3301 Roger Smith Ann Arbor MI 8390 44 M 44:46.6 14:26/M
3302 Connor Smith Ann Arbor MI 8387 9 M 44:46.8 14:26/M
3303 Kristin Rahn Ypsilanti MI 6749 34 F 44:47.3 14:27/M
3304 Ethan Smith Ann Arbor MI 8388 7 M 44:47.7 14:27/M
3305 Kenneth Nephew Dearborn Heights MI 6452 21 M 44:50.0 14:28/M
3306 Tim Gruszczynski Plymouth MI 4280 51 M 44:50.2 14:28/M
3307 Andrea Shapiro 5799 13 F 44:50.5 14:28/M
3308 Christine Craig WEST BLOOMFIELD MI 3689 31 F 44:50.8 14:28/M
3309 Phyllis Gruszczynski Plymouth MI 4279 51 F 44:53.1 14:29/M
3310 Kimberly Krueger Dexter MI 8163 34 F 44:53.4 14:29/M
3311 Marleen White Commerce MI 8489 51 F 44:53.9 14:29/M
3312 Jennifer Swinehart Commerce Twp MI 8421 39 F 44:55.5 14:29/M
3313 Keri Jacquemain Chesterfield MI 4576 49 F 45:01.3 14:31/M
3314 Jamie Meldrum Pinckney MI 8919 29 F 45:03.3 14:32/M
3315 Emiliano Diosdado Birmingham MI 7983 6 M 45:03.6 14:32/M
3316 Pamela French Manchester MI 4097 48 F 45:04.4 14:32/M
3317 Angela Dillon Ann Arbor MI 8682 29 F 45:04.7 14:32/M
3318 Antonio Diosdado Birmingham MI 7982 34 M 45:06.3 14:33/M
3319 Mary Harrington Flushing MI 5373 54 F 45:06.4 14:33/M
3320 Laura Meeker Brighton MI 6241 29 F 45:06.5 14:33/M
3321 Connie Schmidt Livonia MI 7014 64 F 45:07.1 14:33/M
3322 Josh Meeker Brighton MI 6240 33 M 45:08.4 14:34/M
3323 John Patrick McKeone Ypsilanti MI 6221 73 M 45:08.5 14:34/M
3324 Rebecca Bowles livonia MI 3339 24 F 45:10.2 14:34/M
3325 Jennifer Samples Pinckney MI 6965 30 F 45:11.0 14:35/M
3326 Shyam Pandey Ann Arbor MI 8277 6 M 45:12.6 14:35/M
3327 Regina Diosdado Birmingham MI 7984 3 F 45:12.9 14:35/M
3328 Gabriela Franco Birmingham MI 8021 35 F 45:13.7 14:35/M
3329 Lisa Senger Lansing MI 7066 26 F 45:14.5 14:35/M
3330 Shari Baldwin Livonia MI 3159 53 F 45:15.4 14:36/M
3331 Frieda Cooley 5761 55 F 45:16.3 14:36/M
3332 Laurie Perrin Ann Arbor MI 8980 15 F 45:20.2 14:37/M
3333 Michelle Moore Ann Arbor MI 5476 15 F 45:20.5 14:37/M
3334 Charles Boulard Ann Arbor MI 3337 49 M 45:22.9 14:38/M
3335 Debra Stevens Ann Arbor MI 7290 52 F 45:22.9 14:38/M
3336 Kayla Wing Ann Arbor MI 7716 25 F 45:24.0 14:39/M
3337 Leslie Thompson Ypsilanti MI 7415 42 F 45:24.1 14:39/M
3338 Grace Monteclaro Ypsilanti MI 6344 35 F 45:25.6 14:39/M
3339 kathryn trestain 5866 46 F 45:25.7 14:39/M
3340 Samantha Bowman Detroit MI 3342 26 F 45:26.2 14:39/M
3341 Terri Chumley Saginaw MI 7937 33 F 45:26.5 14:39/M
3342 Danielle Cancel Clinton Township MI 3490 29 F 45:26.7 14:39/M
3343 lisa sitten van buren MI 8383 45 F 45:27.7 14:40/M
3344 michelle pidd stockbridge MI 6650 28 F 45:28.6 14:40/M
3345 Susie Gordon Fenton MI 4215 56 F 45:29.0 14:40/M
3346 BETTY RUMMEL BRIGHTON MI 6936 57 F 45:29.4 14:40/M
3347 kimberly rosedale gregory MI 6903 27 F 45:29.8 14:40/M
3348 Mellisa Nowak Ann Arbor MI 6491 29 F 45:29.8 14:40/M
3349 debra sarosy fenton MI 6988 53 F 45:30.0 14:41/M
3350 Kathleen McCarthy Fraser MI 6181 29 F 45:30.5 14:41/M
3351 Dana Filzek Macomb MI 4013 40 F 45:30.9 14:41/M
3352 Melissa Nemeth Southgate MI 6449 27 F 45:31.4 14:41/M
3353 Sara Andryc Pinckney MI 3077 35 F 45:31.8 14:41/M
3354 Jill James Macomb MI 4585 48 F 45:34.0 14:42/M
3355 saundra halliwell garden city MI 4318 44 F 45:41.2 14:44/M
3356 James Daly Davison MI 3730 59 M 45:45.2 14:45/M
3357 rajiva tirtha fenton MI 8444 0 M 45:45.6 14:45/M
3358 Melissa Slaughter Farmington MI 7162 0 F 45:47.3 14:46/M
3359 Dennis Martin Beaverton MI 6133 54 M 45:48.8 14:46/M
3360 candy higginbotham ypsilanti MI 4455 54 F 45:50.4 14:47/M
3361 Lauren Ulbrich Chesterfield MI 7479 13 F 45:56.2 14:49/M
3362 Kelly Senger Oxford MI 7065 38 F 45:57.0 14:49/M
3363 Jacob Ulbrich Chesterfield MI 7478 7 M 45:57.9 14:49/M
3364 Lynn Ulbrich Chesterfield MI 7480 42 F 46:05.1 14:52/M
3365 Chris Ulbrich Chesterfield MI 7477 48 M 46:05.7 14:52/M
3366 Laura Roycraft Ypsilanti MI 6923 31 F 46:08.8 14:53/M
3367 Daniel R. Davis Ann Arbor MI 3761 49 M 46:09.5 14:53/M
3368 Jamie McCollum Ann Arbor MI 6189 28 F 46:10.0 14:54/M
3369 Rachel Smith Troy MI 7197 16 F 46:10.6 14:54/M
3370 Rebecca Smith Troy MI 7198 18 F 46:12.0 14:54/M
3371 Jennifer Nason Davis Ann Arbor MI 6442 52 F 46:12.4 14:54/M
3372 Debbie Bujack Watervliet MI 3419 55 F 46:12.8 14:54/M
3373 christine constance Garden City MI 3636 45 F 46:14.0 14:55/M
3374 Shelly Doyle Ann Arbor MI 7989 43 F 46:14.3 14:55/M
3375 Jeff Newland Hampton VA 6459 50 M 46:14.7 14:55/M
3376 Jeff David ANN ARBOR MICHIGAN 5883 45 M 46:15.2 14:55/M
3377 Steve Kapp ann arbor MI 8131 48 M 46:15.4 14:55/M
3378 Renata Armstrong st.clair MI 3100 41 F 46:16.1 14:55/M
3379 Carla Smith 5882 48 F 46:17.2 14:56/M
3380 Sherry Klopp howell MI 4800 43 F 46:19.3 14:56/M
3381 Aidan Mclogan ann arbor MI 5457 16 M 46:22.9 14:57/M
3382 Rachel O'Shaughnessy Novi MI 6550 19 F 46:25.0 14:58/M
3383 Jan O'Shaughnessy Novi MI 6549 52 F 46:26.9 14:59/M
3384 Denise Timm Midland MI 5112 38 F 46:27.2 14:59/M
3385 Mindy Bush Wayne MI 3445 55 F 46:27.7 14:59/M
3386 Kim Drago Chicago IL 3857 31 F 46:32.3 15:01/M
3387 Cynthia Drago Saint Augustine FL 3856 57 F 46:33.5 15:01/M
3388 Penny Guenther Saline MI 4285 54 F 46:34.4 15:01/M
3389 David Guenther Saline MI 4284 54 M 46:35.9 15:02/M
3390 colette mclogan ann arbor MI 5458 47 F 46:40.3 15:03/M
3391 luke Spaulding Morneci MI 7240 17 M 46:41.1 15:04/M
3392 jarred karikas 2204 12 M 46:43.3 15:04/M
3393 Gerald Mclogan ann arbor MI 5459 48 M 46:43.8 15:04/M
3394 Jake Spaulding Morenci MI 7239 17 M 46:43.9 15:04/M
3395 Mike Mickelson West Bloomfield MI 6283 58 M 46:44.1 15:05/M
3396 David Boprie 5807 56 M 46:46.2 15:05/M
3397 Lyndsey Penning Dorr MI 6613 23 F 46:48.7 15:06/M
3398 Jacquelyn Turkovich Brighton MI 7463 27 F 46:49.1 15:06/M
3399 Martha Kern-Boprie Ypsilanti MI 4744 53 F 46:49.1 15:06/M
3400 Robert Turkovich Brighton MI 7466 28 M 46:49.2 15:06/M
 
Place Name City Bib No Age Gender Total Time Pace
3401 Jerry Kieffer Chesaning MI 4753 0 M 46:49.4 15:06/M
3402 Brian Kemeter Manchester MI 4734 20 M 46:49.7 15:06/M
3403 Amy Spaulding Morenci MI 7238 43 F 46:50.3 15:06/M
3404 Cooper Duda Commerce MI 3872 14 M 46:51.8 15:07/M
3405 Kacey O'Neill Dexter MI 6529 24 F 46:52.1 15:07/M
3406 Rich Spaulding Morenci MI 7241 52 M 46:52.2 15:07/M
3407 Kelley Vandagriff Ann Arbor MI 7497 26 F 46:53.5 15:07/M
3408 Nate Kieffer Chesaning MI 4757 6 F 46:54.9 15:08/M
3409 Jason Duda Commerce MI 8698 47 M 46:55.5 15:08/M
3410 Jenny Bandyk Ypsilanti MI 3166 41 F 46:55.9 15:08/M
3411 Briana AbuZahrah dearborn MI 8536 17 F 46:57.9 15:09/M
3412 Joy Nagel Ft. Wayne IN 8245 29 F 46:59.4 15:09/M
3413 Erika Daman Chelsea MI 8661 36 F 47:00.0 15:10/M
3414 LeeAnne AbuZahrah dearborn MI 8537 27 F 47:00.4 15:10/M
3415 Bethany Lentz Milan MI 4964 30 F 47:00.6 15:10/M
3416 Debra Penning Wayland MI 6612 32 F 47:01.7 15:10/M
3417 Sharon Kemeter Manchester MI 4736 49 F 47:01.9 15:10/M
3418 Kerri Turkovich Farmington Hills MI 7464 22 F 47:02.7 15:10/M
3419 Mackenzie Stewart Ann Arbor MI 8413 3 F 47:03.5 15:11/M
3420 Mike Bartholomay Ypsilanti MI 72 30 M 47:03.9 15:11/M
3421 Melissa Stewart Ann Arbor MI 8414 2 F 47:04.3 15:11/M
3422 Dana Barnier Saline MI 7863 43 F 47:08.2 15:12/M
3423 Julie Armiak Saline MI 7849 40 F 47:08.6 15:12/M
3424 Mary Secor Bay City MI 7050 43 F 47:10.7 15:13/M
3425 Nair Matsuo Ann Arbor MI 8894 58 F 47:12.6 15:14/M
3426 Carol Roberts Plymouth MI 5016 0 F 47:13.0 15:14/M
3427 Nicole Desbrough Pinckney MI 3816 30 F 47:13.4 15:14/M
3428 Morgan Roberts Plymouth MI 5017 19 F 47:14.6 15:14/M
3429 Jelena Harrington Canton MI 585 55 F 47:18.0 15:15/M
3430 Ann Mulhern Ann arbor MI 1052 55 F 47:19.5 15:16/M
3431 David Fry Ann Arbor MI 4115 46 M 47:24.8 15:17/M
3432 Kathleen Rizzo 5737 56 F 47:25.5 15:18/M
3433 Lauren Buck Pleasant Lk MI 3410 26 F 47:26.3 15:18/M
3434 Philip Poxson Pleasant Lk MI 6702 52 M 47:26.8 15:18/M
3435 Meidee Goh Ann Arbor MI 4202 43 F 47:27.1 15:18/M
3436 Shelly Farhat Jackson MI 8714 56 F 47:32.6 15:20/M
3437 Jillian Senger Oxford MI 7064 11 F 47:34.1 15:21/M
3438 abbey uarburton 2543 19 F 47:34.8 15:21/M
3439 Marcia Smith Jackson MI 7192 42 F 47:35.8 15:21/M
3440 Cassie Gayari Ann Arbor MI 5345 0 F 47:38.3 15:22/M
3441 Lexi Schnitzer Ann Arbor MI 5558 15 F 47:38.6 15:22/M
3442 Gary Birkmeier Chesaning MI 3286 62 M 47:38.7 15:22/M
3443 Rose Birkmeier Chesaning MI 3287 60 F 47:39.4 15:22/M
3444 Elisa Manuel Bolingbrook IL 6104 35 F 47:46.1 15:25/M
3445 Kelly Pearson Saginaw MI 6601 22 F 47:47.2 15:25/M
3446 April Cannon Ypsilanti MI 3492 31 F 47:48.8 15:25/M
3447 Stephanie Tandy Ypsilanti MI 1441 32 F 47:50.3 15:26/M
3448 Abby White Ann Arbor MI 7660 21 F 47:51.1 15:26/M
3449 Roshanda Mitchell Romulus MI 6333 35 F 47:51.3 15:26/M
3450 Rachel McWilliams Ann Arbor MI 6236 21 F 47:51.7 15:26/M
3451 Edward Marek Westland MI 6120 0 M 47:51.9 15:26/M
3452 DeAnn Marek Westland MI 6119 0 F 47:52.1 15:26/M
3453 Ron Tandy Jr. Ypsilanti MI 7362 34 M 47:52.3 15:26/M
3454 Kevin Harrington Canton MI 586 60 M 47:53.7 15:27/M
3455 Judy Powers Ann Arbor MI 8998 50 F 47:58.1 15:28/M
3456 Valene Jeffery Ann Arbor MI 4596 25 F 48:01.6 15:29/M
3457 Carol Marcis Taylor MI 6115 56 F 48:01.7 15:29/M
3458 Lucia Morrison Plymouth MI 6369 53 F 48:01.9 15:29/M
3459 Danielle Lewis Ypsilanti MI 4986 25 F 48:02.1 15:30/M
3460 Karen Scanlon Brighton MI 5047 70 F 48:02.6 15:30/M
3461 Patrick Horal Brighton MI 4515 12 M 48:02.8 15:30/M
3462 Ashley Craft Clayton MI 3686 12 F 48:02.9 15:30/M
3463 Diana Cameron Dearborn MI 7921 24 F 48:03.7 15:30/M
3464 Amy Klettner Ypsilanti MI 8150 51 F 48:04.4 15:30/M
3465 jackie ziemba 5762 0 F 48:07.3 15:31/M
3466 Jane Horal Brighton MI 4513 51 F 48:07.7 15:31/M
3467 Robin Davis Howell MI 3768 48 F 48:09.3 15:32/M
3468 Larry Jacob Batavia OH 4568 48 M 48:09.7 15:32/M
3469 Kristie Hodges Howell MI 4483 31 F 48:12.0 15:33/M
3470 Gregory Frye Perrysburg OH 4118 38 M 48:12.7 15:33/M
3471 Laurie Jacob Batavia OH 4569 46 F 48:13.6 15:33/M
3472 hunter krukowski 5716 8 M 48:13.7 15:33/M
3473 Mark Gentry Ypsilanti MI 4164 48 M 48:16.0 15:34/M
3474 Ashley Keenmon Novi MI 8821 23 F 48:16.7 15:34/M
3475 Morgan LaPan Ann Arbor MI 4905 52 M 48:17.7 15:35/M
3476 Markie Gentry 5765 15 M 48:17.8 15:35/M
3477 Michael Ford Ann Arbor MI 4066 60 M 48:18.2 15:35/M
3478 Andrew Juno Ann Arbor MI 4661 9 M 48:18.4 15:35/M
3479 Julie Juno-La Pan Ann Arbor MI 4662 52 F 48:19.7 15:35/M
3480 Debra Bordeau LaSalle MI 7894 41 F 48:21.2 15:36/M
3481 Leslie Barr Livonia MI 3187 24 F 48:22.1 15:36/M
3482 Patricio Herbst Ann Arbor MI 4422 46 M 48:23.6 15:36/M
3483 Vonna Cooper Monroe MI 7954 35 F 48:23.8 15:36/M
3484 Jennifer Waugh Milan MI 5137 29 F 48:24.2 15:37/M
3485 Valerie Kruse Morenci MI 8849 29 F 48:24.6 15:37/M
3486 Priti Patel Ann Arbor MI 6584 38 F 48:25.5 15:37/M
3487 Manuela Kress Haslett MI 4839 49 F 48:26.8 15:37/M
3488 Julie Kieffer Chesaning MI 4754 39 F 48:27.2 15:38/M
3489 Jessica Rushton Canton MI 5036 25 F 48:30.2 15:39/M
3490 Mark Delbrugge 5759 61 M 48:30.4 15:39/M
3491 Sherry Desbrough Gregory MI 3817 53 F 48:31.5 15:39/M
3492 Kari Wigginton Saline MI 7684 39 F 48:32.4 15:39/M
3493 Denise Nowatzke Ann Arbor MI 6492 44 F 48:33.2 15:40/M
3494 Sharon Adam Metamora MI 3014 49 F 48:35.1 15:40/M
3495 Lynne Britton Ypsilanti MI 3381 56 F 48:36.3 15:41/M
3496 Brandon Rowells Bingham Farms MI 6920 26 M 48:37.7 15:41/M
3497 Terri Sleeper Durand MI 7167 52 F 48:37.8 15:41/M
3498 Jeff Sleeper Durand MI 7166 52 M 48:38.8 15:41/M
3499 Ronan Pasquarella Ann Arbor MI 6582 7 M 48:39.1 15:42/M
3500 Debbie Erke Jackson MI 8707 44 F 48:44.6 15:43/M
 
Place Name City Bib No Age Gender Total Time Pace
3501 Joseph Mannlein Tecumseh MI 6101 10 M 48:46.4 15:44/M
3502 Carolyn Bailey Jackson MI 8565 46 F 48:46.8 15:44/M
3503 Brandon Mannlein Tecumseh MI 6100 7 M 48:48.7 15:45/M
3504 Julie Mannlein Tecumseh MI 6102 45 F 48:48.9 15:45/M
3505 david souva livonia MI 8400 33 M 48:50.7 15:45/M
3506 jessica souva livonia MI 8401 33 F 48:51.2 15:45/M
3507 Dawn Warwick Taylor MI 7595 48 F 48:51.7 15:45/M
3508 Tommy Cohn Ann Arbor MI 3617 12 M 48:54.0 15:46/M
3509 Teri Langley fenton MI 4899 55 F 48:56.8 15:47/M
3510 Lynn Haworth-Crotzer Waterford MI 8075 50 F 48:57.0 15:47/M
3511 tim granger waterford MI 8049 44 M 48:57.9 15:47/M
3512 Dawn Shapiro Fenton MI 7074 58 F 48:59.3 15:48/M
3513 Aimee Louden Morenci MI 8881 26 F 49:03.2 15:49/M
3514 Andrew Ferrari Shelby Township MI 3993 19 M 49:04.9 15:50/M
3515 Lisa Wenzler Brighton MI 7647 70 F 49:05.9 15:50/M
3516 Jodi Kruse Morenci MI 4855 32 F 49:06.1 15:50/M
3517 Sue Napier Ann Arbor MI 6438 59 F 49:06.5 15:50/M
3518 Erin McCusker Livonia MI 8905 23 F 49:07.1 15:51/M
3519 howard karikas 2201 47 M 49:07.8 15:51/M
3520 Kimberly Mann Ann Arbor MI 8887 30 F 49:09.2 15:51/M
3521 Greg Napier Ann Arbor MI 6436 59 M 49:09.7 15:51/M
3522 Robin Smith-Martin Beaverton MI 7204 46 F 49:13.3 15:53/M
3523 Stephanie Gomez Ann Arbor MI 8757 27 F 49:13.6 15:53/M
3524 Peggy Semple Ann Arbor MI 1325 61 F 49:13.8 15:53/M
3525 Cindy Southworth Pleasant Lake MI 7229 53 F 49:17.9 15:54/M
3526 Theresa Kaiser Ypsilanti MI 4669 36 F 49:19.2 15:55/M
3527 Michele Lake Ann Arbor MI 4890 50 F 49:19.2 15:55/M
3528 Kim Zasa Ann Arbor MI 7798 39 F 49:19.4 15:55/M
3529 Dima Daimi Ann Arbor MI 7969 7 F 49:26.4 15:57/M
3530 Sean Ryan Ann Arbor MI 8342 4 M 49:26.5 15:57/M
3531 shawn bengel 2531 33 F 49:28.4 15:57/M
3532 jennifer anderegg 2530 35 F 49:28.4 15:57/M
3533 Chris Musico Ypsilanti MI 6417 39 M 49:28.5 15:57/M
3534 Eden Miller Ann Arbor MI 6298 8 F 49:29.5 15:58/M
3535 Kayla Regalado Manitou Beach MI 6791 22 F 49:32.1 15:59/M
3536 bob miller Ann Arbor MI 6295 47 M 49:32.6 15:59/M
3537 Terry Miller Dexter MI 6308 62 F 49:33.3 15:59/M
3538 Cindy Regalado Manitou Beach MI 6790 52 F 49:34.6 15:59/M
3539 Katie Williams Ann Arbor MI 8507 35 F 49:34.7 15:59/M
3540 Jana Georgevich Shelby Township MI 4170 19 F 49:35.0 16:00/M
3541 Steve Dykstra Ann Arbor MI 7995 2 M 49:36.3 16:00/M
3542 Amanda Byrnes Dearborn MI 3464 28 F 49:37.2 16:00/M
3543 Melisa Hickson Owosso MI 4453 43 F 49:38.4 16:01/M
3544 michelle bloom redford MI 3302 38 F 49:38.4 16:01/M
3545 Renee Keister Ann Arbor MI 4721 46 F 49:40.7 16:01/M
3546 nicole watson redford MI 7604 36 F 49:46.6 16:03/M
3547 Judy Bobrow Ann Arbor MI 3305 77 F 49:48.3 16:04/M
3548 Elsa Iuliani Oxford MI 8806 33 F 49:54.6 16:06/M
3549 Yoshimi Sakakibara Ann Arbor MI 6959 41 F 49:55.6 16:06/M
3550 Mickey Cochran Zeeland MI 3611 59 M 49:56.8 16:06/M
3551 Kendell Ewing Royal Oak MI 8711 31 F 49:57.7 16:07/M
3552 Judy Cochran Zeeland MI 3609 59 F 49:59.0 16:07/M
3553 Junko Kondo Ann Arbor MI 4819 47 F 50:02.8 16:08/M
3554 elizabeth satterley milan MI 6991 33 F 50:06.6 16:10/M
3555 Jodie Hughes Dexter MI 5393 35 F 50:07.2 16:10/M
3556 Richarde Donelan Ypsilanti MI 3838 66 M 50:10.3 16:11/M
3557 Jackson Frisinger Brighton MI 8729 8 M 50:11.1 16:11/M
3558 Stacey Frisinger Brighton MI 8730 38 F 50:13.5 16:12/M
3559 Ayman Elfayoumi Ypsilanti MI 5304 9 M 50:13.9 16:12/M
3560 Sara Elfayoumi Ypsilanti MI 5305 6 F 50:15.4 16:13/M
3561 Beth Russell Ann Arbor MI 8336 51 F 50:17.1 16:13/M
3562 Judith Pasquarella Ann Arbor MI 6581 65 F 50:19.7 16:14/M
3563 Julie Ferris Cement City MI 3998 51 F 50:19.8 16:14/M
3564 Carlos Blanco Redford MI 3295 0 M 50:20.1 16:14/M
3565 J.T. Mackson Ypsilanti MI 5440 7 M 50:20.3 16:14/M
3566 Megan Mackson Ypsilanti MI 5442 32 F 50:20.4 16:14/M
3567 Christopher Ferrari Shelby Township MI 3994 45 M 50:20.5 16:14/M
3568 James Tanner Wayne OH 7363 35 M 50:20.9 16:14/M
3569 Mackenzie Mackson Ypsilanti MI 5441 6 F 50:21.1 16:15/M
3570 Elizabeth Kolesar Ypsilanti MI 5418 0 F 50:21.2 16:15/M
3571 Susan Mann Ann Arbor MI 8193 52 F 50:21.5 16:15/M
3572 Sara Kolesar Belleville MI 5419 0 F 50:21.9 16:15/M
3573 robyn hiatt jackson MI 8791 51 F 50:24.6 16:15/M
3574 les weidinger Toledo OH 7626 70 M 50:25.9 16:16/M
3575 David Adams Ann Arbor MI 3016 44 M 50:26.2 16:16/M
3576 audra scheiwe springlake MI 7006 9 F 50:28.7 16:17/M
3577 William Zegarlowicz Jackson MI 8531 39 M 50:29.1 16:17/M
3578 Kristina VanderMark/Scheiwe spring lake MI 7502 38 F 50:29.7 16:17/M
3579 brian scheiwe spring lake MI 7007 0 M 50:30.0 16:17/M
3580 Jennifer Kilbourn Arlington VA 8143 40 F 50:30.7 16:17/M
3581 Kristen Sheets Jackson MI 7086 21 F 50:31.1 16:18/M
3582 lee adams 5794 57 M 50:32.0 16:18/M
3583 Kim Sheets Jackson MI 7085 50 F 50:32.7 16:18/M
3584 James Grose Allen Park MI 4267 60 M 50:34.7 16:19/M
3585 Patti Szymanski Macomb MI 7345 47 F 50:35.0 16:19/M
3586 Roberta Grose Allen Park MI 4268 56 F 50:36.9 16:19/M
3587 Dan Mickelson Washington DC 6282 27 M 50:38.4 16:20/M
3588 Renae Rosencrans Ann Arbor MI 6905 53 F 50:40.6 16:21/M
3589 Mary Hickman Harbor Springs MI 4449 53 F 50:40.7 16:21/M
3590 Linda Sheppard Harbor Spring MI 7091 53 F 50:41.1 16:21/M
3591 Marie Sklar Ann Arbor MI 8386 52 F 50:49.1 16:24/M
3592 nicholas higginbotham ypsilanti MI 4456 17 M 50:49.4 16:24/M
3593 Laura Hampton Ann Arbor MI 8066 49 F 50:50.0 16:24/M
3594 Karen Jacobson Ann Arbor MI 8113 47 F 50:51.2 16:24/M
3595 Melissa Craft Clayton MI 3687 33 F 50:57.5 16:26/M
3596 kevin kaltrider eaton rapids MI 4676 28 M 50:58.0 16:26/M
3597 emily kaltrider eaton rapids MI 4675 24 F 50:59.7 16:27/M
3598 Corinne Hardecki Brooklyn MI 4347 43 F 51:00.5 16:27/M
3599 Linda Fuhrman Mt. Pleasant MI 8026 61 F 51:03.9 16:28/M
3600 Lindsey Umlauf Novi MI 8459 1 F 51:08.3 16:30/M
 
Place Name City Bib No Age Gender Total Time Pace
3601 Michele Reynolds Saginaw MI 6806 36 F 51:08.6 16:30/M
3602 David Stahl Novi MI 5577 26 M 51:10.4 16:30/M
3603 Marianne Flinn Ann Arbor MI 4045 35 F 51:10.6 16:30/M
3604 Bridgid Murphy SAGINAW MI 6405 35 F 51:10.6 16:30/M
3605 Erica Whitesell Plymouth MI 7668 0 F 51:13.7 16:31/M
3606 Deboarh Benaglio Novi MI 3243 55 F 51:13.7 16:31/M
3607 Garielle Artymovich Novi MI 3107 21 F 51:14.4 16:32/M
3608 Jonathan Roelofs ann arbor MI 6878 31 M 51:16.9 16:32/M
3609 Joseph Pytel Trenton MI 6732 54 M 51:17.1 16:33/M
3610 Suzanne Yesta Canton MI 7788 40 F 51:18.8 16:33/M
3611 Roberta Roelofs ann arbor MI 6879 29 F 51:19.1 16:33/M
3612 Erica Williams Grand Blanc MI 5157 25 F 51:20.9 16:34/M
3613 Lisa Smola-Hollo South Lyon MI 8395 43 F 51:21.6 16:34/M
3614 Tim Lauterborn Canton MI 4920 34 M 51:22.9 16:34/M
3615 Kristy Brugar Royal Oak MI 3405 40 F 51:24.0 16:35/M
3616 Allyssa Hollo South Lyon MI 8092 8 F 51:25.5 16:35/M
3617 Pamla Walton Redford MI 7578 34 F 51:25.8 16:35/M
3618 Liam Meurer Dexter MI 8924 5 M 51:26.0 16:35/M
3619 Karen Harrington Swartz Creek MI 5372 36 F 51:26.4 16:35/M
3620 William Meurer Dexter MI 8925 35 M 51:26.6 16:35/M
3621 Kevin Williams Grand Blanc MI 5159 50 M 51:26.7 16:35/M
3622 Jeffrey Harrington Swartz Creek MI 5371 32 M 51:27.8 16:36/M
3623 Michelle Buggs Ann Arbor MI 5248 29 F 51:28.1 16:36/M
3624 Monique James Ypsilanti MI 5404 39 F 51:28.7 16:36/M
3625 Kyle Smola South Lyon MI 8394 14 M 51:28.9 16:36/M
3626 Stephanie Wylie Ypsilanti MI 5628 24 F 51:29.0 16:36/M
3627 John Hollo South Lyon MI 8093 42 M 51:29.4 16:36/M
3628 Barbara Turgyan Plymouth MI 7461 56 F 51:31.0 16:37/M
3629 Jeff Jones Highland MI 4645 40 M 51:35.5 16:38/M
3630 christy davis jackson MI 3759 36 F 51:36.8 16:39/M
3631 Penny Wise Dimondale MI 7730 51 F 51:37.7 16:39/M
3632 Lynn Mjovig Jackson MI 8934 41 F 51:38.6 16:39/M
3633 Linda Kelly fenton MI 8134 49 F 51:38.8 16:39/M
3634 Bill Kelly fenton MI 8133 54 M 51:39.3 16:40/M
3635 Katie Kile Chicago IL 4760 0 F 51:39.5 16:40/M
3636 Kit Steinaway Ann Arbor MI 7280 57 F 51:40.7 16:40/M
3637 Gary Steinaway Ann Arbor MI 7279 59 M 51:40.9 16:40/M
3638 Richard Sharp jackson MI 7077 67 M 51:42.1 16:41/M
3639 Drew Meurer Dexter MI 8922 3 M 51:51.0 16:44/M
3640 Joy Crocker Canton MI 5277 0 F 51:53.5 16:44/M
3641 Katie Braun Canton MI 5239 17 F 51:53.7 16:44/M
3642 Connie Spring Pinckney MI 7256 48 F 51:54.5 16:45/M
3643 Dr. Dennis J. Buda Marysville MI 3412 53 M 51:54.7 16:45/M
3644 Elizabeth Meurer Dexter MI 8923 35 F 51:55.0 16:45/M
3645 Melissa Allan Ann Arbor MI 3048 21 F 51:55.1 16:45/M
3646 Holly Rider-Milcovich Ann Arbor MI 6825 39 F 51:55.3 16:45/M
3647 Elaina Braun Canton MI 5237 8 F 51:55.5 16:45/M
3648 Sandy J. Titus Marysville MI 7431 53 F 51:56.3 16:45/M
3649 angela brand potterville MI 3356 44 F 51:56.4 16:45/M
3650 Art Spring Pinckney MI 7254 50 M 51:57.5 16:45/M
3651 Margie Shedd Athens GA 7082 59 F 51:59.8 16:46/M
3652 Elizabeth Perry Northville MI 6627 13 F 52:00.1 16:46/M
3653 Joyce Boehmer Swainsboro GA 3307 59 F 52:00.9 16:46/M
3654 Janet Kokenakes Livonia MI 4815 49 F 52:03.8 16:47/M
3655 Cassandra Perry Northville MI 6626 41 F 52:04.4 16:48/M
3656 Robin Tolbert Ypsilanti MI 5594 37 F 52:06.5 16:48/M
3657 Linda Harless Holly MI 8071 63 F 52:10.9 16:50/M
3658 silas tawney rockford MI 7368 11 M 52:18.7 16:52/M
3659 Roger Buettner Appleton WI 3414 58 M 52:21.9 16:53/M
3660 Cristyn Colvard Belleville MI 5994 28 F 52:22.1 16:54/M
3661 Robert Nidetz Ann Arbor MI 6473 28 M 52:24.0 16:54/M
3662 andrew saari rockford MI 6952 34 M 52:26.3 16:55/M
3663 Elizabeth Covington Ann Arbor MI 3669 28 F 52:26.6 16:55/M
3664 John Gary Ann Arbor MI 4150 45 M 52:29.2 16:56/M
3665 James Boomis Rochester Hills MI 7892 32 M 52:32.2 16:57/M
3666 Leah Terian Rochester Hills MI 8433 31 F 52:32.9 16:57/M
3667 Lucinda Barrus Sunfield MI 3190 50 F 52:33.8 16:57/M
3668 Patty Bradley Williamston MI 3353 60 F 52:33.8 16:57/M
3669 Sandra Cox Lake Odessa MI 3676 48 F 52:37.3 16:58/M
3670 Daniel Robertson Ypsilanti MI 6850 38 M 52:38.5 16:59/M
3671 Judy Zick Lake Odessa MI 7813 51 F 52:38.5 16:59/M
3672 Angela DelVero Howell MI 8671 35 F 52:38.7 16:59/M
3673 Kim Savage Ann Arbor MI 6994 54 F 52:39.4 16:59/M
3674 Michelle DeSnyder Chesterfield MI 8678 37 F 52:41.1 17:00/M
3675 Stephanie Hicks Perry MI 627 39 F 52:41.9 17:00/M
3676 Brian Bauer Waterford MI 3205 35 M 52:42.1 17:00/M
3677 danielle chartier marine city MI 7929 27 F 52:43.4 17:00/M
3678 Rozlyn Williams Ypsialnti MI 5993 27 F 52:43.7 17:00/M
3679 George Menna Trenton MI 8920 64 M 52:47.2 17:02/M
3680 Yvonne Whitmire Northville MI 7671 32 F 52:47.4 17:02/M
3681 Alan Tse Ann Arbor MI 7456 27 M 52:49.9 17:02/M
3682 Jack Hollingsworth Ann Arbor MI 5386 6 M 52:50.8 17:03/M
3683 Nicole Killion Westland MI 4764 28 F 52:51.1 17:03/M
3684 John Hollingsworth Ann Arbor MI 5387 36 M 52:51.8 17:03/M
3685 Rosemary Menna Trenton MI 8921 61 F 52:52.8 17:03/M
3686 Khon Huynh Kentwood MI 680 63 M 52:53.7 17:04/M
3687 Karen Wilson Fenton MI 5617 54 F 52:54.0 17:04/M
3688 Jacqueline Huynh Kentwood MI 678 62 F 52:54.3 17:04/M
3689 Beverly Sieler Monroe MI 7112 65 F 53:01.2 17:06/M
3690 Addison Romaker Perrysburg OH 5021 5 F 53:01.2 17:06/M
3691 Neil Cole Dexter MI 8642 48 M 53:01.6 17:06/M
3692 Carol Wilson Dexter MI 5162 51 F 53:03.2 17:07/M
3693 Jane Romaker Perrysburg OH 5024 3 F 53:07.3 17:08/M
3694 Bryanna Secor Bay City MI 7048 14 F 53:08.4 17:08/M
3695 Tim George Westland MI 4169 52 M 53:10.2 17:09/M
3696 Sarah Malcom Whitmore Lake MI 6089 25 F 53:10.9 17:09/M
3697 Heather D'Agosta South Lyon MI 5282 30 F 53:14.0 17:10/M
3698 Drew D'Agosta South Lyon MI 5281 33 M 53:14.3 17:10/M
3699 Janet Foreman Lansing MI 4069 47 F 53:15.0 17:11/M
3700 Jocelyn Provedent Brighton MI 8309 1 F 53:16.8 17:11/M
 
Place Name City Bib No Age Gender Total Time Pace
3701 Rachel Arnold Canton MI 3102 41 F 53:17.3 17:11/M
3702 Melissa Steller Brighton MI 8407 9 F 53:17.5 17:11/M
3703 Theresa Krings Oxford MI 4843 48 F 53:18.9 17:12/M
3704 Michael Geisser Ann Arbor MI 4159 52 M 53:18.9 17:12/M
3705 Kevin Krings Oxford MI 4842 52 M 53:20.6 17:12/M
3706 Jeff Arnold Canton MI 3101 42 M 53:23.7 17:13/M
3707 Barbara Schick Marietta GA 1300 41 F 53:24.8 17:14/M
3708 Sarah Olsen Brownstown MI 5500 29 F 53:26.4 17:14/M
3709 Susan Keller Ann Arbor MI 4725 52 F 53:28.2 17:15/M
3710 Susan Geisser Ann Arbor MI 4160 52 F 53:28.8 17:15/M
3711 Rachel Lemon Plymouth MI 8865 27 F 53:29.3 17:15/M
3712 Kathleen Blanco Redford MI 3296 50 F 53:29.6 17:15/M
3713 Yolanda Rojas 5895 54 F 53:33.7 17:16/M
3714 Catherine Spirko Ypsilanti MI 7244 36 F 53:36.5 17:17/M
3715 Jason Spirko Ypsilanti MI 7245 36 M 53:36.8 17:17/M
3716 Jamie Athearn Fenton MI 3115 33 M 53:39.4 17:18/M
3717 Samieh Fakhouri Ann Arbor MI 5318 65 F 53:39.8 17:18/M
3718 Linda Jacob Williamsburg OH 4570 60 F 53:40.5 17:19/M
3719 Lida Athearn Fenton MI 3116 33 F 53:40.8 17:19/M
3720 Judy Hoeft Manchester MI 4485 60 F 53:40.8 17:19/M
3721 Robert Schick Marietta GA 1301 52 M 53:42.1 17:19/M
3722 Lyndsay Wagner Erie MI 7552 13 F 53:46.4 17:21/M
3723 Meygan Wagner Erie MI 7553 10 F 53:47.6 17:21/M
3724 Sherri Fresorger Novi MI 459 44 F 53:48.9 17:21/M
3725 Shellie Nichols Linden MI 6471 39 F 53:49.7 17:22/M
3726 Melinda Chamberlain Hartland MI 3539 31 F 53:49.9 17:22/M
3727 Bonnie Fresorger Novi MI 458 70 F 53:50.0 17:22/M
3728 Caitlin Nichols Linden MI 6466 12 F 53:50.0 17:22/M
3729 Meghan Chamberlain Howell MI 3538 27 F 53:52.0 17:23/M
3730 Debra Miller Brighton MI 8227 2 F 53:52.1 17:23/M
3731 Cody Fineske Tipton MI 5324 25 M 53:55.1 17:24/M
3732 Penny Wilson Howell MI 7711 0 F 53:55.2 17:24/M
3733 Tammy Melcher Manchester MI 6247 48 F 53:58.4 17:25/M
3734 Lija Hogan Ann Arbor MI 4493 0 F 53:58.9 17:25/M
3735 Dennis Hogan Ann Arbor MI 4492 44 M 53:59.0 17:25/M
3736 Erica Groh Plymouth MI 5182 37 F 54:03.0 17:26/M
3737 Ronald Groh Plymouth MI 4262 40 M 54:04.3 17:26/M
3738 Jeff Fineske Tipton MI 5325 50 M 54:04.5 17:26/M
3739 Carter Foerster Fenton MI 4056 8 M 54:06.5 17:27/M
3740 Brittany Melcher Manchester MI 6246 23 F 54:06.5 17:27/M
3741 case kittel manchester MI 8149 17 M 54:11.3 17:29/M
3742 Salima Emara Ann Arbor MI 3929 38 F 54:15.7 17:30/M
3743 Sean Ward Novi MI 8478 14 M 54:15.9 17:30/M
3744 carol rose kahn manchester MI 8127 57 F 54:16.1 17:30/M
3745 Norman Haidous Ann Arbor MI 4305 0 M 54:16.9 17:30/M
3746 Julie White Tecmseh MI 8488 40 F 54:17.4 17:31/M
3747 Loretta Ward Novi MI 8477 0 F 54:17.7 17:31/M
3748 Jamie Buckner Woodhaven MI 7912 35 F 54:18.0 17:31/M
3749 Andrea Wheeler Adrian MI 7657 33 F 54:18.1 17:31/M
3750 donna nie milan MI 6474 44 F 54:21.8 17:32/M
3751 Charles Evans stockbridge MI 8709 48 M 54:24.5 17:33/M
3752 barb cattran troy MI 3533 50 F 54:24.7 17:33/M
3753 Debbie Adams 5793 54 F 54:26.2 17:34/M
3754 Mike Cochran Dexter MI 7942 32 M 54:27.3 17:34/M
3755 Isabella Muscott Novi MI 6412 51 F 54:27.4 17:34/M
3756 Sandy Botica Windsor ON 3332 36 F 54:27.9 17:34/M
3757 Sharon Steadman 8406 11 F 54:28.0 17:34/M
3758 susan modigell willis MI 6336 44 F 54:28.9 17:34/M
3759 Hailey Castleberry stockbridge MI 8625 7 F 54:29.4 17:35/M
3760 B.j. Castleberry stockbridge MI 8624 0 M 54:29.8 17:35/M
3761 Aileen Barkume Royal Oak MI 3175 61 F 54:31.1 17:35/M
3762 Tim Barkume Farmington Hills MI 3178 59 M 54:36.3 17:37/M
3763 Jennifer Robertson Ypsilanti MI 6851 38 F 54:36.8 17:37/M
3764 Keegan Robertson Ypsilanti MI 6853 5 M 54:36.8 17:37/M
3765 Katrina Perry Westland MI 6629 28 F 54:38.0 17:37/M
3766 Nicole Cochran Dexter MI 7943 27 F 54:38.7 17:37/M
3767 Emily Botica Ypsilanti MI 3330 36 F 54:40.1 17:38/M
3768 Judith Pawloski Ann Arbor MI 8974 68 F 54:40.4 17:38/M
3769 Nicole Burling Garden City MI 3435 28 F 54:40.4 17:38/M
3770 Sandy Zalmout Dexter MI 5177 0 F 54:42.2 17:39/M
3771 Dee Fredenburg Garden City MI 4091 46 F 54:43.5 17:39/M
3772 Brittany August Canton MI 8560 28 F 54:48.1 17:41/M
3773 Nita Shah Canton MI 8369 48 F 54:49.3 17:41/M
3774 Daniel August Canton MI 8561 31 M 54:50.1 17:41/M
3775 Melani Chartrand Bingham Farms MI 7930 9 F 54:50.8 17:41/M
3776 Randi Weaver Ionia MI 7614 55 F 54:52.7 17:42/M
3777 carrie debruler ann arbor MI 3780 42 F 54:52.9 17:42/M
3778 Lauren Woodside Ann Arbor MI 5624 8 F 54:53.5 17:42/M
3779 sue daniel Ithaca MI 3740 0 F 54:54.2 17:43/M
3780 Lea Odtohan Royal Oak MI 6509 44 F 54:54.3 17:43/M
3781 Karen Gonczy Bingham Farms MI 8046 2 F 54:56.8 17:43/M
3782 Melissa Tyler 7471 34 F 54:57.3 17:44/M
3783 Bruce Woodside Ann Arbor MI 5623 50 M 54:58.2 17:44/M
3784 Crystal Patton 5514 0 F 54:58.6 17:44/M
3785 Grady Nance Farmington Hills MI 6431 61 M 55:00.3 17:45/M
3786 Sara Nance Ann Arbor MI 6434 28 F 55:02.9 17:45/M
3787 Jennifer Borden Ypsilanti MI 3322 42 F 55:02.9 17:45/M
3788 David Nance Ann arbor MI 6430 26 M 55:05.9 17:46/M
3789 Kyle Teichow Allendale MI 8432 39 F 55:07.0 17:47/M
3790 Teresa Furmanski ann arbor MI 5338 30 F 55:08.1 17:47/M
3791 Troy Wiseman Monroe MI 5673 43 M 55:08.4 17:47/M
3792 Brian Pinkelman Ann Arbor MI 6659 45 M 55:11.4 17:48/M
3793 Andrea Davidoff South Lyon MI 3752 30 F 55:13.6 17:49/M
3794 Marah-Lynn Daniels Farmington MI 8663 10 F 55:14.6 17:49/M
3795 Cherita Andrews 5732 53 F 55:15.0 17:49/M
3796 Bonnie Smith South Lyon MI 7174 14 F 55:15.4 17:49/M
3797 Carolyn Grawi Ann Arbor MI 5354 44 F 55:15.8 17:49/M
3798 Demond Johnson 5899 40 F 55:16.2 17:50/M
3799 Dan Cross Hell MI 3704 53 M 55:17.4 17:50/M
3800 Rhonda Busette Romulus MI 7915 1 F 55:17.4 17:50/M
 
Place Name City Bib No Age Gender Total Time Pace
3801 Jessica Maldonado ANN ARBOR MI 6090 26 F 55:17.7 17:50/M
3802 Lisa Morris Pinckney MI 8940 54 F 55:17.9 17:50/M
3803 Karen Kostamo Ann Arbor MI 4826 0 F 55:18.4 17:50/M
3804 Allison Harrison Walled Lake MI 4365 10 F 55:18.7 17:50/M
3805 O'Neal Hampton Ann Arbor MI 4329 0 M 55:19.3 17:51/M
3806 Lindsay Fry Belleville MI 4116 0 F 55:20.3 17:51/M
3807 Eileen Kastura Rochester Hills MI 4698 47 F 55:21.4 17:51/M
3808 Allen Fry Belleville MI 4113 0 M 55:23.4 17:52/M
3809 Eli Avny Ypslanti MI 5199 58 M 55:24.1 17:52/M
3810 Anne Kastura Rochester Hills MI 4697 20 F 55:24.7 17:52/M
3811 Earl Schipper Holland MI 7013 76 M 55:25.1 17:53/M
3812 Alyce Schipper Holland MI 7012 69 F 55:27.5 17:53/M
3813 Joe Obidzinski Livonia MI 8258 11 M 55:28.4 17:54/M
3814 Jarrod Ansel Clarkston MI 8549 41 M 55:30.2 17:54/M
3815 Michelle Obidzinski Livonia MI 8259 3 F 55:30.4 17:54/M
3816 Eboni Dye Detroit MI 7993 1 F 55:31.4 17:55/M
3817 Susan Campos Dundee MI 3489 54 F 55:33.0 17:55/M
3818 DeCarlo Williams Redford MI 8504 6 F 55:34.5 17:55/M
3819 anna tirtha fenton MI 8443 0 F 55:34.9 17:55/M
3820 Samantha Warner Paw Paw MI 7591 17 F 55:37.9 17:56/M
3821 Callie Woodside Ann Arbor MI 7759 13 F 55:41.0 17:58/M
3822 Sydney Haarhues Ann Arbor MI 4300 13 F 55:41.4 17:58/M
3823 Kathy Schroeder Holt MI 7025 46 F 55:42.0 17:58/M
3824 Robert Warner Paw Paw MI 7590 53 M 55:43.5 17:58/M
3825 Katie Sheets Jackson MI 8370 24 F 55:47.1 18:00/M
3826 Jeannine Maas plymouth MI 6066 0 F 55:53.0 18:02/M
3827 Sally Merkling Ann Arbor MI 6252 33 F 55:56.7 18:03/M
3828 Angie Babo Ypsilanti MI 3127 42 F 55:57.0 18:03/M
3829 Patricia Elka Willis MI 3920 50 F 55:57.3 18:03/M
3830 Kirstin Lara Ansbacher Westland MI 3084 0 F 55:57.7 18:03/M
3831 Anna Bordas Rochester Hills MI 3320 42 F 55:59.9 18:04/M
3832 Tyler Horky Manchester MI 8096 9 M 56:08.0 18:06/M
3833 Michelle Randall Northville MI 6754 42 F 56:08.7 18:06/M
3834 Carolyn Long Livonia MI 6039 46 F 56:09.7 18:07/M
3835 Lynda King Ann Arbor MI 4779 42 F 56:12.1 18:08/M
3836 Joel Cook Ann Arbor MI 3639 56 M 56:12.9 18:08/M
3837 Deo Manuel Bolingbrook IL 8890 67 M 56:16.6 18:09/M
3838 Connie Cook Dexter MI 3638 56 F 56:16.8 18:09/M
3839 Jack O'Dowd South Lyon MI 6506 10 M 56:18.0 18:10/M
3840 Jennifer Miklosi Northville MI 6291 45 F 56:18.1 18:10/M
3841 Marjorie Jeter Howell MI 4603 73 F 56:18.6 18:10/M
3842 Sean Miklosi Northville MI 6292 9 M 56:19.6 18:10/M
3843 Kristina Glusac Ann Arbor MI 8040 2 F 56:23.7 18:11/M
3844 Stephen Perrin Ann Arbor MI 8981 59 M 56:25.9 18:12/M
3845 Cathleen Perrin Ann Arbor MI 8978 56 F 56:26.6 18:12/M
3846 Eric Fischer Temperance MI 4023 28 M 56:27.6 18:13/M
3847 Jennifer Luellen Belleville MI 6052 30 F 56:28.7 18:13/M
3848 Christine Swain 5780 50 F 56:29.5 18:13/M
3849 Linda Kemnitz Ann Arbor MI 8135 2 F 56:31.1 18:14/M
3850 Martha Tahir 5779 52 F 56:31.8 18:14/M
3851 kay puckett belleville MI 6721 30 F 56:32.2 18:14/M
3852 Chad Biltz Pinckney MI 7883 2 M 56:32.6 18:14/M
3853 Elizabeth Fischer Temperance MI 4022 28 F 56:46.5 18:19/M
3854 Anne Brod Ann Arbor MI 5243 41 F 56:49.8 18:20/M
3855 Thomas Hartl Canton MI 4370 38 M 56:49.9 18:20/M
3856 Tom Anderson Canton MI 3073 42 M 56:52.2 18:21/M
3857 Rosalind Martin Ypsilanti MI 6141 0 F 56:53.0 18:21/M
3858 Janet Lineer Ann Arbor MI 6010 57 F 56:56.4 18:22/M
3859 Donna Golm Northville MI 8754 61 F 56:56.6 18:22/M
3860 Kathy Rice Westland MI 6813 52 F 56:57.3 18:22/M
3861 Brian Rice Westland MI 6811 53 M 56:58.1 18:23/M
3862 Nancy Bukowski Northville Township MI 3421 0 F 56:58.4 18:23/M
3863 Philip Lineer Ann Arbor MI 6011 52 M 56:58.5 18:23/M
3864 bethany rice garden city MI 8322 32 F 56:59.5 18:23/M
3865 Sarah Feider Ann Arbor MI 3987 42 F 57:01.2 18:24/M
3866 Corey Horky Manchester MI 8095 37 M 57:11.1 18:27/M
3867 Chris LeRoy Augusta MI 4975 59 M 57:15.1 18:28/M
3868 Anna LeRoy Whitmore Lake MI 4974 26 F 57:16.4 18:28/M
3869 Marta LeRoy Augusta MI 4977 61 F 57:18.0 18:29/M
3870 Matthew Czerkis Eastpointe MI 3723 40 M 57:19.7 18:29/M
3871 Amber Felts Clinton MI 3992 0 F 57:20.5 18:30/M
3872 Olivia Merritt Ann Arbor MI 6259 16 F 57:21.0 18:30/M
3873 Norma Merritt Ann Arbor MI 6258 49 F 57:21.4 18:30/M
3874 Sara Benavidez Whitmore Lake MI 3247 53 F 57:21.8 18:30/M
3875 Terri Galido Novi MI 4134 62 F 57:22.1 18:30/M
3876 Karen Schaefer Brooklyn MI 8350 65 F 57:23.7 18:31/M
3877 Ron Schaefer Brooklyn MI 8351 65 M 57:24.4 18:31/M
3878 Evan LeRoy Whitmore Lake MI 4976 26 M 57:24.6 18:31/M
3879 Katherine Czerkis Eastpointe MI 3722 41 F 57:26.1 18:32/M
3880 Frank Brinker Ypsilanti MI 5242 36 M 57:26.6 18:32/M
3881 Linda Boulard Ann Arbor MI 3338 0 F 57:28.4 18:32/M
3882 Marti Moon Ann Arbor MI 6354 65 F 57:29.0 18:33/M
3883 Johnathan Barr Ypsilanti MI 3185 8 M 57:29.9 18:33/M
3884 John O'Dowd South Lyon MI 6507 47 M 57:30.4 18:33/M
3885 Mary O'Dowd South Lyon MI 6508 48 F 57:35.4 18:35/M
3886 LAURA HAEBERLE ANN ARBOR MI 4302 30 F 57:37.8 18:35/M
3887 Stewart Shevin West Bloomfield MI 7097 55 M 57:37.8 18:35/M
3888 Kelly Wood Chelsea MI 7748 53 F 57:39.1 18:36/M
3889 Darlene Barr Ypsilanti MI 3184 38 F 57:39.1 18:36/M
3890 Tracy Wharton Whitmore Lake MI 7656 39 F 57:40.1 18:36/M
3891 Jenny Hartl Canton MI 4369 39 F 57:42.8 18:37/M
3892 Jessie Kim Canton MI 4766 42 F 57:43.3 18:37/M
3893 Patty Sutton Ypsilanti MI 7325 51 F 57:43.6 18:37/M
3894 Elizabeth Herndon Milford MI 4424 10 F 57:44.9 18:37/M
3895 Kacey Jansma Canton MI 4590 29 F 57:45.6 18:38/M
3896 Caryl Wilfong Redford MI 7694 52 F 57:50.6 18:39/M
3897 Linda Thomas Franklin MI 8435 0 F 57:50.6 18:39/M
3898 Sherril Griffin Redford MI 4248 54 F 57:55.2 18:41/M
3899 Racheal Downes Ann Arbor MI 5298 43 F 58:00.4 18:43/M
3900 Morgan Cornell Ann Arbor MI 3651 29 M 58:01.1 18:43/M
 
Place Name City Bib No Age Gender Total Time Pace
3901 Jacob Bach Ann Arbor MI 3130 0 M 58:01.2 18:43/M
3902 Erin Bacon Ann Arbor MI 3142 29 F 58:02.2 18:43/M
3903 Kate Bonk Ann Arbor MI 3318 27 F 58:02.3 18:43/M
3904 Mark Pfitzenmaier Farmington Hills MI 6644 27 M 58:04.8 18:44/M
3905 Kathy Fitzgerald Buffalo NY 8720 60 F 58:08.1 18:45/M
3906 Morag Rourke Westland MI 6917 42 F 58:08.5 18:45/M
3907 Jacqueline Conliffe Ann Arbor MI 3628 31 F 58:10.2 18:46/M
3908 Jennifer Bux Westland MI 3460 35 F 58:11.8 18:46/M
3909 Jacobi Romaker Perrysburg OH 5023 4 M 58:13.1 18:47/M
3910 Lindsay Thurman Westland MI 7421 21 F 58:13.7 18:47/M
3911 Sharon Conliffe Ann Arbor MI 3629 61 F 58:14.9 18:47/M
3912 Debbie Chevert Ann Arbor MI 3561 56 F 58:16.4 18:48/M
3913 Judy Demick Brinker Ypsilanti MI 5290 39 F 58:16.7 18:48/M
3914 Elizabeth Meza Whitmore Lake MI 8926 27 F 58:17.1 18:48/M
3915 Belinda Agrusa Warren MI 7843 0 F 58:17.2 18:48/M
3916 Maxwell Ralph Ann Arbor MI 5530 5 M 58:17.3 18:48/M
3917 Tonya McCracken Ann Arbor MI 6193 39 F 58:17.7 18:48/M
3918 Alex Ralph Ann Arbor MI 5529 38 M 58:18.0 18:48/M
3919 Michael Kahl Ann Arbor MI 4667 34 M 58:18.2 18:48/M
3920 Pat McCracken Ann Arbor MI 6192 42 M 58:19.7 18:49/M
3921 Jaylien Keyes Michigan Center MI 4748 45 F 58:23.3 18:50/M
3922 Devon Noonan Kahl Ann Arbor MI 6485 32 F 58:23.7 18:50/M
3923 Julia Hogikyan Ann Arbor MI 4494 18 F 58:27.7 18:51/M
3924 Susan Misejka Whitehouse OH 6327 52 F 58:28.0 18:52/M
3925 Lauren Hogikyan Ann Arbor MI 4495 15 F 58:29.8 18:52/M
3926 Ronald VanBuskirk Sylvania OH 5604 0 M 58:30.8 18:52/M
3927 Mark Misejka Whitehouse OH 6326 59 M 58:34.0 18:54/M
3928 Lindsey McKenzie Ferndale MI 8210 0 F 58:36.5 18:54/M
3929 Benjamin Weyenberg Appleton WI 7654 35 M 58:36.8 18:54/M
3930 Bryan Reynolds Auburn Hills MI 8320 0 M 58:38.3 18:55/M
3931 Aimee Tinkham Canton MI 7427 37 F 58:38.8 18:55/M
3932 Samantha Weyenberg Appleton WI 7655 30 F 58:39.6 18:55/M
3933 Melissa Adams Ypsilanti MI 7836 38 F 58:39.9 18:55/M
3934 Crystal Hill Whitmore Lake MI 8793 28 F 58:41.7 18:56/M
3935 Travis Hill Whitmore Lake MI 8794 27 M 58:44.9 18:57/M
3936 Julie Bull Westland MI 3422 36 F 58:49.1 18:58/M
3937 Catherine Bradley Ann Arbor MI 5232 62 F 58:49.4 18:58/M
3938 Janet Keller Ann Arbor MI 4724 66 F 58:51.8 18:59/M
3939 Vicki Watson East China MI 7608 55 F 58:53.9 19:00/M
3940 Christian Bradley Ann Arbor MI 5233 62 M 58:58.3 19:01/M
3941 meghan cullen 5864 25 F 59:11.9 19:05/M
3942 Julie Fielder Manchester MI 4002 21 F 59:13.3 19:06/M
3943 Mary Fielder Manchester MI 4004 48 F 59:13.3 19:06/M
3944 Pat Fielder Manchester MI 4005 56 M 59:14.3 19:06/M
3945 Jillian O'Leary westland MI 5498 30 F 59:15.6 19:07/M
3946 James O'Leary westland MI 5497 31 M 59:16.8 19:07/M
3947 corey bannon 5865 25 M 59:18.4 19:08/M
3948 Chad Chinavare brownstown MI 5262 26 M 59:19.7 19:08/M
3949 Tina Horvath brownstown MI 5390 24 F 59:28.5 19:11/M
3950 Tricia Suttmann Ann Arbor MI 7324 63 F 59:29.8 19:11/M
3951 Leonora Gebben Ann Arbor MI 4157 65 F 59:32.1 19:12/M
3952 Crystal Heft Ann Arbor MI 4400 65 F 59:32.9 19:12/M
3953 Elizabeth Kirksey Ann Arbor MI 4784 67 F 59:33.8 19:13/M
3954 Lacee Werner Fremont MI 7648 58 F 59:37.5 19:14/M
3955 Thomas Watson East China MI 7606 55 M 59:40.7 19:15/M
3956 maureen berlucchi ann arbor MI 3266 30 F 59:41.6 19:15/M
3957 Julie Crawford St. Louis MO 3693 39 F 59:42.3 19:15/M
3958 Jessica Orr Ann Arbor MI 6535 37 F 59:42.8 19:15/M
3959 Yana Muckelbauer Ann Arbor MI 8943 38 F 59:44.7 19:16/M
3960 John O'Neill Birmingham MI 5501 59 M 59:46.3 19:17/M
3961 Robert Muckelbauer Ann Arbor MI 8942 49 M 59:57.8 19:20/M
3962 Stacey Schroeder St. Louis MO 7026 37 F 59:58.1 19:21/M
3963 Peggy Gall Alger MI 4136 62 F 1:00:06.2 19:23/M
3964 Eileen Campbell Parchment MI 5252 63 F 1:00:06.8 19:23/M
3965 Ryan Raymo Redford MI 6771 7 M 1:00:18.7 19:27/M
3966 Kevin Raymo Redford MI 6770 9 M 1:00:19.4 19:27/M
3967 Sara Raymo Redford MI 6772 35 F 1:00:20.8 19:28/M
3968 Jason Raymo Redford MI 6769 36 M 1:00:23.2 19:29/M
3969 D. Lee Lirette Ann Arbor MI 6018 61 F 1:00:37.5 19:33/M
3970 Mary Poszywak Ann Arbor MI 8996 57 F 1:00:38.4 19:34/M
3971 Ellen Buist 5664 55 F 1:00:43.2 19:35/M
3972 Cathy Van Stone MOnroe MI 7495 42 F 1:00:44.1 19:35/M
3973 Amy Miller Canton MI 5467 52 F 1:00:46.6 19:36/M
3974 Nicholas Palson dexter MI 6569 13 M 1:00:46.7 19:36/M
3975 Christina Carmichael Fowlerville MI 5256 31 F 1:00:49.1 19:37/M
3976 Sarah Daman Ann Arbor MI 3735 69 F 1:00:52.1 19:38/M
3977 Francis Daman Ann Arbor MI 3734 71 M 1:01:00.1 19:41/M
3978 Anthony Ewing Miamisburg OH 3965 7 M 1:01:12.0 19:45/M
3979 Erika Rigelman Jackson MI 6832 26 F 1:01:24.6 19:48/M
3980 Ann Ewing Miamisburg OH 3964 34 F 1:01:30.1 19:50/M
3981 Lynne Gatz Jackson MI 4153 45 F 1:01:30.3 19:50/M
3982 Sabrina Jenkins Ann Arbor MI 4600 42 F 1:01:38.8 19:53/M
3983 Richard Chivers Ann Arbor MI 3563 67 M 1:01:40.5 19:54/M
3984 Ken Simpson Ann Arbor MI 7133 42 M 1:01:45.2 19:55/M
3985 Jillian Wigren Clio MI 7685 30 F 1:01:57.3 19:59/M
3986 Valerie Jefferson Auburn Hills MI 2221 42 F 1:02:10.5 20:03/M
3987 Mick O'Grady Fenton MI 5495 53 M 1:02:15.0 20:05/M
3988 Sarah Evans Pontiac MI 8710 26 F 1:02:15.8 20:05/M
3989 Angie Milliken Ann Arbor MI 6311 0 F 1:02:34.1 20:11/M
3990 Steven Davis Allen Park 3769 38 M 1:02:37.0 20:12/M
3991 Kathy Richards Ann Arbor MI 6815 59 F 1:02:38.0 20:12/M
3992 Alicia Borowski Newport 3323 38 F 1:02:45.7 20:15/M
3993 Erin Murphy Petersburg MI 6407 10 F 1:02:49.0 20:16/M
3994 Mary Kolasinski Petersburg MI 4817 59 F 1:02:53.9 20:17/M
3995 Daniel Rife Dexter MI 6829 32 M 1:03:04.8 20:21/M
3996 Sheela Pandey Ann arbor MI 6570 34 F 1:03:07.1 20:22/M
3997 Lynnette Rasmussen Ann Arbor MI 6759 57 F 1:03:08.6 20:22/M
3998 Dara Rife Burton MI 6830 59 F 1:03:08.7 20:22/M
3999 William Kincaid Dexter MI 4772 77 M 1:03:27.8 20:28/M
4000 Staci Clark Montrose MI 3587 28 F 1:03:29.9 20:29/M
 
Place Name City Bib No Age Gender Total Time Pace
4001 Lisa Kollinger Waterford MI 8839 41 F 1:03:33.8 20:30/M
4002 Rob Gibson Windsor ON 8743 47 M 1:03:37.0 20:31/M
4003 Tim Larsen Dexter MI 4908 75 M 1:03:48.9 20:35/M
4004 Karen Crites Dearborn Heights MI 3701 50 F 1:04:00.6 20:39/M
4005 DONALD POOLE, III BELLEVILLE MI 8300 8 M 1:04:02.8 20:39/M
4006 DONALD POOLE, JR. BELLEVILLE MI 8301 36 M 1:04:05.8 20:40/M
4007 Nick Rossman Romeo MI 5548 22 M 1:04:06.1 20:41/M
4008 Jeffery Crites 5826 49 M 1:04:06.6 20:41/M
4009 KINLEY POOLE BELLEVILLE MI 8299 4 M 1:04:07.2 20:41/M
4010 Keighon McGlynn Sterling Hts. MI 5454 19 M 1:04:09.4 20:42/M
4011 Aafrika Poole Belleville MI 8298 34 F 1:04:12.4 20:43/M
4012 mary schilling saginaw MI 7010 64 F 1:04:26.2 20:47/M
4013 Madeline Gordon Cassopolis MI 4212 10 F 1:04:27.8 20:47/M
4014 ava erickson 5690 7 F 1:04:28.3 20:48/M
4015 Anne Erickson Ann Arbor MI 3941 41 F 1:04:30.8 20:48/M
4016 Pam Campbell Belleville MI 5254 30 F 1:04:58.0 20:57/M
4017 nancy rubus MILFORD MI 6927 53 F 1:04:59.3 20:58/M
4018 Alexis Campbell Belleville MI 5251 11 F 1:05:01.0 20:58/M
4019 Emily Knack Ann Arbor MI 4801 15 F 1:05:02.6 20:59/M
4020 Joseph Rubus Milford MI 1266 43 M 1:05:03.9 20:59/M
4021 Colleen Shafer Lincoln Park MI 5060 47 F 1:05:05.7 21:00/M
4022 Donald Burian Ann Arbor MI 3430 65 M 1:05:05.9 21:00/M
4023 Mike Campbell Belleville MI 5253 33 M 1:05:06.2 21:00/M
4024 Christina Kucka Canton MI 8850 31 F 1:05:06.2 21:00/M
4025 Mary Norris Ann Arbor MI 6486 60 F 1:05:07.6 21:00/M
4026 Jeremy Burian Ann Arbor MI 7913 37 M